<?xml version="1.0" encoding="UTF-8" standalone="no" ?>
<gpx xmlns="http://www.topografix.com/GPX/1/1" xmlns:xsi="http://www.w3.org/2001/XMLSchema-instance" xsi:schemaLocation="http://www.topografix.com/GPX/1/1 http://www.topografix.com/GPX/1/1/gpx.xsd" version="1.1" creator="VisuGPX - https://www.visugpx.com">
  <metadata>
    <name>randonnée de monein 35km 01 SEPT 2019</name>
    <desc><![CDATA[randonnée de monein. parcours très sympa avec un temps idéal.]]></desc>
  </metadata>
  <trk>
    <name><![CDATA[Tracé actuel: 01 SEPT 2019 08:25]]></name>
    <trkseg>
      <trkpt lat="43.32283" lon="-0.56995">
        <ele>131.36</ele>
        <time>2019-09-01T06:25:45Z</time>
      </trkpt>
      <trkpt lat="43.3228" lon="-0.56997">
        <ele>130.88</ele>
        <time>2019-09-01T06:25:59Z</time>
      </trkpt>
      <trkpt lat="43.32278" lon="-0.56998">
        <ele>130.88</ele>
        <time>2019-09-01T06:26:02Z</time>
      </trkpt>
      <trkpt lat="43.32267" lon="-0.56991">
        <ele>132.8</ele>
        <time>2019-09-01T06:26:09Z</time>
      </trkpt>
      <trkpt lat="43.32262" lon="-0.56986">
        <ele>132.8</ele>
        <time>2019-09-01T06:26:11Z</time>
      </trkpt>
      <trkpt lat="43.32262" lon="-0.56981">
        <ele>132.8</ele>
        <time>2019-09-01T06:26:12Z</time>
      </trkpt>
      <trkpt lat="43.32262" lon="-0.56978">
        <ele>132.8</ele>
        <time>2019-09-01T06:26:13Z</time>
      </trkpt>
      <trkpt lat="43.32264" lon="-0.56975">
        <ele>132.8</ele>
        <time>2019-09-01T06:26:14Z</time>
      </trkpt>
      <trkpt lat="43.32269" lon="-0.56972">
        <ele>131.84</ele>
        <time>2019-09-01T06:26:16Z</time>
      </trkpt>
      <trkpt lat="43.32295" lon="-0.56979">
        <ele>130.88</ele>
        <time>2019-09-01T06:26:23Z</time>
      </trkpt>
      <trkpt lat="43.32309" lon="-0.56986">
        <ele>130.88</ele>
        <time>2019-09-01T06:26:27Z</time>
      </trkpt>
      <trkpt lat="43.32303" lon="-0.57005">
        <ele>130.88</ele>
        <time>2019-09-01T06:26:33Z</time>
      </trkpt>
      <trkpt lat="43.32284" lon="-0.56997">
        <ele>131.84</ele>
        <time>2019-09-01T06:26:44Z</time>
      </trkpt>
      <trkpt lat="43.32285" lon="-0.56997">
        <ele>131.36</ele>
        <time>2019-09-01T06:27:05Z</time>
      </trkpt>
      <trkpt lat="43.32283" lon="-0.56995">
        <ele>129.43</ele>
        <time>2019-09-01T06:27:43Z</time>
      </trkpt>
      <trkpt lat="43.32283" lon="-0.56994">
        <ele>129.92</ele>
        <time>2019-09-01T06:28:18Z</time>
      </trkpt>
      <trkpt lat="43.3228" lon="-0.56995">
        <ele>129.92</ele>
        <time>2019-09-01T06:28:35Z</time>
      </trkpt>
      <trkpt lat="43.3228" lon="-0.56996">
        <ele>131.36</ele>
        <time>2019-09-01T06:28:54Z</time>
      </trkpt>
      <trkpt lat="43.32264" lon="-0.56985">
        <ele>131.84</ele>
        <time>2019-09-01T06:29:04Z</time>
      </trkpt>
      <trkpt lat="43.32259" lon="-0.56952">
        <ele>132.32</ele>
        <time>2019-09-01T06:29:15Z</time>
      </trkpt>
      <trkpt lat="43.32253" lon="-0.56943">
        <ele>133.28</ele>
        <time>2019-09-01T06:29:26Z</time>
      </trkpt>
      <trkpt lat="43.32253" lon="-0.5694">
        <ele>133.28</ele>
        <time>2019-09-01T06:29:27Z</time>
      </trkpt>
      <trkpt lat="43.32253" lon="-0.56938">
        <ele>133.28</ele>
        <time>2019-09-01T06:29:28Z</time>
      </trkpt>
      <trkpt lat="43.32254" lon="-0.56935">
        <ele>133.76</ele>
        <time>2019-09-01T06:29:29Z</time>
      </trkpt>
      <trkpt lat="43.32254" lon="-0.56932">
        <ele>133.76</ele>
        <time>2019-09-01T06:29:30Z</time>
      </trkpt>
      <trkpt lat="43.32255" lon="-0.56929">
        <ele>134.24</ele>
        <time>2019-09-01T06:29:31Z</time>
      </trkpt>
      <trkpt lat="43.32255" lon="-0.56926">
        <ele>134.24</ele>
        <time>2019-09-01T06:29:32Z</time>
      </trkpt>
      <trkpt lat="43.32255" lon="-0.56922">
        <ele>134.72</ele>
        <time>2019-09-01T06:29:33Z</time>
      </trkpt>
      <trkpt lat="43.32257" lon="-0.56893">
        <ele>134.72</ele>
        <time>2019-09-01T06:29:39Z</time>
      </trkpt>
      <trkpt lat="43.32262" lon="-0.56852">
        <ele>135.68</ele>
        <time>2019-09-01T06:29:46Z</time>
      </trkpt>
      <trkpt lat="43.32263" lon="-0.56847">
        <ele>135.68</ele>
        <time>2019-09-01T06:29:47Z</time>
      </trkpt>
      <trkpt lat="43.32263" lon="-0.56841">
        <ele>135.68</ele>
        <time>2019-09-01T06:29:48Z</time>
      </trkpt>
      <trkpt lat="43.32264" lon="-0.56835">
        <ele>135.68</ele>
        <time>2019-09-01T06:29:49Z</time>
      </trkpt>
      <trkpt lat="43.32265" lon="-0.56829">
        <ele>135.68</ele>
        <time>2019-09-01T06:29:50Z</time>
      </trkpt>
      <trkpt lat="43.32275" lon="-0.56776">
        <ele>137.13</ele>
        <time>2019-09-01T06:30:00Z</time>
      </trkpt>
      <trkpt lat="43.32278" lon="-0.56774">
        <ele>137.13</ele>
        <time>2019-09-01T06:30:01Z</time>
      </trkpt>
      <trkpt lat="43.32283" lon="-0.56774">
        <ele>137.13</ele>
        <time>2019-09-01T06:30:02Z</time>
      </trkpt>
      <trkpt lat="43.32286" lon="-0.56775">
        <ele>137.13</ele>
        <time>2019-09-01T06:30:03Z</time>
      </trkpt>
      <trkpt lat="43.3229" lon="-0.56776">
        <ele>136.64</ele>
        <time>2019-09-01T06:30:04Z</time>
      </trkpt>
      <trkpt lat="43.32294" lon="-0.56778">
        <ele>136.16</ele>
        <time>2019-09-01T06:30:05Z</time>
      </trkpt>
      <trkpt lat="43.32318" lon="-0.56794">
        <ele>134.72</ele>
        <time>2019-09-01T06:30:10Z</time>
      </trkpt>
      <trkpt lat="43.32324" lon="-0.56799">
        <ele>134.72</ele>
        <time>2019-09-01T06:30:11Z</time>
      </trkpt>
      <trkpt lat="43.32329" lon="-0.56803">
        <ele>134.24</ele>
        <time>2019-09-01T06:30:12Z</time>
      </trkpt>
      <trkpt lat="43.32335" lon="-0.56807">
        <ele>134.24</ele>
        <time>2019-09-01T06:30:13Z</time>
      </trkpt>
      <trkpt lat="43.3234" lon="-0.56812">
        <ele>133.76</ele>
        <time>2019-09-01T06:30:14Z</time>
      </trkpt>
      <trkpt lat="43.32344" lon="-0.56817">
        <ele>133.28</ele>
        <time>2019-09-01T06:30:15Z</time>
      </trkpt>
      <trkpt lat="43.3237" lon="-0.56848">
        <ele>131.36</ele>
        <time>2019-09-01T06:30:21Z</time>
      </trkpt>
      <trkpt lat="43.32375" lon="-0.56852">
        <ele>131.36</ele>
        <time>2019-09-01T06:30:22Z</time>
      </trkpt>
      <trkpt lat="43.32379" lon="-0.56856">
        <ele>131.36</ele>
        <time>2019-09-01T06:30:23Z</time>
      </trkpt>
      <trkpt lat="43.32388" lon="-0.56862">
        <ele>131.36</ele>
        <time>2019-09-01T06:30:25Z</time>
      </trkpt>
      <trkpt lat="43.32392" lon="-0.56865">
        <ele>131.36</ele>
        <time>2019-09-01T06:30:26Z</time>
      </trkpt>
      <trkpt lat="43.32407" lon="-0.56877">
        <ele>131.84</ele>
        <time>2019-09-01T06:30:29Z</time>
      </trkpt>
      <trkpt lat="43.32418" lon="-0.56888">
        <ele>131.84</ele>
        <time>2019-09-01T06:30:31Z</time>
      </trkpt>
      <trkpt lat="43.32491" lon="-0.56948">
        <ele>129.92</ele>
        <time>2019-09-01T06:30:45Z</time>
      </trkpt>
      <trkpt lat="43.325" lon="-0.56956">
        <ele>129.43</ele>
        <time>2019-09-01T06:30:47Z</time>
      </trkpt>
      <trkpt lat="43.32505" lon="-0.56959">
        <ele>129.92</ele>
        <time>2019-09-01T06:30:48Z</time>
      </trkpt>
      <trkpt lat="43.3251" lon="-0.56962">
        <ele>129.92</ele>
        <time>2019-09-01T06:30:49Z</time>
      </trkpt>
      <trkpt lat="43.32515" lon="-0.56963">
        <ele>130.4</ele>
        <time>2019-09-01T06:30:50Z</time>
      </trkpt>
      <trkpt lat="43.3252" lon="-0.56965">
        <ele>130.4</ele>
        <time>2019-09-01T06:30:51Z</time>
      </trkpt>
      <trkpt lat="43.3254" lon="-0.56968">
        <ele>129.92</ele>
        <time>2019-09-01T06:30:55Z</time>
      </trkpt>
      <trkpt lat="43.32551" lon="-0.5697">
        <ele>129.43</ele>
        <time>2019-09-01T06:30:57Z</time>
      </trkpt>
      <trkpt lat="43.32577" lon="-0.56972">
        <ele>129.92</ele>
        <time>2019-09-01T06:31:02Z</time>
      </trkpt>
      <trkpt lat="43.32588" lon="-0.56973">
        <ele>129.92</ele>
        <time>2019-09-01T06:31:04Z</time>
      </trkpt>
      <trkpt lat="43.32669" lon="-0.57016">
        <ele>128.95</ele>
        <time>2019-09-01T06:31:20Z</time>
      </trkpt>
      <trkpt lat="43.32721" lon="-0.57046">
        <ele>128.95</ele>
        <time>2019-09-01T06:31:30Z</time>
      </trkpt>
      <trkpt lat="43.32725" lon="-0.57051">
        <ele>128.95</ele>
        <time>2019-09-01T06:31:31Z</time>
      </trkpt>
      <trkpt lat="43.32727" lon="-0.57057">
        <ele>129.43</ele>
        <time>2019-09-01T06:31:32Z</time>
      </trkpt>
      <trkpt lat="43.32726" lon="-0.57064">
        <ele>129.43</ele>
        <time>2019-09-01T06:31:33Z</time>
      </trkpt>
      <trkpt lat="43.32725" lon="-0.57068">
        <ele>129.43</ele>
        <time>2019-09-01T06:31:34Z</time>
      </trkpt>
      <trkpt lat="43.32723" lon="-0.57075">
        <ele>128.95</ele>
        <time>2019-09-01T06:31:35Z</time>
      </trkpt>
      <trkpt lat="43.32722" lon="-0.57082">
        <ele>128.95</ele>
        <time>2019-09-01T06:31:36Z</time>
      </trkpt>
      <trkpt lat="43.3272" lon="-0.57089">
        <ele>128.47</ele>
        <time>2019-09-01T06:31:37Z</time>
      </trkpt>
      <trkpt lat="43.32717" lon="-0.57096">
        <ele>127.99</ele>
        <time>2019-09-01T06:31:38Z</time>
      </trkpt>
      <trkpt lat="43.32712" lon="-0.5711">
        <ele>127.99</ele>
        <time>2019-09-01T06:31:40Z</time>
      </trkpt>
      <trkpt lat="43.32708" lon="-0.57117">
        <ele>127.99</ele>
        <time>2019-09-01T06:31:41Z</time>
      </trkpt>
      <trkpt lat="43.32699" lon="-0.5713">
        <ele>127.51</ele>
        <time>2019-09-01T06:31:43Z</time>
      </trkpt>
      <trkpt lat="43.32694" lon="-0.57136">
        <ele>127.03</ele>
        <time>2019-09-01T06:31:44Z</time>
      </trkpt>
      <trkpt lat="43.32665" lon="-0.57164">
        <ele>126.55</ele>
        <time>2019-09-01T06:31:49Z</time>
      </trkpt>
      <trkpt lat="43.32661" lon="-0.57171">
        <ele>126.55</ele>
        <time>2019-09-01T06:31:50Z</time>
      </trkpt>
      <trkpt lat="43.32658" lon="-0.57177">
        <ele>127.03</ele>
        <time>2019-09-01T06:31:51Z</time>
      </trkpt>
      <trkpt lat="43.32657" lon="-0.57184">
        <ele>127.51</ele>
        <time>2019-09-01T06:31:52Z</time>
      </trkpt>
      <trkpt lat="43.32656" lon="-0.5719">
        <ele>127.51</ele>
        <time>2019-09-01T06:31:53Z</time>
      </trkpt>
      <trkpt lat="43.32653" lon="-0.57213">
        <ele>126.55</ele>
        <time>2019-09-01T06:31:56Z</time>
      </trkpt>
      <trkpt lat="43.3265" lon="-0.57237">
        <ele>126.07</ele>
        <time>2019-09-01T06:31:59Z</time>
      </trkpt>
      <trkpt lat="43.32647" lon="-0.57266">
        <ele>125.11</ele>
        <time>2019-09-01T06:32:03Z</time>
      </trkpt>
      <trkpt lat="43.32644" lon="-0.57283">
        <ele>124.63</ele>
        <time>2019-09-01T06:32:05Z</time>
      </trkpt>
      <trkpt lat="43.32642" lon="-0.57299">
        <ele>124.63</ele>
        <time>2019-09-01T06:32:07Z</time>
      </trkpt>
      <trkpt lat="43.32642" lon="-0.57307">
        <ele>124.63</ele>
        <time>2019-09-01T06:32:08Z</time>
      </trkpt>
      <trkpt lat="43.32638" lon="-0.57364">
        <ele>123.19</ele>
        <time>2019-09-01T06:32:16Z</time>
      </trkpt>
      <trkpt lat="43.32637" lon="-0.57371">
        <ele>122.71</ele>
        <time>2019-09-01T06:32:17Z</time>
      </trkpt>
      <trkpt lat="43.32633" lon="-0.57399">
        <ele>121.74</ele>
        <time>2019-09-01T06:32:21Z</time>
      </trkpt>
      <trkpt lat="43.32631" lon="-0.57405">
        <ele>121.74</ele>
        <time>2019-09-01T06:32:22Z</time>
      </trkpt>
      <trkpt lat="43.32624" lon="-0.57424">
        <ele>122.22</ele>
        <time>2019-09-01T06:32:25Z</time>
      </trkpt>
      <trkpt lat="43.32622" lon="-0.57431">
        <ele>122.22</ele>
        <time>2019-09-01T06:32:26Z</time>
      </trkpt>
      <trkpt lat="43.32617" lon="-0.57494">
        <ele>123.67</ele>
        <time>2019-09-01T06:32:35Z</time>
      </trkpt>
      <trkpt lat="43.32617" lon="-0.57502">
        <ele>124.15</ele>
        <time>2019-09-01T06:32:36Z</time>
      </trkpt>
      <trkpt lat="43.32617" lon="-0.57509">
        <ele>124.15</ele>
        <time>2019-09-01T06:32:37Z</time>
      </trkpt>
      <trkpt lat="43.32615" lon="-0.5755">
        <ele>125.59</ele>
        <time>2019-09-01T06:32:43Z</time>
      </trkpt>
      <trkpt lat="43.32611" lon="-0.57578">
        <ele>126.55</ele>
        <time>2019-09-01T06:32:47Z</time>
      </trkpt>
      <trkpt lat="43.32609" lon="-0.57584">
        <ele>127.03</ele>
        <time>2019-09-01T06:32:48Z</time>
      </trkpt>
      <trkpt lat="43.32606" lon="-0.5759">
        <ele>127.03</ele>
        <time>2019-09-01T06:32:49Z</time>
      </trkpt>
      <trkpt lat="43.32603" lon="-0.57595">
        <ele>127.51</ele>
        <time>2019-09-01T06:32:50Z</time>
      </trkpt>
      <trkpt lat="43.326" lon="-0.576">
        <ele>127.51</ele>
        <time>2019-09-01T06:32:51Z</time>
      </trkpt>
      <trkpt lat="43.32547" lon="-0.57671">
        <ele>130.4</ele>
        <time>2019-09-01T06:33:06Z</time>
      </trkpt>
      <trkpt lat="43.32528" lon="-0.5769">
        <ele>131.84</ele>
        <time>2019-09-01T06:33:11Z</time>
      </trkpt>
      <trkpt lat="43.32516" lon="-0.57707">
        <ele>133.28</ele>
        <time>2019-09-01T06:33:15Z</time>
      </trkpt>
      <trkpt lat="43.32512" lon="-0.5771">
        <ele>133.76</ele>
        <time>2019-09-01T06:33:16Z</time>
      </trkpt>
      <trkpt lat="43.32509" lon="-0.57713">
        <ele>134.24</ele>
        <time>2019-09-01T06:33:17Z</time>
      </trkpt>
      <trkpt lat="43.32505" lon="-0.57715">
        <ele>134.24</ele>
        <time>2019-09-01T06:33:18Z</time>
      </trkpt>
      <trkpt lat="43.32502" lon="-0.57718">
        <ele>134.72</ele>
        <time>2019-09-01T06:33:19Z</time>
      </trkpt>
      <trkpt lat="43.32498" lon="-0.5772">
        <ele>134.72</ele>
        <time>2019-09-01T06:33:20Z</time>
      </trkpt>
      <trkpt lat="43.32483" lon="-0.57759">
        <ele>137.13</ele>
        <time>2019-09-01T06:33:30Z</time>
      </trkpt>
      <trkpt lat="43.32473" lon="-0.57826">
        <ele>139.53</ele>
        <time>2019-09-01T06:33:46Z</time>
      </trkpt>
      <trkpt lat="43.32454" lon="-0.57881">
        <ele>142.89</ele>
        <time>2019-09-01T06:34:00Z</time>
      </trkpt>
      <trkpt lat="43.32452" lon="-0.57903">
        <ele>144.34</ele>
        <time>2019-09-01T06:34:06Z</time>
      </trkpt>
      <trkpt lat="43.32454" lon="-0.57906">
        <ele>144.34</ele>
        <time>2019-09-01T06:34:07Z</time>
      </trkpt>
      <trkpt lat="43.32457" lon="-0.57908">
        <ele>144.34</ele>
        <time>2019-09-01T06:34:08Z</time>
      </trkpt>
      <trkpt lat="43.32508" lon="-0.57914">
        <ele>143.85</ele>
        <time>2019-09-01T06:34:21Z</time>
      </trkpt>
      <trkpt lat="43.32554" lon="-0.57902">
        <ele>142.89</ele>
        <time>2019-09-01T06:34:31Z</time>
      </trkpt>
      <trkpt lat="43.32564" lon="-0.57901">
        <ele>142.41</ele>
        <time>2019-09-01T06:34:33Z</time>
      </trkpt>
      <trkpt lat="43.32569" lon="-0.57902">
        <ele>142.41</ele>
        <time>2019-09-01T06:34:34Z</time>
      </trkpt>
      <trkpt lat="43.32573" lon="-0.57903">
        <ele>142.41</ele>
        <time>2019-09-01T06:34:35Z</time>
      </trkpt>
      <trkpt lat="43.32578" lon="-0.57906">
        <ele>142.41</ele>
        <time>2019-09-01T06:34:36Z</time>
      </trkpt>
      <trkpt lat="43.32582" lon="-0.57908">
        <ele>142.41</ele>
        <time>2019-09-01T06:34:37Z</time>
      </trkpt>
      <trkpt lat="43.32586" lon="-0.57911">
        <ele>141.93</ele>
        <time>2019-09-01T06:34:38Z</time>
      </trkpt>
      <trkpt lat="43.3259" lon="-0.57915">
        <ele>141.93</ele>
        <time>2019-09-01T06:34:39Z</time>
      </trkpt>
      <trkpt lat="43.32594" lon="-0.57919">
        <ele>141.45</ele>
        <time>2019-09-01T06:34:40Z</time>
      </trkpt>
      <trkpt lat="43.32597" lon="-0.57923">
        <ele>141.45</ele>
        <time>2019-09-01T06:34:41Z</time>
      </trkpt>
      <trkpt lat="43.32598" lon="-0.57929">
        <ele>141.45</ele>
        <time>2019-09-01T06:34:42Z</time>
      </trkpt>
      <trkpt lat="43.32598" lon="-0.57936">
        <ele>140.97</ele>
        <time>2019-09-01T06:34:43Z</time>
      </trkpt>
      <trkpt lat="43.32596" lon="-0.57941">
        <ele>140.97</ele>
        <time>2019-09-01T06:34:44Z</time>
      </trkpt>
      <trkpt lat="43.32593" lon="-0.57944">
        <ele>140.97</ele>
        <time>2019-09-01T06:34:45Z</time>
      </trkpt>
      <trkpt lat="43.32589" lon="-0.57946">
        <ele>140.97</ele>
        <time>2019-09-01T06:34:46Z</time>
      </trkpt>
      <trkpt lat="43.32584" lon="-0.57948">
        <ele>140.97</ele>
        <time>2019-09-01T06:34:47Z</time>
      </trkpt>
      <trkpt lat="43.3258" lon="-0.57949">
        <ele>140.97</ele>
        <time>2019-09-01T06:34:48Z</time>
      </trkpt>
      <trkpt lat="43.32505" lon="-0.57966">
        <ele>143.85</ele>
        <time>2019-09-01T06:35:04Z</time>
      </trkpt>
      <trkpt lat="43.32489" lon="-0.5797">
        <ele>144.82</ele>
        <time>2019-09-01T06:35:08Z</time>
      </trkpt>
      <trkpt lat="43.32482" lon="-0.57974">
        <ele>144.82</ele>
        <time>2019-09-01T06:35:10Z</time>
      </trkpt>
      <trkpt lat="43.3248" lon="-0.57979">
        <ele>145.3</ele>
        <time>2019-09-01T06:35:11Z</time>
      </trkpt>
      <trkpt lat="43.32479" lon="-0.57984">
        <ele>145.3</ele>
        <time>2019-09-01T06:35:12Z</time>
      </trkpt>
      <trkpt lat="43.3248" lon="-0.57988">
        <ele>145.78</ele>
        <time>2019-09-01T06:35:13Z</time>
      </trkpt>
      <trkpt lat="43.32483" lon="-0.57991">
        <ele>145.78</ele>
        <time>2019-09-01T06:35:14Z</time>
      </trkpt>
      <trkpt lat="43.32486" lon="-0.57994">
        <ele>146.26</ele>
        <time>2019-09-01T06:35:15Z</time>
      </trkpt>
      <trkpt lat="43.32522" lon="-0.5802">
        <ele>146.74</ele>
        <time>2019-09-01T06:35:24Z</time>
      </trkpt>
      <trkpt lat="43.32526" lon="-0.58024">
        <ele>146.74</ele>
        <time>2019-09-01T06:35:25Z</time>
      </trkpt>
      <trkpt lat="43.32529" lon="-0.58028">
        <ele>146.74</ele>
        <time>2019-09-01T06:35:26Z</time>
      </trkpt>
      <trkpt lat="43.32531" lon="-0.58034">
        <ele>146.74</ele>
        <time>2019-09-01T06:35:27Z</time>
      </trkpt>
      <trkpt lat="43.32533" lon="-0.58039">
        <ele>146.74</ele>
        <time>2019-09-01T06:35:28Z</time>
      </trkpt>
      <trkpt lat="43.32533" lon="-0.58044">
        <ele>147.22</ele>
        <time>2019-09-01T06:35:29Z</time>
      </trkpt>
      <trkpt lat="43.32533" lon="-0.5805">
        <ele>147.22</ele>
        <time>2019-09-01T06:35:30Z</time>
      </trkpt>
      <trkpt lat="43.32532" lon="-0.58056">
        <ele>147.22</ele>
        <time>2019-09-01T06:35:31Z</time>
      </trkpt>
      <trkpt lat="43.32532" lon="-0.58062">
        <ele>147.7</ele>
        <time>2019-09-01T06:35:32Z</time>
      </trkpt>
      <trkpt lat="43.32531" lon="-0.58068">
        <ele>147.7</ele>
        <time>2019-09-01T06:35:33Z</time>
      </trkpt>
      <trkpt lat="43.32531" lon="-0.58074">
        <ele>147.7</ele>
        <time>2019-09-01T06:35:34Z</time>
      </trkpt>
      <trkpt lat="43.32532" lon="-0.58079">
        <ele>147.7</ele>
        <time>2019-09-01T06:35:35Z</time>
      </trkpt>
      <trkpt lat="43.32534" lon="-0.58084">
        <ele>147.7</ele>
        <time>2019-09-01T06:35:36Z</time>
      </trkpt>
      <trkpt lat="43.32538" lon="-0.58088">
        <ele>147.7</ele>
        <time>2019-09-01T06:35:37Z</time>
      </trkpt>
      <trkpt lat="43.32542" lon="-0.58091">
        <ele>147.22</ele>
        <time>2019-09-01T06:35:38Z</time>
      </trkpt>
      <trkpt lat="43.32573" lon="-0.58109">
        <ele>146.26</ele>
        <time>2019-09-01T06:35:44Z</time>
      </trkpt>
      <trkpt lat="43.32579" lon="-0.58111">
        <ele>146.26</ele>
        <time>2019-09-01T06:35:45Z</time>
      </trkpt>
      <trkpt lat="43.32591" lon="-0.58113">
        <ele>146.26</ele>
        <time>2019-09-01T06:35:47Z</time>
      </trkpt>
      <trkpt lat="43.32619" lon="-0.5813">
        <ele>145.78</ele>
        <time>2019-09-01T06:35:53Z</time>
      </trkpt>
      <trkpt lat="43.32622" lon="-0.58135">
        <ele>145.78</ele>
        <time>2019-09-01T06:35:54Z</time>
      </trkpt>
      <trkpt lat="43.32624" lon="-0.5814">
        <ele>145.78</ele>
        <time>2019-09-01T06:35:55Z</time>
      </trkpt>
      <trkpt lat="43.32652" lon="-0.58201">
        <ele>151.06</ele>
        <time>2019-09-01T06:36:08Z</time>
      </trkpt>
      <trkpt lat="43.32685" lon="-0.58231">
        <ele>153.47</ele>
        <time>2019-09-01T06:36:18Z</time>
      </trkpt>
      <trkpt lat="43.32742" lon="-0.58281">
        <ele>153.47</ele>
        <time>2019-09-01T06:36:34Z</time>
      </trkpt>
      <trkpt lat="43.32746" lon="-0.58284">
        <ele>153.47</ele>
        <time>2019-09-01T06:36:35Z</time>
      </trkpt>
      <trkpt lat="43.32807" lon="-0.58306">
        <ele>155.39</ele>
        <time>2019-09-01T06:36:51Z</time>
      </trkpt>
      <trkpt lat="43.32842" lon="-0.58315">
        <ele>157.31</ele>
        <time>2019-09-01T06:37:01Z</time>
      </trkpt>
      <trkpt lat="43.32843" lon="-0.58318">
        <ele>157.31</ele>
        <time>2019-09-01T06:37:02Z</time>
      </trkpt>
      <trkpt lat="43.32844" lon="-0.58321">
        <ele>157.79</ele>
        <time>2019-09-01T06:37:03Z</time>
      </trkpt>
      <trkpt lat="43.32844" lon="-0.58324">
        <ele>158.27</ele>
        <time>2019-09-01T06:37:04Z</time>
      </trkpt>
      <trkpt lat="43.32843" lon="-0.58327">
        <ele>158.27</ele>
        <time>2019-09-01T06:37:05Z</time>
      </trkpt>
      <trkpt lat="43.32842" lon="-0.5833">
        <ele>158.75</ele>
        <time>2019-09-01T06:37:06Z</time>
      </trkpt>
      <trkpt lat="43.32841" lon="-0.58333">
        <ele>159.24</ele>
        <time>2019-09-01T06:37:07Z</time>
      </trkpt>
      <trkpt lat="43.32828" lon="-0.58373">
        <ele>164.52</ele>
        <time>2019-09-01T06:37:22Z</time>
      </trkpt>
      <trkpt lat="43.32818" lon="-0.5841">
        <ele>166.93</ele>
        <time>2019-09-01T06:37:36Z</time>
      </trkpt>
      <trkpt lat="43.32808" lon="-0.58446">
        <ele>170.77</ele>
        <time>2019-09-01T06:37:51Z</time>
      </trkpt>
      <trkpt lat="43.32799" lon="-0.58478">
        <ele>174.14</ele>
        <time>2019-09-01T06:38:07Z</time>
      </trkpt>
      <trkpt lat="43.328" lon="-0.58487">
        <ele>175.1</ele>
        <time>2019-09-01T06:38:11Z</time>
      </trkpt>
      <trkpt lat="43.32801" lon="-0.58489">
        <ele>175.1</ele>
        <time>2019-09-01T06:38:12Z</time>
      </trkpt>
      <trkpt lat="43.32802" lon="-0.58491">
        <ele>175.58</ele>
        <time>2019-09-01T06:38:13Z</time>
      </trkpt>
      <trkpt lat="43.32804" lon="-0.58493">
        <ele>175.58</ele>
        <time>2019-09-01T06:38:14Z</time>
      </trkpt>
      <trkpt lat="43.32806" lon="-0.58495">
        <ele>175.58</ele>
        <time>2019-09-01T06:38:15Z</time>
      </trkpt>
      <trkpt lat="43.32826" lon="-0.5852">
        <ele>174.62</ele>
        <time>2019-09-01T06:38:22Z</time>
      </trkpt>
      <trkpt lat="43.32828" lon="-0.58525">
        <ele>174.62</ele>
        <time>2019-09-01T06:38:23Z</time>
      </trkpt>
      <trkpt lat="43.32829" lon="-0.5853">
        <ele>174.14</ele>
        <time>2019-09-01T06:38:24Z</time>
      </trkpt>
      <trkpt lat="43.32829" lon="-0.58535">
        <ele>174.14</ele>
        <time>2019-09-01T06:38:25Z</time>
      </trkpt>
      <trkpt lat="43.32828" lon="-0.58539">
        <ele>174.62</ele>
        <time>2019-09-01T06:38:26Z</time>
      </trkpt>
      <trkpt lat="43.32826" lon="-0.58542">
        <ele>174.62</ele>
        <time>2019-09-01T06:38:27Z</time>
      </trkpt>
      <trkpt lat="43.32811" lon="-0.58558">
        <ele>177.98</ele>
        <time>2019-09-01T06:38:39Z</time>
      </trkpt>
      <trkpt lat="43.32789" lon="-0.58567">
        <ele>181.83</ele>
        <time>2019-09-01T06:38:55Z</time>
      </trkpt>
      <trkpt lat="43.32764" lon="-0.58571">
        <ele>184.71</ele>
        <time>2019-09-01T06:39:13Z</time>
      </trkpt>
      <trkpt lat="43.32745" lon="-0.58565">
        <ele>187.59</ele>
        <time>2019-09-01T06:39:27Z</time>
      </trkpt>
      <trkpt lat="43.3272" lon="-0.58555">
        <ele>190.48</ele>
        <time>2019-09-01T06:39:44Z</time>
      </trkpt>
      <trkpt lat="43.32691" lon="-0.58544">
        <ele>193.84</ele>
        <time>2019-09-01T06:40:03Z</time>
      </trkpt>
      <trkpt lat="43.32673" lon="-0.58542">
        <ele>196.25</ele>
        <time>2019-09-01T06:40:16Z</time>
      </trkpt>
      <trkpt lat="43.32672" lon="-0.58543">
        <ele>196.25</ele>
        <time>2019-09-01T06:40:17Z</time>
      </trkpt>
      <trkpt lat="43.32671" lon="-0.58545">
        <ele>196.73</ele>
        <time>2019-09-01T06:40:18Z</time>
      </trkpt>
      <trkpt lat="43.3267" lon="-0.58547">
        <ele>196.73</ele>
        <time>2019-09-01T06:40:19Z</time>
      </trkpt>
      <trkpt lat="43.3267" lon="-0.5855">
        <ele>196.73</ele>
        <time>2019-09-01T06:40:20Z</time>
      </trkpt>
      <trkpt lat="43.32669" lon="-0.58553">
        <ele>196.73</ele>
        <time>2019-09-01T06:40:21Z</time>
      </trkpt>
      <trkpt lat="43.32669" lon="-0.58557">
        <ele>196.73</ele>
        <time>2019-09-01T06:40:22Z</time>
      </trkpt>
      <trkpt lat="43.32668" lon="-0.5856">
        <ele>196.73</ele>
        <time>2019-09-01T06:40:23Z</time>
      </trkpt>
      <trkpt lat="43.32641" lon="-0.58616">
        <ele>196.73</ele>
        <time>2019-09-01T06:40:39Z</time>
      </trkpt>
      <trkpt lat="43.32593" lon="-0.58661">
        <ele>197.69</ele>
        <time>2019-09-01T06:40:56Z</time>
      </trkpt>
      <trkpt lat="43.32591" lon="-0.58664">
        <ele>197.69</ele>
        <time>2019-09-01T06:40:57Z</time>
      </trkpt>
      <trkpt lat="43.3259" lon="-0.58668">
        <ele>197.69</ele>
        <time>2019-09-01T06:40:58Z</time>
      </trkpt>
      <trkpt lat="43.32582" lon="-0.58719">
        <ele>200.57</ele>
        <time>2019-09-01T06:41:11Z</time>
      </trkpt>
      <trkpt lat="43.32586" lon="-0.58762">
        <ele>205.38</ele>
        <time>2019-09-01T06:41:23Z</time>
      </trkpt>
      <trkpt lat="43.32586" lon="-0.58801">
        <ele>208.26</ele>
        <time>2019-09-01T06:41:35Z</time>
      </trkpt>
      <trkpt lat="43.32584" lon="-0.58825">
        <ele>211.15</ele>
        <time>2019-09-01T06:41:44Z</time>
      </trkpt>
      <trkpt lat="43.32585" lon="-0.58828">
        <ele>211.15</ele>
        <time>2019-09-01T06:41:45Z</time>
      </trkpt>
      <trkpt lat="43.32585" lon="-0.5883">
        <ele>211.63</ele>
        <time>2019-09-01T06:41:46Z</time>
      </trkpt>
      <trkpt lat="43.32584" lon="-0.58866">
        <ele>216.43</ele>
        <time>2019-09-01T06:41:59Z</time>
      </trkpt>
      <trkpt lat="43.32596" lon="-0.58907">
        <ele>216.91</ele>
        <time>2019-09-01T06:42:12Z</time>
      </trkpt>
      <trkpt lat="43.32599" lon="-0.58931">
        <ele>218.36</ele>
        <time>2019-09-01T06:42:20Z</time>
      </trkpt>
      <trkpt lat="43.32598" lon="-0.58933">
        <ele>218.36</ele>
        <time>2019-09-01T06:42:21Z</time>
      </trkpt>
      <trkpt lat="43.32597" lon="-0.58934">
        <ele>218.36</ele>
        <time>2019-09-01T06:42:22Z</time>
      </trkpt>
      <trkpt lat="43.32595" lon="-0.58934">
        <ele>218.36</ele>
        <time>2019-09-01T06:42:23Z</time>
      </trkpt>
      <trkpt lat="43.32593" lon="-0.58935">
        <ele>218.36</ele>
        <time>2019-09-01T06:42:24Z</time>
      </trkpt>
      <trkpt lat="43.32572" lon="-0.58926">
        <ele>218.36</ele>
        <time>2019-09-01T06:42:38Z</time>
      </trkpt>
      <trkpt lat="43.32566" lon="-0.5893">
        <ele>220.76</ele>
        <time>2019-09-01T06:42:44Z</time>
      </trkpt>
      <trkpt lat="43.32565" lon="-0.58931">
        <ele>221.24</ele>
        <time>2019-09-01T06:42:45Z</time>
      </trkpt>
      <trkpt lat="43.32555" lon="-0.58949">
        <ele>220.76</ele>
        <time>2019-09-01T06:42:58Z</time>
      </trkpt>
      <trkpt lat="43.32551" lon="-0.58956">
        <ele>219.8</ele>
        <time>2019-09-01T06:43:03Z</time>
      </trkpt>
      <trkpt lat="43.32535" lon="-0.58969">
        <ele>221.24</ele>
        <time>2019-09-01T06:43:16Z</time>
      </trkpt>
      <trkpt lat="43.32522" lon="-0.58975">
        <ele>225.57</ele>
        <time>2019-09-01T06:43:29Z</time>
      </trkpt>
      <trkpt lat="43.3252" lon="-0.58977">
        <ele>227.01</ele>
        <time>2019-09-01T06:43:45Z</time>
      </trkpt>
      <trkpt lat="43.32518" lon="-0.58979">
        <ele>228.93</ele>
        <time>2019-09-01T06:44:02Z</time>
      </trkpt>
      <trkpt lat="43.32515" lon="-0.5898">
        <ele>227.49</ele>
        <time>2019-09-01T06:44:20Z</time>
      </trkpt>
      <trkpt lat="43.32499" lon="-0.58986">
        <ele>229.41</ele>
        <time>2019-09-01T06:44:35Z</time>
      </trkpt>
      <trkpt lat="43.3249" lon="-0.58988">
        <ele>231.81</ele>
        <time>2019-09-01T06:44:43Z</time>
      </trkpt>
      <trkpt lat="43.32479" lon="-0.58996">
        <ele>236.62</ele>
        <time>2019-09-01T06:44:57Z</time>
      </trkpt>
      <trkpt lat="43.32479" lon="-0.58996">
        <ele>237.1</ele>
        <time>2019-09-01T06:44:58Z</time>
      </trkpt>
      <trkpt lat="43.32473" lon="-0.59006">
        <ele>239.99</ele>
        <time>2019-09-01T06:45:06Z</time>
      </trkpt>
      <trkpt lat="43.32457" lon="-0.59028">
        <ele>243.83</ele>
        <time>2019-09-01T06:45:22Z</time>
      </trkpt>
      <trkpt lat="43.32449" lon="-0.59044">
        <ele>244.79</ele>
        <time>2019-09-01T06:45:34Z</time>
      </trkpt>
      <trkpt lat="43.32438" lon="-0.5906">
        <ele>245.27</ele>
        <time>2019-09-01T06:45:46Z</time>
      </trkpt>
      <trkpt lat="43.32429" lon="-0.5907">
        <ele>246.72</ele>
        <time>2019-09-01T06:45:52Z</time>
      </trkpt>
      <trkpt lat="43.3242" lon="-0.591">
        <ele>248.64</ele>
        <time>2019-09-01T06:46:02Z</time>
      </trkpt>
      <trkpt lat="43.32418" lon="-0.59108">
        <ele>250.08</ele>
        <time>2019-09-01T06:46:04Z</time>
      </trkpt>
      <trkpt lat="43.32414" lon="-0.59125">
        <ele>251.04</ele>
        <time>2019-09-01T06:46:10Z</time>
      </trkpt>
      <trkpt lat="43.32411" lon="-0.59144">
        <ele>252.48</ele>
        <time>2019-09-01T06:46:18Z</time>
      </trkpt>
      <trkpt lat="43.32411" lon="-0.5915">
        <ele>253.44</ele>
        <time>2019-09-01T06:46:21Z</time>
      </trkpt>
      <trkpt lat="43.32407" lon="-0.59161">
        <ele>254.89</ele>
        <time>2019-09-01T06:46:26Z</time>
      </trkpt>
      <trkpt lat="43.32401" lon="-0.59173">
        <ele>256.33</ele>
        <time>2019-09-01T06:46:32Z</time>
      </trkpt>
      <trkpt lat="43.3239" lon="-0.5919">
        <ele>258.73</ele>
        <time>2019-09-01T06:46:42Z</time>
      </trkpt>
      <trkpt lat="43.32359" lon="-0.59199">
        <ele>259.21</ele>
        <time>2019-09-01T06:46:50Z</time>
      </trkpt>
      <trkpt lat="43.32354" lon="-0.59198">
        <ele>258.73</ele>
        <time>2019-09-01T06:46:51Z</time>
      </trkpt>
      <trkpt lat="43.32344" lon="-0.59194">
        <ele>258.25</ele>
        <time>2019-09-01T06:46:53Z</time>
      </trkpt>
      <trkpt lat="43.32339" lon="-0.59189">
        <ele>258.25</ele>
        <time>2019-09-01T06:46:54Z</time>
      </trkpt>
      <trkpt lat="43.32333" lon="-0.59184">
        <ele>257.77</ele>
        <time>2019-09-01T06:46:55Z</time>
      </trkpt>
      <trkpt lat="43.32328" lon="-0.59178">
        <ele>257.77</ele>
        <time>2019-09-01T06:46:56Z</time>
      </trkpt>
      <trkpt lat="43.32324" lon="-0.59172">
        <ele>257.77</ele>
        <time>2019-09-01T06:46:57Z</time>
      </trkpt>
      <trkpt lat="43.3232" lon="-0.59165">
        <ele>257.77</ele>
        <time>2019-09-01T06:46:58Z</time>
      </trkpt>
      <trkpt lat="43.32316" lon="-0.59158">
        <ele>257.29</ele>
        <time>2019-09-01T06:46:59Z</time>
      </trkpt>
      <trkpt lat="43.32299" lon="-0.59123">
        <ele>254.89</ele>
        <time>2019-09-01T06:47:05Z</time>
      </trkpt>
      <trkpt lat="43.32295" lon="-0.59119">
        <ele>253.93</ele>
        <time>2019-09-01T06:47:06Z</time>
      </trkpt>
      <trkpt lat="43.32286" lon="-0.5911">
        <ele>252.48</ele>
        <time>2019-09-01T06:47:08Z</time>
      </trkpt>
      <trkpt lat="43.32279" lon="-0.59108">
        <ele>252</ele>
        <time>2019-09-01T06:47:09Z</time>
      </trkpt>
      <trkpt lat="43.32252" lon="-0.59105">
        <ele>250.56</ele>
        <time>2019-09-01T06:47:12Z</time>
      </trkpt>
      <trkpt lat="43.32235" lon="-0.59097">
        <ele>248.64</ele>
        <time>2019-09-01T06:47:14Z</time>
      </trkpt>
      <trkpt lat="43.32174" lon="-0.59056">
        <ele>243.35</ele>
        <time>2019-09-01T06:47:22Z</time>
      </trkpt>
      <trkpt lat="43.32168" lon="-0.59052">
        <ele>242.87</ele>
        <time>2019-09-01T06:47:23Z</time>
      </trkpt>
      <trkpt lat="43.32161" lon="-0.59048">
        <ele>242.87</ele>
        <time>2019-09-01T06:47:24Z</time>
      </trkpt>
      <trkpt lat="43.32123" lon="-0.5902">
        <ele>242.87</ele>
        <time>2019-09-01T06:47:34Z</time>
      </trkpt>
      <trkpt lat="43.32091" lon="-0.58974">
        <ele>244.31</ele>
        <time>2019-09-01T06:47:49Z</time>
      </trkpt>
      <trkpt lat="43.3207" lon="-0.58962">
        <ele>243.35</ele>
        <time>2019-09-01T06:47:55Z</time>
      </trkpt>
      <trkpt lat="43.32064" lon="-0.58962">
        <ele>242.87</ele>
        <time>2019-09-01T06:47:56Z</time>
      </trkpt>
      <trkpt lat="43.32023" lon="-0.58964">
        <ele>237.1</ele>
        <time>2019-09-01T06:48:01Z</time>
      </trkpt>
      <trkpt lat="43.32014" lon="-0.58966">
        <ele>236.14</ele>
        <time>2019-09-01T06:48:02Z</time>
      </trkpt>
      <trkpt lat="43.32006" lon="-0.5897">
        <ele>234.7</ele>
        <time>2019-09-01T06:48:03Z</time>
      </trkpt>
      <trkpt lat="43.31998" lon="-0.58974">
        <ele>233.74</ele>
        <time>2019-09-01T06:48:04Z</time>
      </trkpt>
      <trkpt lat="43.3199" lon="-0.5898">
        <ele>232.3</ele>
        <time>2019-09-01T06:48:05Z</time>
      </trkpt>
      <trkpt lat="43.31982" lon="-0.58987">
        <ele>231.33</ele>
        <time>2019-09-01T06:48:06Z</time>
      </trkpt>
      <trkpt lat="43.31976" lon="-0.58997">
        <ele>230.37</ele>
        <time>2019-09-01T06:48:07Z</time>
      </trkpt>
      <trkpt lat="43.3197" lon="-0.59006">
        <ele>229.89</ele>
        <time>2019-09-01T06:48:08Z</time>
      </trkpt>
      <trkpt lat="43.31966" lon="-0.59016">
        <ele>229.89</ele>
        <time>2019-09-01T06:48:09Z</time>
      </trkpt>
      <trkpt lat="43.31942" lon="-0.59064">
        <ele>227.97</ele>
        <time>2019-09-01T06:48:15Z</time>
      </trkpt>
      <trkpt lat="43.31938" lon="-0.5907">
        <ele>227.97</ele>
        <time>2019-09-01T06:48:16Z</time>
      </trkpt>
      <trkpt lat="43.31933" lon="-0.59074">
        <ele>227.49</ele>
        <time>2019-09-01T06:48:17Z</time>
      </trkpt>
      <trkpt lat="43.3192" lon="-0.59084">
        <ele>227.49</ele>
        <time>2019-09-01T06:48:20Z</time>
      </trkpt>
      <trkpt lat="43.31917" lon="-0.59085">
        <ele>227.49</ele>
        <time>2019-09-01T06:48:21Z</time>
      </trkpt>
      <trkpt lat="43.31913" lon="-0.59086">
        <ele>227.49</ele>
        <time>2019-09-01T06:48:22Z</time>
      </trkpt>
      <trkpt lat="43.31908" lon="-0.59087">
        <ele>227.97</ele>
        <time>2019-09-01T06:48:23Z</time>
      </trkpt>
      <trkpt lat="43.31905" lon="-0.59087">
        <ele>227.97</ele>
        <time>2019-09-01T06:48:24Z</time>
      </trkpt>
      <trkpt lat="43.31872" lon="-0.59083">
        <ele>232.3</ele>
        <time>2019-09-01T06:48:36Z</time>
      </trkpt>
      <trkpt lat="43.31846" lon="-0.59079">
        <ele>236.62</ele>
        <time>2019-09-01T06:48:49Z</time>
      </trkpt>
      <trkpt lat="43.31813" lon="-0.59082">
        <ele>240.95</ele>
        <time>2019-09-01T06:49:05Z</time>
      </trkpt>
      <trkpt lat="43.31772" lon="-0.59093">
        <ele>241.43</ele>
        <time>2019-09-01T06:49:21Z</time>
      </trkpt>
      <trkpt lat="43.31768" lon="-0.59094">
        <ele>241.43</ele>
        <time>2019-09-01T06:49:22Z</time>
      </trkpt>
      <trkpt lat="43.31706" lon="-0.59122">
        <ele>236.14</ele>
        <time>2019-09-01T06:49:32Z</time>
      </trkpt>
      <trkpt lat="43.31698" lon="-0.59121">
        <ele>235.66</ele>
        <time>2019-09-01T06:49:33Z</time>
      </trkpt>
      <trkpt lat="43.31682" lon="-0.59118">
        <ele>234.7</ele>
        <time>2019-09-01T06:49:35Z</time>
      </trkpt>
      <trkpt lat="43.31673" lon="-0.59115">
        <ele>233.74</ele>
        <time>2019-09-01T06:49:36Z</time>
      </trkpt>
      <trkpt lat="43.31582" lon="-0.59045">
        <ele>229.41</ele>
        <time>2019-09-01T06:49:48Z</time>
      </trkpt>
      <trkpt lat="43.31562" lon="-0.59025">
        <ele>228.93</ele>
        <time>2019-09-01T06:49:51Z</time>
      </trkpt>
      <trkpt lat="43.31527" lon="-0.58997">
        <ele>229.89</ele>
        <time>2019-09-01T06:49:57Z</time>
      </trkpt>
      <trkpt lat="43.31517" lon="-0.5899">
        <ele>230.37</ele>
        <time>2019-09-01T06:49:59Z</time>
      </trkpt>
      <trkpt lat="43.31514" lon="-0.58987">
        <ele>230.85</ele>
        <time>2019-09-01T06:50:00Z</time>
      </trkpt>
      <trkpt lat="43.31495" lon="-0.58964">
        <ele>231.81</ele>
        <time>2019-09-01T06:50:06Z</time>
      </trkpt>
      <trkpt lat="43.31453" lon="-0.58902">
        <ele>235.18</ele>
        <time>2019-09-01T06:50:22Z</time>
      </trkpt>
      <trkpt lat="43.31417" lon="-0.58853">
        <ele>236.62</ele>
        <time>2019-09-01T06:50:36Z</time>
      </trkpt>
      <trkpt lat="43.31368" lon="-0.58808">
        <ele>238.54</ele>
        <time>2019-09-01T06:50:52Z</time>
      </trkpt>
      <trkpt lat="43.31322" lon="-0.58772">
        <ele>239.02</ele>
        <time>2019-09-01T06:51:06Z</time>
      </trkpt>
      <trkpt lat="43.31297" lon="-0.58741">
        <ele>239.51</ele>
        <time>2019-09-01T06:51:14Z</time>
      </trkpt>
      <trkpt lat="43.31266" lon="-0.58705">
        <ele>239.02</ele>
        <time>2019-09-01T06:51:22Z</time>
      </trkpt>
      <trkpt lat="43.31209" lon="-0.58674">
        <ele>238.54</ele>
        <time>2019-09-01T06:51:33Z</time>
      </trkpt>
      <trkpt lat="43.31143" lon="-0.58633">
        <ele>233.74</ele>
        <time>2019-09-01T06:51:44Z</time>
      </trkpt>
      <trkpt lat="43.31136" lon="-0.58627">
        <ele>232.78</ele>
        <time>2019-09-01T06:51:45Z</time>
      </trkpt>
      <trkpt lat="43.3109" lon="-0.58591">
        <ele>228.45</ele>
        <time>2019-09-01T06:51:51Z</time>
      </trkpt>
      <trkpt lat="43.31064" lon="-0.58579">
        <ele>225.09</ele>
        <time>2019-09-01T06:51:55Z</time>
      </trkpt>
      <trkpt lat="43.31036" lon="-0.58572">
        <ele>226.05</ele>
        <time>2019-09-01T06:52:00Z</time>
      </trkpt>
      <trkpt lat="43.31014" lon="-0.58564">
        <ele>226.53</ele>
        <time>2019-09-01T06:52:05Z</time>
      </trkpt>
      <trkpt lat="43.3101" lon="-0.58562">
        <ele>226.53</ele>
        <time>2019-09-01T06:52:06Z</time>
      </trkpt>
      <trkpt lat="43.30989" lon="-0.58551">
        <ele>227.49</ele>
        <time>2019-09-01T06:52:11Z</time>
      </trkpt>
      <trkpt lat="43.30938" lon="-0.58511">
        <ele>226.05</ele>
        <time>2019-09-01T06:52:23Z</time>
      </trkpt>
      <trkpt lat="43.30933" lon="-0.5851">
        <ele>226.05</ele>
        <time>2019-09-01T06:52:24Z</time>
      </trkpt>
      <trkpt lat="43.30923" lon="-0.58509">
        <ele>226.05</ele>
        <time>2019-09-01T06:52:26Z</time>
      </trkpt>
      <trkpt lat="43.30918" lon="-0.5851">
        <ele>226.05</ele>
        <time>2019-09-01T06:52:27Z</time>
      </trkpt>
      <trkpt lat="43.30913" lon="-0.58512">
        <ele>226.05</ele>
        <time>2019-09-01T06:52:28Z</time>
      </trkpt>
      <trkpt lat="43.30909" lon="-0.58515">
        <ele>226.05</ele>
        <time>2019-09-01T06:52:29Z</time>
      </trkpt>
      <trkpt lat="43.30905" lon="-0.58518">
        <ele>226.05</ele>
        <time>2019-09-01T06:52:30Z</time>
      </trkpt>
      <trkpt lat="43.30901" lon="-0.58522">
        <ele>226.05</ele>
        <time>2019-09-01T06:52:31Z</time>
      </trkpt>
      <trkpt lat="43.30898" lon="-0.58527">
        <ele>226.05</ele>
        <time>2019-09-01T06:52:32Z</time>
      </trkpt>
      <trkpt lat="43.30875" lon="-0.58553">
        <ele>227.01</ele>
        <time>2019-09-01T06:52:39Z</time>
      </trkpt>
      <trkpt lat="43.30871" lon="-0.58555">
        <ele>227.01</ele>
        <time>2019-09-01T06:52:40Z</time>
      </trkpt>
      <trkpt lat="43.30858" lon="-0.58561">
        <ele>227.01</ele>
        <time>2019-09-01T06:52:43Z</time>
      </trkpt>
      <trkpt lat="43.30789" lon="-0.58566">
        <ele>226.05</ele>
        <time>2019-09-01T06:52:58Z</time>
      </trkpt>
      <trkpt lat="43.30785" lon="-0.58566">
        <ele>226.05</ele>
        <time>2019-09-01T06:52:59Z</time>
      </trkpt>
      <trkpt lat="43.3078" lon="-0.58568">
        <ele>226.05</ele>
        <time>2019-09-01T06:53:00Z</time>
      </trkpt>
      <trkpt lat="43.30777" lon="-0.58572">
        <ele>225.57</ele>
        <time>2019-09-01T06:53:01Z</time>
      </trkpt>
      <trkpt lat="43.30776" lon="-0.58578">
        <ele>225.57</ele>
        <time>2019-09-01T06:53:02Z</time>
      </trkpt>
      <trkpt lat="43.30776" lon="-0.58585">
        <ele>225.57</ele>
        <time>2019-09-01T06:53:03Z</time>
      </trkpt>
      <trkpt lat="43.30784" lon="-0.58677">
        <ele>225.57</ele>
        <time>2019-09-01T06:53:17Z</time>
      </trkpt>
      <trkpt lat="43.30787" lon="-0.58698">
        <ele>225.09</ele>
        <time>2019-09-01T06:53:20Z</time>
      </trkpt>
      <trkpt lat="43.30787" lon="-0.58706">
        <ele>224.61</ele>
        <time>2019-09-01T06:53:21Z</time>
      </trkpt>
      <trkpt lat="43.30785" lon="-0.58714">
        <ele>224.12</ele>
        <time>2019-09-01T06:53:22Z</time>
      </trkpt>
      <trkpt lat="43.30783" lon="-0.58722">
        <ele>223.64</ele>
        <time>2019-09-01T06:53:23Z</time>
      </trkpt>
      <trkpt lat="43.30779" lon="-0.58729">
        <ele>223.16</ele>
        <time>2019-09-01T06:53:24Z</time>
      </trkpt>
      <trkpt lat="43.30773" lon="-0.58735">
        <ele>222.68</ele>
        <time>2019-09-01T06:53:25Z</time>
      </trkpt>
      <trkpt lat="43.30764" lon="-0.58738">
        <ele>222.2</ele>
        <time>2019-09-01T06:53:26Z</time>
      </trkpt>
      <trkpt lat="43.30753" lon="-0.58741">
        <ele>221.72</ele>
        <time>2019-09-01T06:53:27Z</time>
      </trkpt>
      <trkpt lat="43.30735" lon="-0.58745">
        <ele>220.76</ele>
        <time>2019-09-01T06:53:29Z</time>
      </trkpt>
      <trkpt lat="43.30728" lon="-0.58748">
        <ele>220.28</ele>
        <time>2019-09-01T06:53:30Z</time>
      </trkpt>
      <trkpt lat="43.30722" lon="-0.58755">
        <ele>219.8</ele>
        <time>2019-09-01T06:53:31Z</time>
      </trkpt>
      <trkpt lat="43.30719" lon="-0.58763">
        <ele>219.32</ele>
        <time>2019-09-01T06:53:32Z</time>
      </trkpt>
      <trkpt lat="43.30719" lon="-0.58773">
        <ele>218.84</ele>
        <time>2019-09-01T06:53:33Z</time>
      </trkpt>
      <trkpt lat="43.3072" lon="-0.58781">
        <ele>218.36</ele>
        <time>2019-09-01T06:53:34Z</time>
      </trkpt>
      <trkpt lat="43.30723" lon="-0.58788">
        <ele>217.4</ele>
        <time>2019-09-01T06:53:35Z</time>
      </trkpt>
      <trkpt lat="43.30727" lon="-0.58795">
        <ele>216.91</ele>
        <time>2019-09-01T06:53:36Z</time>
      </trkpt>
      <trkpt lat="43.30783" lon="-0.58885">
        <ele>215.95</ele>
        <time>2019-09-01T06:53:51Z</time>
      </trkpt>
      <trkpt lat="43.30785" lon="-0.58892">
        <ele>215.95</ele>
        <time>2019-09-01T06:53:52Z</time>
      </trkpt>
      <trkpt lat="43.30793" lon="-0.58984">
        <ele>216.43</ele>
        <time>2019-09-01T06:54:06Z</time>
      </trkpt>
      <trkpt lat="43.30783" lon="-0.59075">
        <ele>219.32</ele>
        <time>2019-09-01T06:54:22Z</time>
      </trkpt>
      <trkpt lat="43.30772" lon="-0.59136">
        <ele>221.24</ele>
        <time>2019-09-01T06:54:37Z</time>
      </trkpt>
      <trkpt lat="43.3076" lon="-0.59197">
        <ele>220.76</ele>
        <time>2019-09-01T06:54:50Z</time>
      </trkpt>
      <trkpt lat="43.30758" lon="-0.59202">
        <ele>220.76</ele>
        <time>2019-09-01T06:54:51Z</time>
      </trkpt>
      <trkpt lat="43.30723" lon="-0.5927">
        <ele>220.76</ele>
        <time>2019-09-01T06:55:07Z</time>
      </trkpt>
      <trkpt lat="43.30707" lon="-0.593">
        <ele>222.68</ele>
        <time>2019-09-01T06:55:19Z</time>
      </trkpt>
      <trkpt lat="43.30706" lon="-0.59306">
        <ele>223.16</ele>
        <time>2019-09-01T06:55:30Z</time>
      </trkpt>
      <trkpt lat="43.30707" lon="-0.59303">
        <ele>223.16</ele>
        <time>2019-09-01T06:55:31Z</time>
      </trkpt>
      <trkpt lat="43.30708" lon="-0.593">
        <ele>223.16</ele>
        <time>2019-09-01T06:55:32Z</time>
      </trkpt>
      <trkpt lat="43.30712" lon="-0.59292">
        <ele>223.16</ele>
        <time>2019-09-01T06:55:34Z</time>
      </trkpt>
      <trkpt lat="43.30715" lon="-0.59288">
        <ele>222.68</ele>
        <time>2019-09-01T06:55:35Z</time>
      </trkpt>
      <trkpt lat="43.30755" lon="-0.59211">
        <ele>220.28</ele>
        <time>2019-09-01T06:55:47Z</time>
      </trkpt>
      <trkpt lat="43.30769" lon="-0.59144">
        <ele>221.24</ele>
        <time>2019-09-01T06:55:59Z</time>
      </trkpt>
      <trkpt lat="43.30772" lon="-0.5913">
        <ele>222.2</ele>
        <time>2019-09-01T06:56:11Z</time>
      </trkpt>
      <trkpt lat="43.30773" lon="-0.59108">
        <ele>222.68</ele>
        <time>2019-09-01T06:56:27Z</time>
      </trkpt>
      <trkpt lat="43.3078" lon="-0.5908">
        <ele>221.72</ele>
        <time>2019-09-01T06:56:33Z</time>
      </trkpt>
      <trkpt lat="43.30782" lon="-0.59073">
        <ele>221.24</ele>
        <time>2019-09-01T06:56:34Z</time>
      </trkpt>
      <trkpt lat="43.30789" lon="-0.59001">
        <ele>219.8</ele>
        <time>2019-09-01T06:56:45Z</time>
      </trkpt>
      <trkpt lat="43.30791" lon="-0.58984">
        <ele>219.32</ele>
        <time>2019-09-01T06:56:58Z</time>
      </trkpt>
      <trkpt lat="43.30792" lon="-0.58984">
        <ele>219.8</ele>
        <time>2019-09-01T06:57:17Z</time>
      </trkpt>
      <trkpt lat="43.30792" lon="-0.58953">
        <ele>219.8</ele>
        <time>2019-09-01T06:57:28Z</time>
      </trkpt>
      <trkpt lat="43.30783" lon="-0.58895">
        <ele>220.76</ele>
        <time>2019-09-01T06:57:42Z</time>
      </trkpt>
      <trkpt lat="43.30744" lon="-0.58825">
        <ele>218.84</ele>
        <time>2019-09-01T06:57:59Z</time>
      </trkpt>
      <trkpt lat="43.30718" lon="-0.5878">
        <ele>215.47</ele>
        <time>2019-09-01T06:58:09Z</time>
      </trkpt>
      <trkpt lat="43.30716" lon="-0.58775">
        <ele>214.99</ele>
        <time>2019-09-01T06:58:10Z</time>
      </trkpt>
      <trkpt lat="43.30715" lon="-0.5877">
        <ele>214.99</ele>
        <time>2019-09-01T06:58:11Z</time>
      </trkpt>
      <trkpt lat="43.30715" lon="-0.58764">
        <ele>214.51</ele>
        <time>2019-09-01T06:58:12Z</time>
      </trkpt>
      <trkpt lat="43.30716" lon="-0.58759">
        <ele>214.51</ele>
        <time>2019-09-01T06:58:13Z</time>
      </trkpt>
      <trkpt lat="43.30719" lon="-0.58754">
        <ele>214.51</ele>
        <time>2019-09-01T06:58:14Z</time>
      </trkpt>
      <trkpt lat="43.30723" lon="-0.5875">
        <ele>214.51</ele>
        <time>2019-09-01T06:58:15Z</time>
      </trkpt>
      <trkpt lat="43.30726" lon="-0.58748">
        <ele>214.03</ele>
        <time>2019-09-01T06:58:16Z</time>
      </trkpt>
      <trkpt lat="43.3073" lon="-0.58747">
        <ele>214.03</ele>
        <time>2019-09-01T06:58:17Z</time>
      </trkpt>
      <trkpt lat="43.30735" lon="-0.58746">
        <ele>214.03</ele>
        <time>2019-09-01T06:58:18Z</time>
      </trkpt>
      <trkpt lat="43.30738" lon="-0.58746">
        <ele>214.03</ele>
        <time>2019-09-01T06:58:19Z</time>
      </trkpt>
      <trkpt lat="43.30776" lon="-0.58725">
        <ele>219.8</ele>
        <time>2019-09-01T06:58:31Z</time>
      </trkpt>
      <trkpt lat="43.30784" lon="-0.58693">
        <ele>226.53</ele>
        <time>2019-09-01T06:58:43Z</time>
      </trkpt>
      <trkpt lat="43.30781" lon="-0.58681">
        <ele>230.85</ele>
        <time>2019-09-01T06:58:57Z</time>
      </trkpt>
      <trkpt lat="43.30782" lon="-0.5868">
        <ele>229.89</ele>
        <time>2019-09-01T06:59:14Z</time>
      </trkpt>
      <trkpt lat="43.3078" lon="-0.58681">
        <ele>230.85</ele>
        <time>2019-09-01T06:59:42Z</time>
      </trkpt>
      <trkpt lat="43.30781" lon="-0.58681">
        <ele>228.93</ele>
        <time>2019-09-01T07:00:22Z</time>
      </trkpt>
      <trkpt lat="43.3078" lon="-0.58681">
        <ele>228.93</ele>
        <time>2019-09-01T07:00:23Z</time>
      </trkpt>
      <trkpt lat="43.30779" lon="-0.58677">
        <ele>229.41</ele>
        <time>2019-09-01T07:00:26Z</time>
      </trkpt>
      <trkpt lat="43.30779" lon="-0.58675">
        <ele>229.89</ele>
        <time>2019-09-01T07:00:27Z</time>
      </trkpt>
      <trkpt lat="43.30779" lon="-0.58674">
        <ele>230.37</ele>
        <time>2019-09-01T07:00:28Z</time>
      </trkpt>
      <trkpt lat="43.30779" lon="-0.58672">
        <ele>230.85</ele>
        <time>2019-09-01T07:00:29Z</time>
      </trkpt>
      <trkpt lat="43.30778" lon="-0.5867">
        <ele>230.85</ele>
        <time>2019-09-01T07:00:30Z</time>
      </trkpt>
      <trkpt lat="43.30778" lon="-0.58668">
        <ele>230.85</ele>
        <time>2019-09-01T07:00:31Z</time>
      </trkpt>
      <trkpt lat="43.30778" lon="-0.58666">
        <ele>230.85</ele>
        <time>2019-09-01T07:00:32Z</time>
      </trkpt>
      <trkpt lat="43.30777" lon="-0.58664">
        <ele>230.85</ele>
        <time>2019-09-01T07:00:33Z</time>
      </trkpt>
      <trkpt lat="43.30777" lon="-0.58662">
        <ele>230.85</ele>
        <time>2019-09-01T07:00:34Z</time>
      </trkpt>
      <trkpt lat="43.30777" lon="-0.58661">
        <ele>231.33</ele>
        <time>2019-09-01T07:00:35Z</time>
      </trkpt>
      <trkpt lat="43.30777" lon="-0.58659">
        <ele>231.33</ele>
        <time>2019-09-01T07:00:36Z</time>
      </trkpt>
      <trkpt lat="43.30777" lon="-0.58656">
        <ele>230.37</ele>
        <time>2019-09-01T07:00:49Z</time>
      </trkpt>
      <trkpt lat="43.30776" lon="-0.58659">
        <ele>229.89</ele>
        <time>2019-09-01T07:00:51Z</time>
      </trkpt>
      <trkpt lat="43.30778" lon="-0.58665">
        <ele>229.89</ele>
        <time>2019-09-01T07:01:04Z</time>
      </trkpt>
      <trkpt lat="43.30778" lon="-0.58666">
        <ele>229.41</ele>
        <time>2019-09-01T07:01:05Z</time>
      </trkpt>
      <trkpt lat="43.30779" lon="-0.58667">
        <ele>229.89</ele>
        <time>2019-09-01T07:01:06Z</time>
      </trkpt>
      <trkpt lat="43.3078" lon="-0.5867">
        <ele>229.41</ele>
        <time>2019-09-01T07:01:07Z</time>
      </trkpt>
      <trkpt lat="43.30781" lon="-0.58674">
        <ele>229.41</ele>
        <time>2019-09-01T07:01:08Z</time>
      </trkpt>
      <trkpt lat="43.30782" lon="-0.58678">
        <ele>228.45</ele>
        <time>2019-09-01T07:01:09Z</time>
      </trkpt>
      <trkpt lat="43.30785" lon="-0.58695">
        <ele>227.97</ele>
        <time>2019-09-01T07:01:12Z</time>
      </trkpt>
      <trkpt lat="43.30785" lon="-0.58703">
        <ele>227.49</ele>
        <time>2019-09-01T07:01:13Z</time>
      </trkpt>
      <trkpt lat="43.30784" lon="-0.58711">
        <ele>226.53</ele>
        <time>2019-09-01T07:01:14Z</time>
      </trkpt>
      <trkpt lat="43.3078" lon="-0.58721">
        <ele>226.05</ele>
        <time>2019-09-01T07:01:15Z</time>
      </trkpt>
      <trkpt lat="43.30775" lon="-0.58729">
        <ele>225.09</ele>
        <time>2019-09-01T07:01:16Z</time>
      </trkpt>
      <trkpt lat="43.30769" lon="-0.58737">
        <ele>224.12</ele>
        <time>2019-09-01T07:01:17Z</time>
      </trkpt>
      <trkpt lat="43.3076" lon="-0.58742">
        <ele>223.16</ele>
        <time>2019-09-01T07:01:18Z</time>
      </trkpt>
      <trkpt lat="43.30751" lon="-0.58745">
        <ele>222.2</ele>
        <time>2019-09-01T07:01:19Z</time>
      </trkpt>
      <trkpt lat="43.30741" lon="-0.58746">
        <ele>221.24</ele>
        <time>2019-09-01T07:01:20Z</time>
      </trkpt>
      <trkpt lat="43.30732" lon="-0.58747">
        <ele>220.28</ele>
        <time>2019-09-01T07:01:21Z</time>
      </trkpt>
      <trkpt lat="43.30724" lon="-0.5875">
        <ele>219.32</ele>
        <time>2019-09-01T07:01:22Z</time>
      </trkpt>
      <trkpt lat="43.30717" lon="-0.58757">
        <ele>218.84</ele>
        <time>2019-09-01T07:01:23Z</time>
      </trkpt>
      <trkpt lat="43.30715" lon="-0.58765">
        <ele>218.36</ele>
        <time>2019-09-01T07:01:24Z</time>
      </trkpt>
      <trkpt lat="43.30715" lon="-0.58774">
        <ele>217.88</ele>
        <time>2019-09-01T07:01:25Z</time>
      </trkpt>
      <trkpt lat="43.30717" lon="-0.58783">
        <ele>217.4</ele>
        <time>2019-09-01T07:01:26Z</time>
      </trkpt>
      <trkpt lat="43.3072" lon="-0.5879">
        <ele>216.91</ele>
        <time>2019-09-01T07:01:27Z</time>
      </trkpt>
      <trkpt lat="43.30724" lon="-0.58798">
        <ele>216.43</ele>
        <time>2019-09-01T07:01:28Z</time>
      </trkpt>
      <trkpt lat="43.3078" lon="-0.58882">
        <ele>216.91</ele>
        <time>2019-09-01T07:01:40Z</time>
      </trkpt>
      <trkpt lat="43.30783" lon="-0.5889">
        <ele>216.91</ele>
        <time>2019-09-01T07:01:41Z</time>
      </trkpt>
      <trkpt lat="43.30786" lon="-0.58898">
        <ele>216.91</ele>
        <time>2019-09-01T07:01:42Z</time>
      </trkpt>
      <trkpt lat="43.30788" lon="-0.58906">
        <ele>216.91</ele>
        <time>2019-09-01T07:01:43Z</time>
      </trkpt>
      <trkpt lat="43.3079" lon="-0.58915">
        <ele>216.91</ele>
        <time>2019-09-01T07:01:44Z</time>
      </trkpt>
      <trkpt lat="43.30791" lon="-0.58924">
        <ele>216.91</ele>
        <time>2019-09-01T07:01:45Z</time>
      </trkpt>
      <trkpt lat="43.30788" lon="-0.59036">
        <ele>218.36</ele>
        <time>2019-09-01T07:01:58Z</time>
      </trkpt>
      <trkpt lat="43.3077" lon="-0.5914">
        <ele>222.68</ele>
        <time>2019-09-01T07:02:12Z</time>
      </trkpt>
      <trkpt lat="43.30741" lon="-0.59238">
        <ele>221.24</ele>
        <time>2019-09-01T07:02:27Z</time>
      </trkpt>
      <trkpt lat="43.30705" lon="-0.59302">
        <ele>223.16</ele>
        <time>2019-09-01T07:02:40Z</time>
      </trkpt>
      <trkpt lat="43.30702" lon="-0.59309">
        <ele>223.16</ele>
        <time>2019-09-01T07:02:49Z</time>
      </trkpt>
      <trkpt lat="43.30706" lon="-0.59347">
        <ele>225.09</ele>
        <time>2019-09-01T07:03:03Z</time>
      </trkpt>
      <trkpt lat="43.30707" lon="-0.59382">
        <ele>230.85</ele>
        <time>2019-09-01T07:03:19Z</time>
      </trkpt>
      <trkpt lat="43.30705" lon="-0.59386">
        <ele>234.7</ele>
        <time>2019-09-01T07:03:45Z</time>
      </trkpt>
      <trkpt lat="43.30706" lon="-0.59385">
        <ele>237.58</ele>
        <time>2019-09-01T07:03:58Z</time>
      </trkpt>
      <trkpt lat="43.30705" lon="-0.59382">
        <ele>237.58</ele>
        <time>2019-09-01T07:03:59Z</time>
      </trkpt>
      <trkpt lat="43.30704" lon="-0.59372">
        <ele>237.1</ele>
        <time>2019-09-01T07:04:01Z</time>
      </trkpt>
      <trkpt lat="43.30704" lon="-0.59315">
        <ele>233.26</ele>
        <time>2019-09-01T07:04:08Z</time>
      </trkpt>
      <trkpt lat="43.30707" lon="-0.59303">
        <ele>231.33</ele>
        <time>2019-09-01T07:04:09Z</time>
      </trkpt>
      <trkpt lat="43.30711" lon="-0.59293">
        <ele>230.37</ele>
        <time>2019-09-01T07:04:10Z</time>
      </trkpt>
      <trkpt lat="43.30745" lon="-0.59228">
        <ele>225.09</ele>
        <time>2019-09-01T07:04:17Z</time>
      </trkpt>
      <trkpt lat="43.30768" lon="-0.59145">
        <ele>224.61</ele>
        <time>2019-09-01T07:04:28Z</time>
      </trkpt>
      <trkpt lat="43.30775" lon="-0.59107">
        <ele>223.64</ele>
        <time>2019-09-01T07:04:35Z</time>
      </trkpt>
      <trkpt lat="43.30789" lon="-0.59003">
        <ele>220.76</ele>
        <time>2019-09-01T07:04:48Z</time>
      </trkpt>
      <trkpt lat="43.30791" lon="-0.58946">
        <ele>219.8</ele>
        <time>2019-09-01T07:04:54Z</time>
      </trkpt>
      <trkpt lat="43.3078" lon="-0.58886">
        <ele>220.28</ele>
        <time>2019-09-01T07:05:03Z</time>
      </trkpt>
      <trkpt lat="43.30777" lon="-0.58881">
        <ele>219.8</ele>
        <time>2019-09-01T07:05:04Z</time>
      </trkpt>
      <trkpt lat="43.30731" lon="-0.58805">
        <ele>218.84</ele>
        <time>2019-09-01T07:05:19Z</time>
      </trkpt>
      <trkpt lat="43.30728" lon="-0.588">
        <ele>218.36</ele>
        <time>2019-09-01T07:05:20Z</time>
      </trkpt>
      <trkpt lat="43.30721" lon="-0.58786">
        <ele>218.36</ele>
        <time>2019-09-01T07:05:23Z</time>
      </trkpt>
      <trkpt lat="43.30719" lon="-0.58781">
        <ele>217.88</ele>
        <time>2019-09-01T07:05:24Z</time>
      </trkpt>
      <trkpt lat="43.30718" lon="-0.58775">
        <ele>217.88</ele>
        <time>2019-09-01T07:05:25Z</time>
      </trkpt>
      <trkpt lat="43.30717" lon="-0.58769">
        <ele>217.88</ele>
        <time>2019-09-01T07:05:26Z</time>
      </trkpt>
      <trkpt lat="43.30718" lon="-0.58762">
        <ele>217.4</ele>
        <time>2019-09-01T07:05:27Z</time>
      </trkpt>
      <trkpt lat="43.3072" lon="-0.58756">
        <ele>217.4</ele>
        <time>2019-09-01T07:05:28Z</time>
      </trkpt>
      <trkpt lat="43.30724" lon="-0.58751">
        <ele>217.4</ele>
        <time>2019-09-01T07:05:29Z</time>
      </trkpt>
      <trkpt lat="43.30729" lon="-0.58749">
        <ele>217.4</ele>
        <time>2019-09-01T07:05:30Z</time>
      </trkpt>
      <trkpt lat="43.30734" lon="-0.58748">
        <ele>217.4</ele>
        <time>2019-09-01T07:05:31Z</time>
      </trkpt>
      <trkpt lat="43.30739" lon="-0.58746">
        <ele>217.88</ele>
        <time>2019-09-01T07:05:32Z</time>
      </trkpt>
      <trkpt lat="43.30779" lon="-0.58723">
        <ele>224.12</ele>
        <time>2019-09-01T07:05:43Z</time>
      </trkpt>
      <trkpt lat="43.30781" lon="-0.58676">
        <ele>227.49</ele>
        <time>2019-09-01T07:05:54Z</time>
      </trkpt>
      <trkpt lat="43.30773" lon="-0.58601">
        <ele>228.45</ele>
        <time>2019-09-01T07:06:08Z</time>
      </trkpt>
      <trkpt lat="43.30777" lon="-0.58571">
        <ele>229.41</ele>
        <time>2019-09-01T07:06:14Z</time>
      </trkpt>
      <trkpt lat="43.3078" lon="-0.58567">
        <ele>229.41</ele>
        <time>2019-09-01T07:06:15Z</time>
      </trkpt>
      <trkpt lat="43.30783" lon="-0.58566">
        <ele>229.41</ele>
        <time>2019-09-01T07:06:16Z</time>
      </trkpt>
      <trkpt lat="43.30787" lon="-0.58567">
        <ele>229.41</ele>
        <time>2019-09-01T07:06:17Z</time>
      </trkpt>
      <trkpt lat="43.30791" lon="-0.58568">
        <ele>229.41</ele>
        <time>2019-09-01T07:06:18Z</time>
      </trkpt>
      <trkpt lat="43.30855" lon="-0.58564">
        <ele>228.93</ele>
        <time>2019-09-01T07:06:33Z</time>
      </trkpt>
      <trkpt lat="43.30884" lon="-0.58546">
        <ele>228.45</ele>
        <time>2019-09-01T07:06:41Z</time>
      </trkpt>
      <trkpt lat="43.30884" lon="-0.58541">
        <ele>227.97</ele>
        <time>2019-09-01T07:06:42Z</time>
      </trkpt>
      <trkpt lat="43.30883" lon="-0.58537">
        <ele>227.97</ele>
        <time>2019-09-01T07:06:43Z</time>
      </trkpt>
      <trkpt lat="43.30881" lon="-0.58535">
        <ele>228.45</ele>
        <time>2019-09-01T07:06:44Z</time>
      </trkpt>
      <trkpt lat="43.30879" lon="-0.58535">
        <ele>228.45</ele>
        <time>2019-09-01T07:06:45Z</time>
      </trkpt>
      <trkpt lat="43.30877" lon="-0.58534">
        <ele>228.93</ele>
        <time>2019-09-01T07:06:46Z</time>
      </trkpt>
      <trkpt lat="43.30875" lon="-0.58534">
        <ele>228.93</ele>
        <time>2019-09-01T07:06:47Z</time>
      </trkpt>
      <trkpt lat="43.30843" lon="-0.58531">
        <ele>230.85</ele>
        <time>2019-09-01T07:07:00Z</time>
      </trkpt>
      <trkpt lat="43.30804" lon="-0.58525">
        <ele>234.22</ele>
        <time>2019-09-01T07:07:14Z</time>
      </trkpt>
      <trkpt lat="43.30766" lon="-0.58513">
        <ele>237.58</ele>
        <time>2019-09-01T07:07:28Z</time>
      </trkpt>
      <trkpt lat="43.3072" lon="-0.5853">
        <ele>238.06</ele>
        <time>2019-09-01T07:07:44Z</time>
      </trkpt>
      <trkpt lat="43.30685" lon="-0.5856">
        <ele>242.39</ele>
        <time>2019-09-01T07:08:00Z</time>
      </trkpt>
      <trkpt lat="43.30656" lon="-0.5858">
        <ele>245.27</ele>
        <time>2019-09-01T07:08:13Z</time>
      </trkpt>
      <trkpt lat="43.30624" lon="-0.58597">
        <ele>247.2</ele>
        <time>2019-09-01T07:08:27Z</time>
      </trkpt>
      <trkpt lat="43.30595" lon="-0.58622">
        <ele>250.56</ele>
        <time>2019-09-01T07:08:42Z</time>
      </trkpt>
      <trkpt lat="43.30573" lon="-0.58646">
        <ele>252.48</ele>
        <time>2019-09-01T07:08:56Z</time>
      </trkpt>
      <trkpt lat="43.30554" lon="-0.58669">
        <ele>252.96</ele>
        <time>2019-09-01T07:09:06Z</time>
      </trkpt>
      <trkpt lat="43.3054" lon="-0.58707">
        <ele>253.93</ele>
        <time>2019-09-01T07:09:19Z</time>
      </trkpt>
      <trkpt lat="43.30528" lon="-0.58732">
        <ele>259.69</ele>
        <time>2019-09-01T07:09:30Z</time>
      </trkpt>
      <trkpt lat="43.30524" lon="-0.58742">
        <ele>261.62</ele>
        <time>2019-09-01T07:09:35Z</time>
      </trkpt>
      <trkpt lat="43.30523" lon="-0.58744">
        <ele>262.1</ele>
        <time>2019-09-01T07:09:36Z</time>
      </trkpt>
      <trkpt lat="43.30522" lon="-0.58745">
        <ele>262.1</ele>
        <time>2019-09-01T07:09:37Z</time>
      </trkpt>
      <trkpt lat="43.30521" lon="-0.58747">
        <ele>262.1</ele>
        <time>2019-09-01T07:09:38Z</time>
      </trkpt>
      <trkpt lat="43.3052" lon="-0.58749">
        <ele>262.1</ele>
        <time>2019-09-01T07:09:39Z</time>
      </trkpt>
      <trkpt lat="43.30509" lon="-0.58762">
        <ele>266.42</ele>
        <time>2019-09-01T07:09:50Z</time>
      </trkpt>
      <trkpt lat="43.30492" lon="-0.5878">
        <ele>268.35</ele>
        <time>2019-09-01T07:10:00Z</time>
      </trkpt>
      <trkpt lat="43.30489" lon="-0.58781">
        <ele>268.83</ele>
        <time>2019-09-01T07:10:01Z</time>
      </trkpt>
      <trkpt lat="43.30486" lon="-0.5878">
        <ele>268.83</ele>
        <time>2019-09-01T07:10:02Z</time>
      </trkpt>
      <trkpt lat="43.30485" lon="-0.58778">
        <ele>269.31</ele>
        <time>2019-09-01T07:10:03Z</time>
      </trkpt>
      <trkpt lat="43.30484" lon="-0.58777">
        <ele>268.83</ele>
        <time>2019-09-01T07:10:04Z</time>
      </trkpt>
      <trkpt lat="43.30483" lon="-0.58775">
        <ele>269.31</ele>
        <time>2019-09-01T07:10:05Z</time>
      </trkpt>
      <trkpt lat="43.30483" lon="-0.58773">
        <ele>269.31</ele>
        <time>2019-09-01T07:10:06Z</time>
      </trkpt>
      <trkpt lat="43.30482" lon="-0.58771">
        <ele>269.31</ele>
        <time>2019-09-01T07:10:07Z</time>
      </trkpt>
      <trkpt lat="43.30481" lon="-0.58768">
        <ele>269.31</ele>
        <time>2019-09-01T07:10:08Z</time>
      </trkpt>
      <trkpt lat="43.30478" lon="-0.58759">
        <ele>269.31</ele>
        <time>2019-09-01T07:10:11Z</time>
      </trkpt>
      <trkpt lat="43.30477" lon="-0.58757">
        <ele>269.31</ele>
        <time>2019-09-01T07:10:12Z</time>
      </trkpt>
      <trkpt lat="43.30472" lon="-0.58754">
        <ele>269.31</ele>
        <time>2019-09-01T07:10:15Z</time>
      </trkpt>
      <trkpt lat="43.3047" lon="-0.58755">
        <ele>268.83</ele>
        <time>2019-09-01T07:10:16Z</time>
      </trkpt>
      <trkpt lat="43.30467" lon="-0.58756">
        <ele>267.86</ele>
        <time>2019-09-01T07:10:18Z</time>
      </trkpt>
      <trkpt lat="43.30443" lon="-0.58762">
        <ele>263.06</ele>
        <time>2019-09-01T07:10:29Z</time>
      </trkpt>
      <trkpt lat="43.30409" lon="-0.58779">
        <ele>254.89</ele>
        <time>2019-09-01T07:10:40Z</time>
      </trkpt>
      <trkpt lat="43.30397" lon="-0.58787">
        <ele>250.56</ele>
        <time>2019-09-01T07:10:45Z</time>
      </trkpt>
      <trkpt lat="43.30384" lon="-0.58812">
        <ele>242.87</ele>
        <time>2019-09-01T07:10:54Z</time>
      </trkpt>
      <trkpt lat="43.30369" lon="-0.58834">
        <ele>238.54</ele>
        <time>2019-09-01T07:11:03Z</time>
      </trkpt>
      <trkpt lat="43.30368" lon="-0.58837">
        <ele>237.58</ele>
        <time>2019-09-01T07:11:04Z</time>
      </trkpt>
      <trkpt lat="43.30364" lon="-0.58847">
        <ele>235.18</ele>
        <time>2019-09-01T07:11:08Z</time>
      </trkpt>
      <trkpt lat="43.30357" lon="-0.58851">
        <ele>233.26</ele>
        <time>2019-09-01T07:11:11Z</time>
      </trkpt>
      <trkpt lat="43.30344" lon="-0.58852">
        <ele>231.81</ele>
        <time>2019-09-01T07:11:16Z</time>
      </trkpt>
      <trkpt lat="43.30338" lon="-0.58852">
        <ele>231.33</ele>
        <time>2019-09-01T07:11:19Z</time>
      </trkpt>
      <trkpt lat="43.30332" lon="-0.58848">
        <ele>231.33</ele>
        <time>2019-09-01T07:11:23Z</time>
      </trkpt>
      <trkpt lat="43.30321" lon="-0.5885">
        <ele>229.89</ele>
        <time>2019-09-01T07:11:29Z</time>
      </trkpt>
      <trkpt lat="43.30318" lon="-0.58851">
        <ele>228.45</ele>
        <time>2019-09-01T07:11:32Z</time>
      </trkpt>
      <trkpt lat="43.30302" lon="-0.58861">
        <ele>223.16</ele>
        <time>2019-09-01T07:11:44Z</time>
      </trkpt>
      <trkpt lat="43.303" lon="-0.58859">
        <ele>222.68</ele>
        <time>2019-09-01T07:11:48Z</time>
      </trkpt>
      <trkpt lat="43.30291" lon="-0.58858">
        <ele>223.16</ele>
        <time>2019-09-01T07:11:52Z</time>
      </trkpt>
      <trkpt lat="43.30287" lon="-0.58859">
        <ele>222.68</ele>
        <time>2019-09-01T07:11:54Z</time>
      </trkpt>
      <trkpt lat="43.30278" lon="-0.58862">
        <ele>219.8</ele>
        <time>2019-09-01T07:11:59Z</time>
      </trkpt>
      <trkpt lat="43.30278" lon="-0.58879">
        <ele>217.4</ele>
        <time>2019-09-01T07:12:06Z</time>
      </trkpt>
      <trkpt lat="43.30278" lon="-0.58886">
        <ele>216.91</ele>
        <time>2019-09-01T07:12:09Z</time>
      </trkpt>
      <trkpt lat="43.30278" lon="-0.58891">
        <ele>216.43</ele>
        <time>2019-09-01T07:12:11Z</time>
      </trkpt>
      <trkpt lat="43.30275" lon="-0.589">
        <ele>215.47</ele>
        <time>2019-09-01T07:12:16Z</time>
      </trkpt>
      <trkpt lat="43.30271" lon="-0.58906">
        <ele>214.99</ele>
        <time>2019-09-01T07:12:20Z</time>
      </trkpt>
      <trkpt lat="43.30254" lon="-0.58927">
        <ele>214.51</ele>
        <time>2019-09-01T07:12:31Z</time>
      </trkpt>
      <trkpt lat="43.30248" lon="-0.58944">
        <ele>212.59</ele>
        <time>2019-09-01T07:12:37Z</time>
      </trkpt>
      <trkpt lat="43.30231" lon="-0.5896">
        <ele>212.59</ele>
        <time>2019-09-01T07:12:47Z</time>
      </trkpt>
      <trkpt lat="43.30228" lon="-0.58962">
        <ele>213.07</ele>
        <time>2019-09-01T07:12:50Z</time>
      </trkpt>
      <trkpt lat="43.30219" lon="-0.58975">
        <ele>211.63</ele>
        <time>2019-09-01T07:12:55Z</time>
      </trkpt>
      <trkpt lat="43.30189" lon="-0.59002">
        <ele>206.82</ele>
        <time>2019-09-01T07:13:02Z</time>
      </trkpt>
      <trkpt lat="43.30155" lon="-0.59018">
        <ele>200.57</ele>
        <time>2019-09-01T07:13:08Z</time>
      </trkpt>
      <trkpt lat="43.30141" lon="-0.59024">
        <ele>197.21</ele>
        <time>2019-09-01T07:13:11Z</time>
      </trkpt>
      <trkpt lat="43.30124" lon="-0.59028">
        <ele>191.92</ele>
        <time>2019-09-01T07:13:15Z</time>
      </trkpt>
      <trkpt lat="43.30095" lon="-0.59025">
        <ele>183.27</ele>
        <time>2019-09-01T07:13:22Z</time>
      </trkpt>
      <trkpt lat="43.30088" lon="-0.59">
        <ele>177.02</ele>
        <time>2019-09-01T07:13:30Z</time>
      </trkpt>
      <trkpt lat="43.30059" lon="-0.58997">
        <ele>176.06</ele>
        <time>2019-09-01T07:13:39Z</time>
      </trkpt>
      <trkpt lat="43.30057" lon="-0.58994">
        <ele>176.54</ele>
        <time>2019-09-01T07:13:40Z</time>
      </trkpt>
      <trkpt lat="43.30042" lon="-0.58981">
        <ele>176.54</ele>
        <time>2019-09-01T07:13:45Z</time>
      </trkpt>
      <trkpt lat="43.30038" lon="-0.58982">
        <ele>176.06</ele>
        <time>2019-09-01T07:13:46Z</time>
      </trkpt>
      <trkpt lat="43.30037" lon="-0.58983">
        <ele>175.58</ele>
        <time>2019-09-01T07:13:47Z</time>
      </trkpt>
      <trkpt lat="43.30034" lon="-0.58986">
        <ele>175.1</ele>
        <time>2019-09-01T07:13:48Z</time>
      </trkpt>
      <trkpt lat="43.30032" lon="-0.58991">
        <ele>175.1</ele>
        <time>2019-09-01T07:13:49Z</time>
      </trkpt>
      <trkpt lat="43.30026" lon="-0.59003">
        <ele>174.14</ele>
        <time>2019-09-01T07:13:51Z</time>
      </trkpt>
      <trkpt lat="43.3001" lon="-0.59036">
        <ele>173.17</ele>
        <time>2019-09-01T07:13:56Z</time>
      </trkpt>
      <trkpt lat="43.30009" lon="-0.59042">
        <ele>173.17</ele>
        <time>2019-09-01T07:13:57Z</time>
      </trkpt>
      <trkpt lat="43.30009" lon="-0.59048">
        <ele>172.69</ele>
        <time>2019-09-01T07:13:58Z</time>
      </trkpt>
      <trkpt lat="43.30024" lon="-0.59103">
        <ele>172.69</ele>
        <time>2019-09-01T07:14:10Z</time>
      </trkpt>
      <trkpt lat="43.30043" lon="-0.5915">
        <ele>171.25</ele>
        <time>2019-09-01T07:14:19Z</time>
      </trkpt>
      <trkpt lat="43.30066" lon="-0.59198">
        <ele>169.33</ele>
        <time>2019-09-01T07:14:28Z</time>
      </trkpt>
      <trkpt lat="43.30067" lon="-0.59203">
        <ele>169.33</ele>
        <time>2019-09-01T07:14:29Z</time>
      </trkpt>
      <trkpt lat="43.30069" lon="-0.59208">
        <ele>169.33</ele>
        <time>2019-09-01T07:14:30Z</time>
      </trkpt>
      <trkpt lat="43.30069" lon="-0.59212">
        <ele>169.33</ele>
        <time>2019-09-01T07:14:31Z</time>
      </trkpt>
      <trkpt lat="43.30068" lon="-0.59216">
        <ele>169.33</ele>
        <time>2019-09-01T07:14:32Z</time>
      </trkpt>
      <trkpt lat="43.30067" lon="-0.59219">
        <ele>169.33</ele>
        <time>2019-09-01T07:14:33Z</time>
      </trkpt>
      <trkpt lat="43.30065" lon="-0.59222">
        <ele>169.33</ele>
        <time>2019-09-01T07:14:34Z</time>
      </trkpt>
      <trkpt lat="43.30063" lon="-0.59224">
        <ele>169.33</ele>
        <time>2019-09-01T07:14:35Z</time>
      </trkpt>
      <trkpt lat="43.3006" lon="-0.59227">
        <ele>169.81</ele>
        <time>2019-09-01T07:14:36Z</time>
      </trkpt>
      <trkpt lat="43.30027" lon="-0.59262">
        <ele>172.69</ele>
        <time>2019-09-01T07:14:50Z</time>
      </trkpt>
      <trkpt lat="43.30007" lon="-0.5928">
        <ele>173.66</ele>
        <time>2019-09-01T07:14:58Z</time>
      </trkpt>
      <trkpt lat="43.30001" lon="-0.5927">
        <ele>174.62</ele>
        <time>2019-09-01T07:15:03Z</time>
      </trkpt>
      <trkpt lat="43.30002" lon="-0.59228">
        <ele>177.98</ele>
        <time>2019-09-01T07:15:16Z</time>
      </trkpt>
      <trkpt lat="43.30001" lon="-0.59227">
        <ele>177.98</ele>
        <time>2019-09-01T07:15:17Z</time>
      </trkpt>
      <trkpt lat="43.29995" lon="-0.59236">
        <ele>179.9</ele>
        <time>2019-09-01T07:15:23Z</time>
      </trkpt>
      <trkpt lat="43.29978" lon="-0.59253">
        <ele>181.35</ele>
        <time>2019-09-01T07:15:34Z</time>
      </trkpt>
      <trkpt lat="43.29964" lon="-0.59236">
        <ele>183.27</ele>
        <time>2019-09-01T07:15:46Z</time>
      </trkpt>
      <trkpt lat="43.29954" lon="-0.59219">
        <ele>185.67</ele>
        <time>2019-09-01T07:15:56Z</time>
      </trkpt>
      <trkpt lat="43.29946" lon="-0.59221">
        <ele>187.11</ele>
        <time>2019-09-01T07:16:02Z</time>
      </trkpt>
      <trkpt lat="43.29921" lon="-0.59247">
        <ele>190.96</ele>
        <time>2019-09-01T07:16:21Z</time>
      </trkpt>
      <trkpt lat="43.29902" lon="-0.59262">
        <ele>195.28</ele>
        <time>2019-09-01T07:16:37Z</time>
      </trkpt>
      <trkpt lat="43.29887" lon="-0.59285">
        <ele>198.17</ele>
        <time>2019-09-01T07:16:54Z</time>
      </trkpt>
      <trkpt lat="43.29874" lon="-0.59303">
        <ele>200.09</ele>
        <time>2019-09-01T07:17:08Z</time>
      </trkpt>
      <trkpt lat="43.29865" lon="-0.59314">
        <ele>201.05</ele>
        <time>2019-09-01T07:17:17Z</time>
      </trkpt>
      <trkpt lat="43.29851" lon="-0.59331">
        <ele>204.42</ele>
        <time>2019-09-01T07:17:32Z</time>
      </trkpt>
      <trkpt lat="43.29847" lon="-0.59337">
        <ele>205.86</ele>
        <time>2019-09-01T07:17:37Z</time>
      </trkpt>
      <trkpt lat="43.29841" lon="-0.59342">
        <ele>207.78</ele>
        <time>2019-09-01T07:17:43Z</time>
      </trkpt>
      <trkpt lat="43.29829" lon="-0.5936">
        <ele>211.63</ele>
        <time>2019-09-01T07:17:57Z</time>
      </trkpt>
      <trkpt lat="43.29823" lon="-0.59369">
        <ele>213.55</ele>
        <time>2019-09-01T07:18:04Z</time>
      </trkpt>
      <trkpt lat="43.29815" lon="-0.59379">
        <ele>214.51</ele>
        <time>2019-09-01T07:18:17Z</time>
      </trkpt>
      <trkpt lat="43.29805" lon="-0.5939">
        <ele>216.43</ele>
        <time>2019-09-01T07:18:33Z</time>
      </trkpt>
      <trkpt lat="43.29795" lon="-0.59401">
        <ele>218.84</ele>
        <time>2019-09-01T07:18:48Z</time>
      </trkpt>
      <trkpt lat="43.29792" lon="-0.59403">
        <ele>220.28</ele>
        <time>2019-09-01T07:18:52Z</time>
      </trkpt>
      <trkpt lat="43.2978" lon="-0.59395">
        <ele>223.64</ele>
        <time>2019-09-01T07:19:08Z</time>
      </trkpt>
      <trkpt lat="43.29778" lon="-0.59394">
        <ele>228.45</ele>
        <time>2019-09-01T07:19:23Z</time>
      </trkpt>
      <trkpt lat="43.2977" lon="-0.59388">
        <ele>228.45</ele>
        <time>2019-09-01T07:19:35Z</time>
      </trkpt>
      <trkpt lat="43.29762" lon="-0.59382">
        <ele>227.49</ele>
        <time>2019-09-01T07:19:47Z</time>
      </trkpt>
      <trkpt lat="43.29757" lon="-0.59378">
        <ele>227.49</ele>
        <time>2019-09-01T07:19:52Z</time>
      </trkpt>
      <trkpt lat="43.2974" lon="-0.59369">
        <ele>229.41</ele>
        <time>2019-09-01T07:20:06Z</time>
      </trkpt>
      <trkpt lat="43.29725" lon="-0.59364">
        <ele>233.26</ele>
        <time>2019-09-01T07:20:20Z</time>
      </trkpt>
      <trkpt lat="43.29713" lon="-0.59364">
        <ele>235.66</ele>
        <time>2019-09-01T07:20:31Z</time>
      </trkpt>
      <trkpt lat="43.29712" lon="-0.59365">
        <ele>236.14</ele>
        <time>2019-09-01T07:20:32Z</time>
      </trkpt>
      <trkpt lat="43.29703" lon="-0.59369">
        <ele>240.95</ele>
        <time>2019-09-01T07:20:45Z</time>
      </trkpt>
      <trkpt lat="43.297" lon="-0.59372">
        <ele>240.47</ele>
        <time>2019-09-01T07:21:04Z</time>
      </trkpt>
      <trkpt lat="43.29701" lon="-0.59372">
        <ele>243.35</ele>
        <time>2019-09-01T07:21:29Z</time>
      </trkpt>
      <trkpt lat="43.29703" lon="-0.59372">
        <ele>241.91</ele>
        <time>2019-09-01T07:21:52Z</time>
      </trkpt>
      <trkpt lat="43.29701" lon="-0.59376">
        <ele>241.43</ele>
        <time>2019-09-01T07:22:11Z</time>
      </trkpt>
      <trkpt lat="43.29698" lon="-0.59381">
        <ele>244.79</ele>
        <time>2019-09-01T07:22:34Z</time>
      </trkpt>
      <trkpt lat="43.29698" lon="-0.59382">
        <ele>244.79</ele>
        <time>2019-09-01T07:22:35Z</time>
      </trkpt>
      <trkpt lat="43.29689" lon="-0.59402">
        <ele>250.56</ele>
        <time>2019-09-01T07:22:49Z</time>
      </trkpt>
      <trkpt lat="43.29688" lon="-0.59409">
        <ele>252.48</ele>
        <time>2019-09-01T07:22:54Z</time>
      </trkpt>
      <trkpt lat="43.29674" lon="-0.59431">
        <ele>256.33</ele>
        <time>2019-09-01T07:23:07Z</time>
      </trkpt>
      <trkpt lat="43.29669" lon="-0.59449">
        <ele>255.37</ele>
        <time>2019-09-01T07:23:20Z</time>
      </trkpt>
      <trkpt lat="43.29671" lon="-0.59452">
        <ele>250.08</ele>
        <time>2019-09-01T07:23:44Z</time>
      </trkpt>
      <trkpt lat="43.29673" lon="-0.59452">
        <ele>247.68</ele>
        <time>2019-09-01T07:24:14Z</time>
      </trkpt>
      <trkpt lat="43.29672" lon="-0.59453">
        <ele>249.12</ele>
        <time>2019-09-01T07:24:45Z</time>
      </trkpt>
      <trkpt lat="43.29671" lon="-0.5945">
        <ele>248.64</ele>
        <time>2019-09-01T07:25:16Z</time>
      </trkpt>
      <trkpt lat="43.29672" lon="-0.59452">
        <ele>248.64</ele>
        <time>2019-09-01T07:25:30Z</time>
      </trkpt>
      <trkpt lat="43.29701" lon="-0.59481">
        <ele>246.72</ele>
        <time>2019-09-01T07:25:46Z</time>
      </trkpt>
      <trkpt lat="43.29718" lon="-0.59527">
        <ele>247.68</ele>
        <time>2019-09-01T07:26:02Z</time>
      </trkpt>
      <trkpt lat="43.29738" lon="-0.59575">
        <ele>251.52</ele>
        <time>2019-09-01T07:26:20Z</time>
      </trkpt>
      <trkpt lat="43.29751" lon="-0.59612">
        <ele>254.89</ele>
        <time>2019-09-01T07:26:34Z</time>
      </trkpt>
      <trkpt lat="43.29751" lon="-0.59654">
        <ele>257.77</ele>
        <time>2019-09-01T07:26:50Z</time>
      </trkpt>
      <trkpt lat="43.29732" lon="-0.59686">
        <ele>257.77</ele>
        <time>2019-09-01T07:27:05Z</time>
      </trkpt>
      <trkpt lat="43.29732" lon="-0.59736">
        <ele>258.73</ele>
        <time>2019-09-01T07:27:23Z</time>
      </trkpt>
      <trkpt lat="43.29736" lon="-0.59784">
        <ele>259.69</ele>
        <time>2019-09-01T07:27:39Z</time>
      </trkpt>
      <trkpt lat="43.29746" lon="-0.59859">
        <ele>256.33</ele>
        <time>2019-09-01T07:27:58Z</time>
      </trkpt>
      <trkpt lat="43.29756" lon="-0.59932">
        <ele>256.81</ele>
        <time>2019-09-01T07:28:14Z</time>
      </trkpt>
      <trkpt lat="43.29754" lon="-0.59985">
        <ele>254.41</ele>
        <time>2019-09-01T07:28:26Z</time>
      </trkpt>
      <trkpt lat="43.29752" lon="-0.59998">
        <ele>252.96</ele>
        <time>2019-09-01T07:28:29Z</time>
      </trkpt>
      <trkpt lat="43.29749" lon="-0.60008">
        <ele>250.56</ele>
        <time>2019-09-01T07:28:40Z</time>
      </trkpt>
      <trkpt lat="43.29751" lon="-0.60026">
        <ele>247.2</ele>
        <time>2019-09-01T07:28:56Z</time>
      </trkpt>
      <trkpt lat="43.29774" lon="-0.60047">
        <ele>239.99</ele>
        <time>2019-09-01T07:29:05Z</time>
      </trkpt>
      <trkpt lat="43.29808" lon="-0.6008">
        <ele>231.81</ele>
        <time>2019-09-01T07:29:15Z</time>
      </trkpt>
      <trkpt lat="43.29823" lon="-0.60127">
        <ele>226.53</ele>
        <time>2019-09-01T07:29:24Z</time>
      </trkpt>
      <trkpt lat="43.29832" lon="-0.6016">
        <ele>223.64</ele>
        <time>2019-09-01T07:29:31Z</time>
      </trkpt>
      <trkpt lat="43.29832" lon="-0.60164">
        <ele>224.12</ele>
        <time>2019-09-01T07:29:32Z</time>
      </trkpt>
      <trkpt lat="43.29833" lon="-0.60169">
        <ele>224.12</ele>
        <time>2019-09-01T07:29:33Z</time>
      </trkpt>
      <trkpt lat="43.29833" lon="-0.60174">
        <ele>224.61</ele>
        <time>2019-09-01T07:29:34Z</time>
      </trkpt>
      <trkpt lat="43.29834" lon="-0.60179">
        <ele>225.09</ele>
        <time>2019-09-01T07:29:35Z</time>
      </trkpt>
      <trkpt lat="43.29835" lon="-0.60184">
        <ele>225.09</ele>
        <time>2019-09-01T07:29:36Z</time>
      </trkpt>
      <trkpt lat="43.29835" lon="-0.60189">
        <ele>225.09</ele>
        <time>2019-09-01T07:29:37Z</time>
      </trkpt>
      <trkpt lat="43.29836" lon="-0.60195">
        <ele>225.09</ele>
        <time>2019-09-01T07:29:38Z</time>
      </trkpt>
      <trkpt lat="43.29836" lon="-0.602">
        <ele>225.09</ele>
        <time>2019-09-01T07:29:39Z</time>
      </trkpt>
      <trkpt lat="43.29837" lon="-0.60206">
        <ele>225.09</ele>
        <time>2019-09-01T07:29:40Z</time>
      </trkpt>
      <trkpt lat="43.29838" lon="-0.60211">
        <ele>225.57</ele>
        <time>2019-09-01T07:29:41Z</time>
      </trkpt>
      <trkpt lat="43.29838" lon="-0.60215">
        <ele>225.09</ele>
        <time>2019-09-01T07:29:42Z</time>
      </trkpt>
      <trkpt lat="43.29847" lon="-0.6026">
        <ele>227.01</ele>
        <time>2019-09-01T07:29:54Z</time>
      </trkpt>
      <trkpt lat="43.29848" lon="-0.6028">
        <ele>229.41</ele>
        <time>2019-09-01T07:30:09Z</time>
      </trkpt>
      <trkpt lat="43.29848" lon="-0.60284">
        <ele>229.41</ele>
        <time>2019-09-01T07:30:11Z</time>
      </trkpt>
      <trkpt lat="43.29847" lon="-0.60287">
        <ele>229.41</ele>
        <time>2019-09-01T07:30:12Z</time>
      </trkpt>
      <trkpt lat="43.29846" lon="-0.60292">
        <ele>228.93</ele>
        <time>2019-09-01T07:30:13Z</time>
      </trkpt>
      <trkpt lat="43.29838" lon="-0.60348">
        <ele>226.53</ele>
        <time>2019-09-01T07:30:25Z</time>
      </trkpt>
      <trkpt lat="43.29828" lon="-0.6041">
        <ele>225.57</ele>
        <time>2019-09-01T07:30:37Z</time>
      </trkpt>
      <trkpt lat="43.29819" lon="-0.60455">
        <ele>225.57</ele>
        <time>2019-09-01T07:30:47Z</time>
      </trkpt>
      <trkpt lat="43.29816" lon="-0.60474">
        <ele>224.61</ele>
        <time>2019-09-01T07:30:50Z</time>
      </trkpt>
      <trkpt lat="43.29807" lon="-0.6051">
        <ele>222.2</ele>
        <time>2019-09-01T07:30:55Z</time>
      </trkpt>
      <trkpt lat="43.29806" lon="-0.60524">
        <ele>220.76</ele>
        <time>2019-09-01T07:30:57Z</time>
      </trkpt>
      <trkpt lat="43.29806" lon="-0.60531">
        <ele>219.8</ele>
        <time>2019-09-01T07:30:58Z</time>
      </trkpt>
      <trkpt lat="43.29814" lon="-0.60572">
        <ele>215.47</ele>
        <time>2019-09-01T07:31:04Z</time>
      </trkpt>
      <trkpt lat="43.29815" lon="-0.60578">
        <ele>214.99</ele>
        <time>2019-09-01T07:31:05Z</time>
      </trkpt>
      <trkpt lat="43.29821" lon="-0.60601">
        <ele>213.07</ele>
        <time>2019-09-01T07:31:09Z</time>
      </trkpt>
      <trkpt lat="43.29821" lon="-0.60607">
        <ele>212.59</ele>
        <time>2019-09-01T07:31:10Z</time>
      </trkpt>
      <trkpt lat="43.29827" lon="-0.6066">
        <ele>207.3</ele>
        <time>2019-09-01T07:31:21Z</time>
      </trkpt>
      <trkpt lat="43.29828" lon="-0.60662">
        <ele>206.82</ele>
        <time>2019-09-01T07:31:22Z</time>
      </trkpt>
      <trkpt lat="43.29829" lon="-0.60665">
        <ele>206.82</ele>
        <time>2019-09-01T07:31:23Z</time>
      </trkpt>
      <trkpt lat="43.2983" lon="-0.60669">
        <ele>205.86</ele>
        <time>2019-09-01T07:31:24Z</time>
      </trkpt>
      <trkpt lat="43.2983" lon="-0.60673">
        <ele>205.38</ele>
        <time>2019-09-01T07:31:25Z</time>
      </trkpt>
      <trkpt lat="43.2983" lon="-0.60677">
        <ele>204.9</ele>
        <time>2019-09-01T07:31:26Z</time>
      </trkpt>
      <trkpt lat="43.2983" lon="-0.60682">
        <ele>204.42</ele>
        <time>2019-09-01T07:31:27Z</time>
      </trkpt>
      <trkpt lat="43.29829" lon="-0.60686">
        <ele>203.94</ele>
        <time>2019-09-01T07:31:28Z</time>
      </trkpt>
      <trkpt lat="43.29828" lon="-0.6069">
        <ele>203.94</ele>
        <time>2019-09-01T07:31:29Z</time>
      </trkpt>
      <trkpt lat="43.29822" lon="-0.60719">
        <ele>199.13</ele>
        <time>2019-09-01T07:31:35Z</time>
      </trkpt>
      <trkpt lat="43.29823" lon="-0.60723">
        <ele>198.65</ele>
        <time>2019-09-01T07:31:36Z</time>
      </trkpt>
      <trkpt lat="43.29824" lon="-0.60727">
        <ele>197.69</ele>
        <time>2019-09-01T07:31:37Z</time>
      </trkpt>
      <trkpt lat="43.2984" lon="-0.60761">
        <ele>187.59</ele>
        <time>2019-09-01T07:31:47Z</time>
      </trkpt>
      <trkpt lat="43.29865" lon="-0.60771">
        <ele>178.94</ele>
        <time>2019-09-01T07:31:56Z</time>
      </trkpt>
      <trkpt lat="43.29892" lon="-0.60754">
        <ele>172.21</ele>
        <time>2019-09-01T07:32:07Z</time>
      </trkpt>
      <trkpt lat="43.29903" lon="-0.60746">
        <ele>168.37</ele>
        <time>2019-09-01T07:32:11Z</time>
      </trkpt>
      <trkpt lat="43.29906" lon="-0.60746">
        <ele>167.41</ele>
        <time>2019-09-01T07:32:12Z</time>
      </trkpt>
      <trkpt lat="43.29908" lon="-0.60746">
        <ele>166.93</ele>
        <time>2019-09-01T07:32:13Z</time>
      </trkpt>
      <trkpt lat="43.2991" lon="-0.60748">
        <ele>166.45</ele>
        <time>2019-09-01T07:32:14Z</time>
      </trkpt>
      <trkpt lat="43.29913" lon="-0.60751">
        <ele>166.45</ele>
        <time>2019-09-01T07:32:15Z</time>
      </trkpt>
      <trkpt lat="43.29916" lon="-0.60754">
        <ele>165.96</ele>
        <time>2019-09-01T07:32:16Z</time>
      </trkpt>
      <trkpt lat="43.29947" lon="-0.60765">
        <ele>166.45</ele>
        <time>2019-09-01T07:32:25Z</time>
      </trkpt>
      <trkpt lat="43.2996" lon="-0.60798">
        <ele>174.14</ele>
        <time>2019-09-01T07:32:33Z</time>
      </trkpt>
      <trkpt lat="43.29967" lon="-0.60856">
        <ele>177.02</ele>
        <time>2019-09-01T07:32:44Z</time>
      </trkpt>
      <trkpt lat="43.29989" lon="-0.60889">
        <ele>176.54</ele>
        <time>2019-09-01T07:32:55Z</time>
      </trkpt>
      <trkpt lat="43.30028" lon="-0.60893">
        <ele>169.81</ele>
        <time>2019-09-01T07:33:06Z</time>
      </trkpt>
      <trkpt lat="43.30032" lon="-0.60893">
        <ele>169.33</ele>
        <time>2019-09-01T07:33:07Z</time>
      </trkpt>
      <trkpt lat="43.30037" lon="-0.60895">
        <ele>169.33</ele>
        <time>2019-09-01T07:33:08Z</time>
      </trkpt>
      <trkpt lat="43.30046" lon="-0.60896">
        <ele>169.33</ele>
        <time>2019-09-01T07:33:10Z</time>
      </trkpt>
      <trkpt lat="43.30051" lon="-0.60897">
        <ele>169.81</ele>
        <time>2019-09-01T07:33:11Z</time>
      </trkpt>
      <trkpt lat="43.30055" lon="-0.60899">
        <ele>170.77</ele>
        <time>2019-09-01T07:33:12Z</time>
      </trkpt>
      <trkpt lat="43.30057" lon="-0.60901">
        <ele>171.25</ele>
        <time>2019-09-01T07:33:13Z</time>
      </trkpt>
      <trkpt lat="43.30059" lon="-0.60904">
        <ele>171.73</ele>
        <time>2019-09-01T07:33:14Z</time>
      </trkpt>
      <trkpt lat="43.3006" lon="-0.60906">
        <ele>172.21</ele>
        <time>2019-09-01T07:33:15Z</time>
      </trkpt>
      <trkpt lat="43.3006" lon="-0.60908">
        <ele>172.21</ele>
        <time>2019-09-01T07:33:16Z</time>
      </trkpt>
      <trkpt lat="43.3006" lon="-0.60911">
        <ele>172.21</ele>
        <time>2019-09-01T07:33:17Z</time>
      </trkpt>
      <trkpt lat="43.30059" lon="-0.60915">
        <ele>173.17</ele>
        <time>2019-09-01T07:33:18Z</time>
      </trkpt>
      <trkpt lat="43.30048" lon="-0.60966">
        <ele>177.5</ele>
        <time>2019-09-01T07:33:29Z</time>
      </trkpt>
      <trkpt lat="43.30054" lon="-0.60998">
        <ele>175.58</ele>
        <time>2019-09-01T07:33:34Z</time>
      </trkpt>
      <trkpt lat="43.30057" lon="-0.61004">
        <ele>175.1</ele>
        <time>2019-09-01T07:33:35Z</time>
      </trkpt>
      <trkpt lat="43.30059" lon="-0.6101">
        <ele>175.1</ele>
        <time>2019-09-01T07:33:36Z</time>
      </trkpt>
      <trkpt lat="43.30075" lon="-0.6104">
        <ele>172.21</ele>
        <time>2019-09-01T07:33:42Z</time>
      </trkpt>
      <trkpt lat="43.30078" lon="-0.61045">
        <ele>171.73</ele>
        <time>2019-09-01T07:33:43Z</time>
      </trkpt>
      <trkpt lat="43.30082" lon="-0.61051">
        <ele>171.25</ele>
        <time>2019-09-01T07:33:44Z</time>
      </trkpt>
      <trkpt lat="43.3009" lon="-0.61062">
        <ele>170.29</ele>
        <time>2019-09-01T07:33:46Z</time>
      </trkpt>
      <trkpt lat="43.30094" lon="-0.61067">
        <ele>169.81</ele>
        <time>2019-09-01T07:33:47Z</time>
      </trkpt>
      <trkpt lat="43.30125" lon="-0.61093">
        <ele>165</ele>
        <time>2019-09-01T07:33:56Z</time>
      </trkpt>
      <trkpt lat="43.30166" lon="-0.61126">
        <ele>161.16</ele>
        <time>2019-09-01T07:34:05Z</time>
      </trkpt>
      <trkpt lat="43.30176" lon="-0.61131">
        <ele>160.2</ele>
        <time>2019-09-01T07:34:07Z</time>
      </trkpt>
      <trkpt lat="43.30192" lon="-0.61139">
        <ele>157.31</ele>
        <time>2019-09-01T07:34:10Z</time>
      </trkpt>
      <trkpt lat="43.30197" lon="-0.6114">
        <ele>156.35</ele>
        <time>2019-09-01T07:34:11Z</time>
      </trkpt>
      <trkpt lat="43.30236" lon="-0.61143">
        <ele>151.54</ele>
        <time>2019-09-01T07:34:20Z</time>
      </trkpt>
      <trkpt lat="43.30261" lon="-0.61141">
        <ele>149.14</ele>
        <time>2019-09-01T07:34:26Z</time>
      </trkpt>
      <trkpt lat="43.30267" lon="-0.61143">
        <ele>149.14</ele>
        <time>2019-09-01T07:34:27Z</time>
      </trkpt>
      <trkpt lat="43.30273" lon="-0.61143">
        <ele>148.66</ele>
        <time>2019-09-01T07:34:28Z</time>
      </trkpt>
      <trkpt lat="43.30277" lon="-0.61142">
        <ele>148.66</ele>
        <time>2019-09-01T07:34:29Z</time>
      </trkpt>
      <trkpt lat="43.30282" lon="-0.6114">
        <ele>148.18</ele>
        <time>2019-09-01T07:34:30Z</time>
      </trkpt>
      <trkpt lat="43.30286" lon="-0.61138">
        <ele>148.18</ele>
        <time>2019-09-01T07:34:31Z</time>
      </trkpt>
      <trkpt lat="43.30289" lon="-0.61134">
        <ele>148.18</ele>
        <time>2019-09-01T07:34:32Z</time>
      </trkpt>
      <trkpt lat="43.30293" lon="-0.61132">
        <ele>148.18</ele>
        <time>2019-09-01T07:34:33Z</time>
      </trkpt>
      <trkpt lat="43.30297" lon="-0.6113">
        <ele>147.7</ele>
        <time>2019-09-01T07:34:34Z</time>
      </trkpt>
      <trkpt lat="43.3031" lon="-0.61122">
        <ele>147.7</ele>
        <time>2019-09-01T07:34:37Z</time>
      </trkpt>
      <trkpt lat="43.3032" lon="-0.61116">
        <ele>147.7</ele>
        <time>2019-09-01T07:34:39Z</time>
      </trkpt>
      <trkpt lat="43.30324" lon="-0.61113">
        <ele>147.7</ele>
        <time>2019-09-01T07:34:40Z</time>
      </trkpt>
      <trkpt lat="43.30328" lon="-0.6111">
        <ele>147.22</ele>
        <time>2019-09-01T07:34:41Z</time>
      </trkpt>
      <trkpt lat="43.30352" lon="-0.61101">
        <ele>146.26</ele>
        <time>2019-09-01T07:34:47Z</time>
      </trkpt>
      <trkpt lat="43.30364" lon="-0.61105">
        <ele>145.3</ele>
        <time>2019-09-01T07:34:50Z</time>
      </trkpt>
      <trkpt lat="43.30366" lon="-0.61107">
        <ele>145.3</ele>
        <time>2019-09-01T07:34:51Z</time>
      </trkpt>
      <trkpt lat="43.30367" lon="-0.61109">
        <ele>144.82</ele>
        <time>2019-09-01T07:34:52Z</time>
      </trkpt>
      <trkpt lat="43.30369" lon="-0.61111">
        <ele>144.82</ele>
        <time>2019-09-01T07:34:53Z</time>
      </trkpt>
      <trkpt lat="43.30371" lon="-0.61113">
        <ele>144.82</ele>
        <time>2019-09-01T07:34:54Z</time>
      </trkpt>
      <trkpt lat="43.30373" lon="-0.61115">
        <ele>144.82</ele>
        <time>2019-09-01T07:34:55Z</time>
      </trkpt>
      <trkpt lat="43.30375" lon="-0.61118">
        <ele>144.82</ele>
        <time>2019-09-01T07:34:56Z</time>
      </trkpt>
      <trkpt lat="43.30376" lon="-0.61121">
        <ele>144.82</ele>
        <time>2019-09-01T07:34:57Z</time>
      </trkpt>
      <trkpt lat="43.30397" lon="-0.61171">
        <ele>143.85</ele>
        <time>2019-09-01T07:35:09Z</time>
      </trkpt>
      <trkpt lat="43.30396" lon="-0.61216">
        <ele>143.37</ele>
        <time>2019-09-01T07:35:19Z</time>
      </trkpt>
      <trkpt lat="43.30377" lon="-0.61281">
        <ele>141.45</ele>
        <time>2019-09-01T07:35:33Z</time>
      </trkpt>
      <trkpt lat="43.30403" lon="-0.61341">
        <ele>138.57</ele>
        <time>2019-09-01T07:35:47Z</time>
      </trkpt>
      <trkpt lat="43.30429" lon="-0.61409">
        <ele>138.57</ele>
        <time>2019-09-01T07:36:02Z</time>
      </trkpt>
      <trkpt lat="43.30453" lon="-0.61453">
        <ele>142.41</ele>
        <time>2019-09-01T07:36:15Z</time>
      </trkpt>
      <trkpt lat="43.30455" lon="-0.61451">
        <ele>142.89</ele>
        <time>2019-09-01T07:36:16Z</time>
      </trkpt>
      <trkpt lat="43.30483" lon="-0.61413">
        <ele>142.89</ele>
        <time>2019-09-01T07:36:27Z</time>
      </trkpt>
      <trkpt lat="43.30527" lon="-0.61375">
        <ele>143.37</ele>
        <time>2019-09-01T07:36:38Z</time>
      </trkpt>
      <trkpt lat="43.3053" lon="-0.61372">
        <ele>143.37</ele>
        <time>2019-09-01T07:36:39Z</time>
      </trkpt>
      <trkpt lat="43.30567" lon="-0.61337">
        <ele>143.85</ele>
        <time>2019-09-01T07:36:49Z</time>
      </trkpt>
      <trkpt lat="43.30571" lon="-0.61333">
        <ele>143.85</ele>
        <time>2019-09-01T07:36:50Z</time>
      </trkpt>
      <trkpt lat="43.30626" lon="-0.61273">
        <ele>141.45</ele>
        <time>2019-09-01T07:37:04Z</time>
      </trkpt>
      <trkpt lat="43.30663" lon="-0.61223">
        <ele>141.45</ele>
        <time>2019-09-01T07:37:14Z</time>
      </trkpt>
      <trkpt lat="43.30666" lon="-0.61221">
        <ele>141.45</ele>
        <time>2019-09-01T07:37:15Z</time>
      </trkpt>
      <trkpt lat="43.30669" lon="-0.61221">
        <ele>141.45</ele>
        <time>2019-09-01T07:37:16Z</time>
      </trkpt>
      <trkpt lat="43.30672" lon="-0.61222">
        <ele>140.97</ele>
        <time>2019-09-01T07:37:17Z</time>
      </trkpt>
      <trkpt lat="43.30673" lon="-0.61226">
        <ele>140.97</ele>
        <time>2019-09-01T07:37:18Z</time>
      </trkpt>
      <trkpt lat="43.30673" lon="-0.61228">
        <ele>140.97</ele>
        <time>2019-09-01T07:37:19Z</time>
      </trkpt>
      <trkpt lat="43.30673" lon="-0.61232">
        <ele>140.97</ele>
        <time>2019-09-01T07:37:20Z</time>
      </trkpt>
      <trkpt lat="43.30665" lon="-0.61285">
        <ele>140.97</ele>
        <time>2019-09-01T07:37:33Z</time>
      </trkpt>
      <trkpt lat="43.30647" lon="-0.6135">
        <ele>146.26</ele>
        <time>2019-09-01T07:37:49Z</time>
      </trkpt>
      <trkpt lat="43.30637" lon="-0.61398">
        <ele>147.7</ele>
        <time>2019-09-01T07:38:02Z</time>
      </trkpt>
      <trkpt lat="43.30626" lon="-0.61451">
        <ele>148.18</ele>
        <time>2019-09-01T07:38:15Z</time>
      </trkpt>
      <trkpt lat="43.3062" lon="-0.61506">
        <ele>149.14</ele>
        <time>2019-09-01T07:38:28Z</time>
      </trkpt>
      <trkpt lat="43.30621" lon="-0.61585">
        <ele>150.58</ele>
        <time>2019-09-01T07:38:47Z</time>
      </trkpt>
      <trkpt lat="43.30619" lon="-0.61652">
        <ele>151.06</ele>
        <time>2019-09-01T07:39:02Z</time>
      </trkpt>
      <trkpt lat="43.30621" lon="-0.61723">
        <ele>152.51</ele>
        <time>2019-09-01T07:39:18Z</time>
      </trkpt>
      <trkpt lat="43.3065" lon="-0.61745">
        <ele>153.47</ele>
        <time>2019-09-01T07:39:28Z</time>
      </trkpt>
      <trkpt lat="43.30686" lon="-0.61747">
        <ele>153.95</ele>
        <time>2019-09-01T07:39:37Z</time>
      </trkpt>
      <trkpt lat="43.30734" lon="-0.61758">
        <ele>153.47</ele>
        <time>2019-09-01T07:39:50Z</time>
      </trkpt>
      <trkpt lat="43.30783" lon="-0.6175">
        <ele>152.99</ele>
        <time>2019-09-01T07:40:04Z</time>
      </trkpt>
      <trkpt lat="43.30847" lon="-0.61741">
        <ele>153.47</ele>
        <time>2019-09-01T07:40:22Z</time>
      </trkpt>
      <trkpt lat="43.30891" lon="-0.61737">
        <ele>155.87</ele>
        <time>2019-09-01T07:40:37Z</time>
      </trkpt>
      <trkpt lat="43.30917" lon="-0.61762">
        <ele>157.79</ele>
        <time>2019-09-01T07:40:52Z</time>
      </trkpt>
      <trkpt lat="43.30934" lon="-0.61796">
        <ele>161.16</ele>
        <time>2019-09-01T07:41:09Z</time>
      </trkpt>
      <trkpt lat="43.30942" lon="-0.61831">
        <ele>165</ele>
        <time>2019-09-01T07:41:24Z</time>
      </trkpt>
      <trkpt lat="43.3096" lon="-0.61835">
        <ele>168.85</ele>
        <time>2019-09-01T07:41:38Z</time>
      </trkpt>
      <trkpt lat="43.30972" lon="-0.61831">
        <ele>171.73</ele>
        <time>2019-09-01T07:41:47Z</time>
      </trkpt>
      <trkpt lat="43.30978" lon="-0.6183">
        <ele>172.69</ele>
        <time>2019-09-01T07:41:51Z</time>
      </trkpt>
      <trkpt lat="43.31001" lon="-0.61824">
        <ele>177.02</ele>
        <time>2019-09-01T07:42:09Z</time>
      </trkpt>
      <trkpt lat="43.31024" lon="-0.61821">
        <ele>181.35</ele>
        <time>2019-09-01T07:42:27Z</time>
      </trkpt>
      <trkpt lat="43.31049" lon="-0.61823">
        <ele>186.15</ele>
        <time>2019-09-01T07:42:46Z</time>
      </trkpt>
      <trkpt lat="43.31073" lon="-0.61832">
        <ele>189.52</ele>
        <time>2019-09-01T07:43:05Z</time>
      </trkpt>
      <trkpt lat="43.3109" lon="-0.61844">
        <ele>192.88</ele>
        <time>2019-09-01T07:43:20Z</time>
      </trkpt>
      <trkpt lat="43.31093" lon="-0.61846">
        <ele>193.36</ele>
        <time>2019-09-01T07:43:23Z</time>
      </trkpt>
      <trkpt lat="43.31096" lon="-0.61863">
        <ele>194.8</ele>
        <time>2019-09-01T07:43:33Z</time>
      </trkpt>
      <trkpt lat="43.31106" lon="-0.61897">
        <ele>196.25</ele>
        <time>2019-09-01T07:43:54Z</time>
      </trkpt>
      <trkpt lat="43.31109" lon="-0.61908">
        <ele>197.21</ele>
        <time>2019-09-01T07:44:02Z</time>
      </trkpt>
      <trkpt lat="43.31116" lon="-0.61932">
        <ele>202.01</ele>
        <time>2019-09-01T07:44:18Z</time>
      </trkpt>
      <trkpt lat="43.31117" lon="-0.61935">
        <ele>202.49</ele>
        <time>2019-09-01T07:44:20Z</time>
      </trkpt>
      <trkpt lat="43.3112" lon="-0.61943">
        <ele>202.49</ele>
        <time>2019-09-01T07:44:25Z</time>
      </trkpt>
      <trkpt lat="43.31131" lon="-0.61972">
        <ele>207.3</ele>
        <time>2019-09-01T07:44:43Z</time>
      </trkpt>
      <trkpt lat="43.31143" lon="-0.62002">
        <ele>211.15</ele>
        <time>2019-09-01T07:45:01Z</time>
      </trkpt>
      <trkpt lat="43.31149" lon="-0.62018">
        <ele>212.59</ele>
        <time>2019-09-01T07:45:11Z</time>
      </trkpt>
      <trkpt lat="43.31158" lon="-0.62023">
        <ele>214.03</ele>
        <time>2019-09-01T07:45:18Z</time>
      </trkpt>
      <trkpt lat="43.31182" lon="-0.62018">
        <ele>214.99</ele>
        <time>2019-09-01T07:45:31Z</time>
      </trkpt>
      <trkpt lat="43.31232" lon="-0.61996">
        <ele>210.67</ele>
        <time>2019-09-01T07:45:42Z</time>
      </trkpt>
      <trkpt lat="43.31307" lon="-0.61958">
        <ele>202.98</ele>
        <time>2019-09-01T07:45:54Z</time>
      </trkpt>
      <trkpt lat="43.31316" lon="-0.61955">
        <ele>201.05</ele>
        <time>2019-09-01T07:45:56Z</time>
      </trkpt>
      <trkpt lat="43.31333" lon="-0.61944">
        <ele>198.17</ele>
        <time>2019-09-01T07:45:59Z</time>
      </trkpt>
      <trkpt lat="43.31337" lon="-0.6194">
        <ele>197.69</ele>
        <time>2019-09-01T07:46:00Z</time>
      </trkpt>
      <trkpt lat="43.31342" lon="-0.61935">
        <ele>196.25</ele>
        <time>2019-09-01T07:46:01Z</time>
      </trkpt>
      <trkpt lat="43.31346" lon="-0.61928">
        <ele>195.28</ele>
        <time>2019-09-01T07:46:02Z</time>
      </trkpt>
      <trkpt lat="43.31349" lon="-0.61922">
        <ele>194.8</ele>
        <time>2019-09-01T07:46:03Z</time>
      </trkpt>
      <trkpt lat="43.31352" lon="-0.61914">
        <ele>193.84</ele>
        <time>2019-09-01T07:46:04Z</time>
      </trkpt>
      <trkpt lat="43.31354" lon="-0.61906">
        <ele>193.36</ele>
        <time>2019-09-01T07:46:05Z</time>
      </trkpt>
      <trkpt lat="43.31356" lon="-0.61898">
        <ele>192.88</ele>
        <time>2019-09-01T07:46:06Z</time>
      </trkpt>
      <trkpt lat="43.31357" lon="-0.61889">
        <ele>191.92</ele>
        <time>2019-09-01T07:46:07Z</time>
      </trkpt>
      <trkpt lat="43.31358" lon="-0.61881">
        <ele>191.44</ele>
        <time>2019-09-01T07:46:08Z</time>
      </trkpt>
      <trkpt lat="43.31359" lon="-0.61871">
        <ele>190.96</ele>
        <time>2019-09-01T07:46:09Z</time>
      </trkpt>
      <trkpt lat="43.31359" lon="-0.61862">
        <ele>190.48</ele>
        <time>2019-09-01T07:46:10Z</time>
      </trkpt>
      <trkpt lat="43.31357" lon="-0.61853">
        <ele>190</ele>
        <time>2019-09-01T07:46:11Z</time>
      </trkpt>
      <trkpt lat="43.31352" lon="-0.61837">
        <ele>189.04</ele>
        <time>2019-09-01T07:46:13Z</time>
      </trkpt>
      <trkpt lat="43.31351" lon="-0.61829">
        <ele>188.56</ele>
        <time>2019-09-01T07:46:14Z</time>
      </trkpt>
      <trkpt lat="43.31351" lon="-0.6182">
        <ele>188.08</ele>
        <time>2019-09-01T07:46:15Z</time>
      </trkpt>
      <trkpt lat="43.31352" lon="-0.61812">
        <ele>187.59</ele>
        <time>2019-09-01T07:46:16Z</time>
      </trkpt>
      <trkpt lat="43.31353" lon="-0.61803">
        <ele>187.11</ele>
        <time>2019-09-01T07:46:17Z</time>
      </trkpt>
      <trkpt lat="43.31355" lon="-0.61795">
        <ele>186.63</ele>
        <time>2019-09-01T07:46:18Z</time>
      </trkpt>
      <trkpt lat="43.31358" lon="-0.61787">
        <ele>186.63</ele>
        <time>2019-09-01T07:46:19Z</time>
      </trkpt>
      <trkpt lat="43.31361" lon="-0.6178">
        <ele>186.63</ele>
        <time>2019-09-01T07:46:20Z</time>
      </trkpt>
      <trkpt lat="43.3137" lon="-0.61711">
        <ele>187.11</ele>
        <time>2019-09-01T07:46:31Z</time>
      </trkpt>
      <trkpt lat="43.31375" lon="-0.6168">
        <ele>185.67</ele>
        <time>2019-09-01T07:46:36Z</time>
      </trkpt>
      <trkpt lat="43.31376" lon="-0.61611">
        <ele>179.42</ele>
        <time>2019-09-01T07:46:45Z</time>
      </trkpt>
      <trkpt lat="43.31379" lon="-0.61556">
        <ele>170.29</ele>
        <time>2019-09-01T07:46:53Z</time>
      </trkpt>
      <trkpt lat="43.31377" lon="-0.61541">
        <ele>167.41</ele>
        <time>2019-09-01T07:46:55Z</time>
      </trkpt>
      <trkpt lat="43.31369" lon="-0.61518">
        <ele>161.16</ele>
        <time>2019-09-01T07:47:00Z</time>
      </trkpt>
      <trkpt lat="43.31357" lon="-0.61494">
        <ele>155.87</ele>
        <time>2019-09-01T07:47:06Z</time>
      </trkpt>
      <trkpt lat="43.31346" lon="-0.61496">
        <ele>154.43</ele>
        <time>2019-09-01T07:47:11Z</time>
      </trkpt>
      <trkpt lat="43.31335" lon="-0.615">
        <ele>155.39</ele>
        <time>2019-09-01T07:47:15Z</time>
      </trkpt>
      <trkpt lat="43.31329" lon="-0.61496">
        <ele>155.39</ele>
        <time>2019-09-01T07:47:17Z</time>
      </trkpt>
      <trkpt lat="43.31327" lon="-0.61491">
        <ele>154.91</ele>
        <time>2019-09-01T07:47:18Z</time>
      </trkpt>
      <trkpt lat="43.31325" lon="-0.61485">
        <ele>153.95</ele>
        <time>2019-09-01T07:47:19Z</time>
      </trkpt>
      <trkpt lat="43.31323" lon="-0.6148">
        <ele>153.95</ele>
        <time>2019-09-01T07:47:20Z</time>
      </trkpt>
      <trkpt lat="43.31322" lon="-0.61477">
        <ele>153.47</ele>
        <time>2019-09-01T07:47:21Z</time>
      </trkpt>
      <trkpt lat="43.31321" lon="-0.61476">
        <ele>153.47</ele>
        <time>2019-09-01T07:47:22Z</time>
      </trkpt>
      <trkpt lat="43.31319" lon="-0.61476">
        <ele>152.99</ele>
        <time>2019-09-01T07:47:31Z</time>
      </trkpt>
      <trkpt lat="43.31324" lon="-0.61478">
        <ele>151.54</ele>
        <time>2019-09-01T07:47:57Z</time>
      </trkpt>
      <trkpt lat="43.31322" lon="-0.61474">
        <ele>151.54</ele>
        <time>2019-09-01T07:48:24Z</time>
      </trkpt>
      <trkpt lat="43.31325" lon="-0.61473">
        <ele>153.95</ele>
        <time>2019-09-01T07:49:02Z</time>
      </trkpt>
      <trkpt lat="43.31323" lon="-0.61473">
        <ele>158.27</ele>
        <time>2019-09-01T07:49:40Z</time>
      </trkpt>
      <trkpt lat="43.31321" lon="-0.61473">
        <ele>159.24</ele>
        <time>2019-09-01T07:50:17Z</time>
      </trkpt>
      <trkpt lat="43.31318" lon="-0.61474">
        <ele>157.31</ele>
        <time>2019-09-01T07:50:37Z</time>
      </trkpt>
      <trkpt lat="43.3132" lon="-0.61474">
        <ele>152.51</ele>
        <time>2019-09-01T07:51:04Z</time>
      </trkpt>
      <trkpt lat="43.31319" lon="-0.61474">
        <ele>153.95</ele>
        <time>2019-09-01T07:51:32Z</time>
      </trkpt>
      <trkpt lat="43.31316" lon="-0.61472">
        <ele>155.39</ele>
        <time>2019-09-01T07:51:53Z</time>
      </trkpt>
      <trkpt lat="43.31319" lon="-0.61472">
        <ele>155.87</ele>
        <time>2019-09-01T07:52:15Z</time>
      </trkpt>
      <trkpt lat="43.31322" lon="-0.61472">
        <ele>156.83</ele>
        <time>2019-09-01T07:52:41Z</time>
      </trkpt>
      <trkpt lat="43.3132" lon="-0.61472">
        <ele>155.39</ele>
        <time>2019-09-01T07:52:59Z</time>
      </trkpt>
      <trkpt lat="43.31316" lon="-0.61473">
        <ele>156.35</ele>
        <time>2019-09-01T07:53:25Z</time>
      </trkpt>
      <trkpt lat="43.31317" lon="-0.61472">
        <ele>155.39</ele>
        <time>2019-09-01T07:53:45Z</time>
      </trkpt>
      <trkpt lat="43.31317" lon="-0.61471">
        <ele>155.39</ele>
        <time>2019-09-01T07:53:46Z</time>
      </trkpt>
      <trkpt lat="43.31317" lon="-0.61469">
        <ele>155.39</ele>
        <time>2019-09-01T07:53:47Z</time>
      </trkpt>
      <trkpt lat="43.31315" lon="-0.61466">
        <ele>154.91</ele>
        <time>2019-09-01T07:53:48Z</time>
      </trkpt>
      <trkpt lat="43.31313" lon="-0.61462">
        <ele>154.91</ele>
        <time>2019-09-01T07:53:49Z</time>
      </trkpt>
      <trkpt lat="43.31301" lon="-0.61443">
        <ele>154.91</ele>
        <time>2019-09-01T07:53:53Z</time>
      </trkpt>
      <trkpt lat="43.31299" lon="-0.61437">
        <ele>154.43</ele>
        <time>2019-09-01T07:53:54Z</time>
      </trkpt>
      <trkpt lat="43.31297" lon="-0.6143">
        <ele>154.43</ele>
        <time>2019-09-01T07:53:55Z</time>
      </trkpt>
      <trkpt lat="43.31296" lon="-0.61423">
        <ele>154.43</ele>
        <time>2019-09-01T07:53:56Z</time>
      </trkpt>
      <trkpt lat="43.31294" lon="-0.61416">
        <ele>153.95</ele>
        <time>2019-09-01T07:53:57Z</time>
      </trkpt>
      <trkpt lat="43.31278" lon="-0.61272">
        <ele>149.14</ele>
        <time>2019-09-01T07:54:15Z</time>
      </trkpt>
      <trkpt lat="43.31261" lon="-0.61124">
        <ele>145.3</ele>
        <time>2019-09-01T07:54:33Z</time>
      </trkpt>
      <trkpt lat="43.31242" lon="-0.60992">
        <ele>140.97</ele>
        <time>2019-09-01T07:54:48Z</time>
      </trkpt>
      <trkpt lat="43.31222" lon="-0.60884">
        <ele>132.8</ele>
        <time>2019-09-01T07:54:57Z</time>
      </trkpt>
      <trkpt lat="43.3122" lon="-0.60877">
        <ele>132.32</ele>
        <time>2019-09-01T07:54:58Z</time>
      </trkpt>
      <trkpt lat="43.31217" lon="-0.60871">
        <ele>132.32</ele>
        <time>2019-09-01T07:54:59Z</time>
      </trkpt>
      <trkpt lat="43.31213" lon="-0.60867">
        <ele>131.84</ele>
        <time>2019-09-01T07:55:00Z</time>
      </trkpt>
      <trkpt lat="43.31208" lon="-0.60865">
        <ele>131.84</ele>
        <time>2019-09-01T07:55:01Z</time>
      </trkpt>
      <trkpt lat="43.31204" lon="-0.60866">
        <ele>131.84</ele>
        <time>2019-09-01T07:55:02Z</time>
      </trkpt>
      <trkpt lat="43.31199" lon="-0.60868">
        <ele>131.84</ele>
        <time>2019-09-01T07:55:03Z</time>
      </trkpt>
      <trkpt lat="43.31194" lon="-0.60871">
        <ele>131.84</ele>
        <time>2019-09-01T07:55:04Z</time>
      </trkpt>
      <trkpt lat="43.31189" lon="-0.60873">
        <ele>132.32</ele>
        <time>2019-09-01T07:55:05Z</time>
      </trkpt>
      <trkpt lat="43.31099" lon="-0.60908">
        <ele>131.84</ele>
        <time>2019-09-01T07:55:21Z</time>
      </trkpt>
      <trkpt lat="43.31011" lon="-0.60947">
        <ele>132.8</ele>
        <time>2019-09-01T07:55:37Z</time>
      </trkpt>
      <trkpt lat="43.31006" lon="-0.60949">
        <ele>132.8</ele>
        <time>2019-09-01T07:55:38Z</time>
      </trkpt>
      <trkpt lat="43.31001" lon="-0.60949">
        <ele>133.28</ele>
        <time>2019-09-01T07:55:39Z</time>
      </trkpt>
      <trkpt lat="43.30996" lon="-0.60945">
        <ele>133.28</ele>
        <time>2019-09-01T07:55:40Z</time>
      </trkpt>
      <trkpt lat="43.30994" lon="-0.60941">
        <ele>133.28</ele>
        <time>2019-09-01T07:55:41Z</time>
      </trkpt>
      <trkpt lat="43.30992" lon="-0.60934">
        <ele>133.76</ele>
        <time>2019-09-01T07:55:42Z</time>
      </trkpt>
      <trkpt lat="43.30991" lon="-0.60929">
        <ele>133.76</ele>
        <time>2019-09-01T07:55:43Z</time>
      </trkpt>
      <trkpt lat="43.3099" lon="-0.60923">
        <ele>134.24</ele>
        <time>2019-09-01T07:55:44Z</time>
      </trkpt>
      <trkpt lat="43.30977" lon="-0.60855">
        <ele>133.76</ele>
        <time>2019-09-01T07:55:55Z</time>
      </trkpt>
      <trkpt lat="43.30973" lon="-0.60849">
        <ele>133.28</ele>
        <time>2019-09-01T07:55:56Z</time>
      </trkpt>
      <trkpt lat="43.30969" lon="-0.60844">
        <ele>133.28</ele>
        <time>2019-09-01T07:55:57Z</time>
      </trkpt>
      <trkpt lat="43.30965" lon="-0.60841">
        <ele>133.28</ele>
        <time>2019-09-01T07:55:58Z</time>
      </trkpt>
      <trkpt lat="43.3096" lon="-0.60839">
        <ele>133.28</ele>
        <time>2019-09-01T07:55:59Z</time>
      </trkpt>
      <trkpt lat="43.30955" lon="-0.60836">
        <ele>133.28</ele>
        <time>2019-09-01T07:56:00Z</time>
      </trkpt>
      <trkpt lat="43.30879" lon="-0.60807">
        <ele>134.72</ele>
        <time>2019-09-01T07:56:15Z</time>
      </trkpt>
      <trkpt lat="43.30875" lon="-0.60802">
        <ele>134.72</ele>
        <time>2019-09-01T07:56:16Z</time>
      </trkpt>
      <trkpt lat="43.30871" lon="-0.60797">
        <ele>134.72</ele>
        <time>2019-09-01T07:56:17Z</time>
      </trkpt>
      <trkpt lat="43.30867" lon="-0.60791">
        <ele>134.72</ele>
        <time>2019-09-01T07:56:18Z</time>
      </trkpt>
      <trkpt lat="43.30864" lon="-0.60784">
        <ele>134.72</ele>
        <time>2019-09-01T07:56:19Z</time>
      </trkpt>
      <trkpt lat="43.30861" lon="-0.60778">
        <ele>134.72</ele>
        <time>2019-09-01T07:56:20Z</time>
      </trkpt>
      <trkpt lat="43.30858" lon="-0.60771">
        <ele>134.72</ele>
        <time>2019-09-01T07:56:21Z</time>
      </trkpt>
      <trkpt lat="43.30856" lon="-0.60764">
        <ele>134.72</ele>
        <time>2019-09-01T07:56:22Z</time>
      </trkpt>
      <trkpt lat="43.30838" lon="-0.60661">
        <ele>136.64</ele>
        <time>2019-09-01T07:56:38Z</time>
      </trkpt>
      <trkpt lat="43.30835" lon="-0.60629">
        <ele>137.61</ele>
        <time>2019-09-01T07:56:44Z</time>
      </trkpt>
      <trkpt lat="43.30827" lon="-0.60567">
        <ele>138.57</ele>
        <time>2019-09-01T07:56:57Z</time>
      </trkpt>
      <trkpt lat="43.3083" lon="-0.60564">
        <ele>139.05</ele>
        <time>2019-09-01T07:56:58Z</time>
      </trkpt>
      <trkpt lat="43.30833" lon="-0.60563">
        <ele>138.57</ele>
        <time>2019-09-01T07:56:59Z</time>
      </trkpt>
      <trkpt lat="43.30836" lon="-0.60561">
        <ele>138.57</ele>
        <time>2019-09-01T07:57:00Z</time>
      </trkpt>
      <trkpt lat="43.3084" lon="-0.60561">
        <ele>138.09</ele>
        <time>2019-09-01T07:57:01Z</time>
      </trkpt>
      <trkpt lat="43.30843" lon="-0.60559">
        <ele>137.61</ele>
        <time>2019-09-01T07:57:02Z</time>
      </trkpt>
      <trkpt lat="43.30846" lon="-0.60556">
        <ele>137.61</ele>
        <time>2019-09-01T07:57:03Z</time>
      </trkpt>
      <trkpt lat="43.30854" lon="-0.60552">
        <ele>137.61</ele>
        <time>2019-09-01T07:57:06Z</time>
      </trkpt>
      <trkpt lat="43.30862" lon="-0.60554">
        <ele>137.13</ele>
        <time>2019-09-01T07:57:08Z</time>
      </trkpt>
      <trkpt lat="43.30866" lon="-0.60554">
        <ele>137.13</ele>
        <time>2019-09-01T07:57:09Z</time>
      </trkpt>
      <trkpt lat="43.30871" lon="-0.60554">
        <ele>137.13</ele>
        <time>2019-09-01T07:57:10Z</time>
      </trkpt>
      <trkpt lat="43.30875" lon="-0.60554">
        <ele>136.64</ele>
        <time>2019-09-01T07:57:11Z</time>
      </trkpt>
      <trkpt lat="43.30879" lon="-0.60554">
        <ele>136.64</ele>
        <time>2019-09-01T07:57:12Z</time>
      </trkpt>
      <trkpt lat="43.30884" lon="-0.60553">
        <ele>136.16</ele>
        <time>2019-09-01T07:57:13Z</time>
      </trkpt>
      <trkpt lat="43.30954" lon="-0.60541">
        <ele>136.16</ele>
        <time>2019-09-01T07:57:28Z</time>
      </trkpt>
      <trkpt lat="43.30959" lon="-0.60539">
        <ele>136.16</ele>
        <time>2019-09-01T07:57:29Z</time>
      </trkpt>
      <trkpt lat="43.30963" lon="-0.60537">
        <ele>136.16</ele>
        <time>2019-09-01T07:57:30Z</time>
      </trkpt>
      <trkpt lat="43.30971" lon="-0.60532">
        <ele>138.57</ele>
        <time>2019-09-01T07:57:38Z</time>
      </trkpt>
      <trkpt lat="43.30977" lon="-0.60524">
        <ele>139.53</ele>
        <time>2019-09-01T07:57:49Z</time>
      </trkpt>
      <trkpt lat="43.30995" lon="-0.605">
        <ele>142.89</ele>
        <time>2019-09-01T07:58:03Z</time>
      </trkpt>
      <trkpt lat="43.30998" lon="-0.60492">
        <ele>143.37</ele>
        <time>2019-09-01T07:58:06Z</time>
      </trkpt>
      <trkpt lat="43.30999" lon="-0.60491">
        <ele>143.85</ele>
        <time>2019-09-01T07:58:07Z</time>
      </trkpt>
      <trkpt lat="43.31" lon="-0.60469">
        <ele>147.7</ele>
        <time>2019-09-01T07:58:20Z</time>
      </trkpt>
      <trkpt lat="43.31002" lon="-0.60464">
        <ele>148.18</ele>
        <time>2019-09-01T07:58:22Z</time>
      </trkpt>
      <trkpt lat="43.31003" lon="-0.60462">
        <ele>148.66</ele>
        <time>2019-09-01T07:58:23Z</time>
      </trkpt>
      <trkpt lat="43.31006" lon="-0.60448">
        <ele>149.62</ele>
        <time>2019-09-01T07:58:30Z</time>
      </trkpt>
      <trkpt lat="43.31006" lon="-0.60446">
        <ele>149.62</ele>
        <time>2019-09-01T07:58:31Z</time>
      </trkpt>
      <trkpt lat="43.31007" lon="-0.60443">
        <ele>150.1</ele>
        <time>2019-09-01T07:58:32Z</time>
      </trkpt>
      <trkpt lat="43.31014" lon="-0.60413">
        <ele>151.54</ele>
        <time>2019-09-01T07:58:43Z</time>
      </trkpt>
      <trkpt lat="43.3102" lon="-0.6038">
        <ele>152.03</ele>
        <time>2019-09-01T07:58:56Z</time>
      </trkpt>
      <trkpt lat="43.3102" lon="-0.60378">
        <ele>151.54</ele>
        <time>2019-09-01T07:58:57Z</time>
      </trkpt>
      <trkpt lat="43.31019" lon="-0.60369">
        <ele>150.1</ele>
        <time>2019-09-01T07:59:02Z</time>
      </trkpt>
      <trkpt lat="43.31019" lon="-0.60364">
        <ele>150.1</ele>
        <time>2019-09-01T07:59:04Z</time>
      </trkpt>
      <trkpt lat="43.31018" lon="-0.60344">
        <ele>148.18</ele>
        <time>2019-09-01T07:59:14Z</time>
      </trkpt>
      <trkpt lat="43.31019" lon="-0.60342">
        <ele>148.18</ele>
        <time>2019-09-01T07:59:15Z</time>
      </trkpt>
      <trkpt lat="43.31018" lon="-0.6032">
        <ele>148.18</ele>
        <time>2019-09-01T07:59:24Z</time>
      </trkpt>
      <trkpt lat="43.31017" lon="-0.60317">
        <ele>148.18</ele>
        <time>2019-09-01T07:59:25Z</time>
      </trkpt>
      <trkpt lat="43.31017" lon="-0.60315">
        <ele>148.18</ele>
        <time>2019-09-01T07:59:26Z</time>
      </trkpt>
      <trkpt lat="43.31016" lon="-0.60312">
        <ele>148.18</ele>
        <time>2019-09-01T07:59:27Z</time>
      </trkpt>
      <trkpt lat="43.31016" lon="-0.60308">
        <ele>148.66</ele>
        <time>2019-09-01T07:59:29Z</time>
      </trkpt>
      <trkpt lat="43.31016" lon="-0.60306">
        <ele>148.66</ele>
        <time>2019-09-01T07:59:30Z</time>
      </trkpt>
      <trkpt lat="43.31017" lon="-0.60304">
        <ele>148.66</ele>
        <time>2019-09-01T07:59:31Z</time>
      </trkpt>
      <trkpt lat="43.31017" lon="-0.60301">
        <ele>148.66</ele>
        <time>2019-09-01T07:59:32Z</time>
      </trkpt>
      <trkpt lat="43.31017" lon="-0.60298">
        <ele>148.66</ele>
        <time>2019-09-01T07:59:33Z</time>
      </trkpt>
      <trkpt lat="43.31018" lon="-0.60295">
        <ele>148.66</ele>
        <time>2019-09-01T07:59:34Z</time>
      </trkpt>
      <trkpt lat="43.31019" lon="-0.60292">
        <ele>148.66</ele>
        <time>2019-09-01T07:59:35Z</time>
      </trkpt>
      <trkpt lat="43.31019" lon="-0.60288">
        <ele>148.66</ele>
        <time>2019-09-01T07:59:36Z</time>
      </trkpt>
      <trkpt lat="43.3102" lon="-0.60285">
        <ele>148.66</ele>
        <time>2019-09-01T07:59:37Z</time>
      </trkpt>
      <trkpt lat="43.31022" lon="-0.60261">
        <ele>151.06</ele>
        <time>2019-09-01T07:59:46Z</time>
      </trkpt>
      <trkpt lat="43.31022" lon="-0.60256">
        <ele>151.06</ele>
        <time>2019-09-01T07:59:48Z</time>
      </trkpt>
      <trkpt lat="43.31023" lon="-0.60254">
        <ele>151.54</ele>
        <time>2019-09-01T07:59:49Z</time>
      </trkpt>
      <trkpt lat="43.31023" lon="-0.60251">
        <ele>151.54</ele>
        <time>2019-09-01T07:59:50Z</time>
      </trkpt>
      <trkpt lat="43.31024" lon="-0.6024">
        <ele>152.03</ele>
        <time>2019-09-01T07:59:55Z</time>
      </trkpt>
      <trkpt lat="43.31025" lon="-0.6023">
        <ele>152.51</ele>
        <time>2019-09-01T08:00:00Z</time>
      </trkpt>
      <trkpt lat="43.31024" lon="-0.60226">
        <ele>152.51</ele>
        <time>2019-09-01T08:00:02Z</time>
      </trkpt>
      <trkpt lat="43.31023" lon="-0.60198">
        <ele>153.95</ele>
        <time>2019-09-01T08:00:15Z</time>
      </trkpt>
      <trkpt lat="43.31023" lon="-0.60185">
        <ele>155.87</ele>
        <time>2019-09-01T08:00:20Z</time>
      </trkpt>
      <trkpt lat="43.3102" lon="-0.60159">
        <ele>160.2</ele>
        <time>2019-09-01T08:00:31Z</time>
      </trkpt>
      <trkpt lat="43.31021" lon="-0.60143">
        <ele>162.6</ele>
        <time>2019-09-01T08:00:38Z</time>
      </trkpt>
      <trkpt lat="43.31019" lon="-0.60132">
        <ele>164.52</ele>
        <time>2019-09-01T08:00:43Z</time>
      </trkpt>
      <trkpt lat="43.31018" lon="-0.60129">
        <ele>164.52</ele>
        <time>2019-09-01T08:00:45Z</time>
      </trkpt>
      <trkpt lat="43.31014" lon="-0.60115">
        <ele>165</ele>
        <time>2019-09-01T08:00:52Z</time>
      </trkpt>
      <trkpt lat="43.31012" lon="-0.60107">
        <ele>165.48</ele>
        <time>2019-09-01T08:00:56Z</time>
      </trkpt>
      <trkpt lat="43.3101" lon="-0.60102">
        <ele>166.45</ele>
        <time>2019-09-01T08:00:58Z</time>
      </trkpt>
      <trkpt lat="43.31007" lon="-0.60096">
        <ele>168.85</ele>
        <time>2019-09-01T08:01:01Z</time>
      </trkpt>
      <trkpt lat="43.31004" lon="-0.60085">
        <ele>169.81</ele>
        <time>2019-09-01T08:01:06Z</time>
      </trkpt>
      <trkpt lat="43.31003" lon="-0.6007">
        <ele>170.29</ele>
        <time>2019-09-01T08:01:12Z</time>
      </trkpt>
      <trkpt lat="43.31001" lon="-0.60059">
        <ele>170.29</ele>
        <time>2019-09-01T08:01:16Z</time>
      </trkpt>
      <trkpt lat="43.30996" lon="-0.60036">
        <ele>171.25</ele>
        <time>2019-09-01T08:01:26Z</time>
      </trkpt>
      <trkpt lat="43.3099" lon="-0.60025">
        <ele>173.17</ele>
        <time>2019-09-01T08:01:32Z</time>
      </trkpt>
      <trkpt lat="43.30987" lon="-0.60016">
        <ele>175.58</ele>
        <time>2019-09-01T08:01:37Z</time>
      </trkpt>
      <trkpt lat="43.30987" lon="-0.60012">
        <ele>176.06</ele>
        <time>2019-09-01T08:01:39Z</time>
      </trkpt>
      <trkpt lat="43.30979" lon="-0.59994">
        <ele>178.94</ele>
        <time>2019-09-01T08:01:50Z</time>
      </trkpt>
      <trkpt lat="43.30978" lon="-0.59977">
        <ele>179.9</ele>
        <time>2019-09-01T08:01:56Z</time>
      </trkpt>
      <trkpt lat="43.3098" lon="-0.59971">
        <ele>179.9</ele>
        <time>2019-09-01T08:01:59Z</time>
      </trkpt>
      <trkpt lat="43.30977" lon="-0.59959">
        <ele>181.35</ele>
        <time>2019-09-01T08:02:05Z</time>
      </trkpt>
      <trkpt lat="43.30967" lon="-0.59931">
        <ele>185.67</ele>
        <time>2019-09-01T08:02:19Z</time>
      </trkpt>
      <trkpt lat="43.30963" lon="-0.59922">
        <ele>187.59</ele>
        <time>2019-09-01T08:02:24Z</time>
      </trkpt>
      <trkpt lat="43.30954" lon="-0.59907">
        <ele>189.04</ele>
        <time>2019-09-01T08:02:33Z</time>
      </trkpt>
      <trkpt lat="43.30938" lon="-0.59888">
        <ele>195.28</ele>
        <time>2019-09-01T08:02:47Z</time>
      </trkpt>
      <trkpt lat="43.30921" lon="-0.59875">
        <ele>198.65</ele>
        <time>2019-09-01T08:03:02Z</time>
      </trkpt>
      <trkpt lat="43.30905" lon="-0.59869">
        <ele>202.98</ele>
        <time>2019-09-01T08:03:15Z</time>
      </trkpt>
      <trkpt lat="43.30902" lon="-0.59862">
        <ele>205.86</ele>
        <time>2019-09-01T08:03:20Z</time>
      </trkpt>
      <trkpt lat="43.30899" lon="-0.59839">
        <ele>207.3</ele>
        <time>2019-09-01T08:03:32Z</time>
      </trkpt>
      <trkpt lat="43.30894" lon="-0.59835">
        <ele>206.82</ele>
        <time>2019-09-01T08:03:37Z</time>
      </trkpt>
      <trkpt lat="43.30886" lon="-0.5983">
        <ele>210.67</ele>
        <time>2019-09-01T08:03:50Z</time>
      </trkpt>
      <trkpt lat="43.30883" lon="-0.59828">
        <ele>214.99</ele>
        <time>2019-09-01T08:04:06Z</time>
      </trkpt>
      <trkpt lat="43.30874" lon="-0.59825">
        <ele>214.03</ele>
        <time>2019-09-01T08:04:24Z</time>
      </trkpt>
      <trkpt lat="43.30858" lon="-0.59813">
        <ele>215.95</ele>
        <time>2019-09-01T08:04:43Z</time>
      </trkpt>
      <trkpt lat="43.30856" lon="-0.59811">
        <ele>216.43</ele>
        <time>2019-09-01T08:04:46Z</time>
      </trkpt>
      <trkpt lat="43.3085" lon="-0.59809">
        <ele>216.91</ele>
        <time>2019-09-01T08:04:54Z</time>
      </trkpt>
      <trkpt lat="43.30841" lon="-0.59803">
        <ele>217.4</ele>
        <time>2019-09-01T08:05:05Z</time>
      </trkpt>
      <trkpt lat="43.30829" lon="-0.59795">
        <ele>217.4</ele>
        <time>2019-09-01T08:05:19Z</time>
      </trkpt>
      <trkpt lat="43.30824" lon="-0.59787">
        <ele>216.91</ele>
        <time>2019-09-01T08:05:26Z</time>
      </trkpt>
      <trkpt lat="43.30821" lon="-0.5978">
        <ele>217.4</ele>
        <time>2019-09-01T08:05:38Z</time>
      </trkpt>
      <trkpt lat="43.30817" lon="-0.59776">
        <ele>217.88</ele>
        <time>2019-09-01T08:05:42Z</time>
      </trkpt>
      <trkpt lat="43.30806" lon="-0.59756">
        <ele>218.84</ele>
        <time>2019-09-01T08:05:58Z</time>
      </trkpt>
      <trkpt lat="43.30804" lon="-0.59752">
        <ele>218.84</ele>
        <time>2019-09-01T08:06:01Z</time>
      </trkpt>
      <trkpt lat="43.30799" lon="-0.59745">
        <ele>220.28</ele>
        <time>2019-09-01T08:06:07Z</time>
      </trkpt>
      <trkpt lat="43.30798" lon="-0.59743">
        <ele>220.76</ele>
        <time>2019-09-01T08:06:09Z</time>
      </trkpt>
      <trkpt lat="43.30796" lon="-0.59741">
        <ele>220.76</ele>
        <time>2019-09-01T08:06:11Z</time>
      </trkpt>
      <trkpt lat="43.30796" lon="-0.59727">
        <ele>222.2</ele>
        <time>2019-09-01T08:06:20Z</time>
      </trkpt>
      <trkpt lat="43.30826" lon="-0.59694">
        <ele>222.2</ele>
        <time>2019-09-01T08:06:35Z</time>
      </trkpt>
      <trkpt lat="43.3085" lon="-0.59671">
        <ele>222.68</ele>
        <time>2019-09-01T08:06:48Z</time>
      </trkpt>
      <trkpt lat="43.30871" lon="-0.59658">
        <ele>224.12</ele>
        <time>2019-09-01T08:07:01Z</time>
      </trkpt>
      <trkpt lat="43.30881" lon="-0.59656">
        <ele>225.57</ele>
        <time>2019-09-01T08:07:07Z</time>
      </trkpt>
      <trkpt lat="43.30906" lon="-0.59648">
        <ele>229.41</ele>
        <time>2019-09-01T08:07:19Z</time>
      </trkpt>
      <trkpt lat="43.30942" lon="-0.5964">
        <ele>229.41</ele>
        <time>2019-09-01T08:07:35Z</time>
      </trkpt>
      <trkpt lat="43.3097" lon="-0.59619">
        <ele>225.57</ele>
        <time>2019-09-01T08:07:47Z</time>
      </trkpt>
      <trkpt lat="43.30982" lon="-0.59615">
        <ele>222.68</ele>
        <time>2019-09-01T08:07:51Z</time>
      </trkpt>
      <trkpt lat="43.30996" lon="-0.59614">
        <ele>220.76</ele>
        <time>2019-09-01T08:07:54Z</time>
      </trkpt>
      <trkpt lat="43.31032" lon="-0.59603">
        <ele>217.4</ele>
        <time>2019-09-01T08:08:00Z</time>
      </trkpt>
      <trkpt lat="43.31046" lon="-0.596">
        <ele>216.91</ele>
        <time>2019-09-01T08:08:02Z</time>
      </trkpt>
      <trkpt lat="43.31065" lon="-0.59594">
        <ele>216.43</ele>
        <time>2019-09-01T08:08:05Z</time>
      </trkpt>
      <trkpt lat="43.31083" lon="-0.59588">
        <ele>216.43</ele>
        <time>2019-09-01T08:08:08Z</time>
      </trkpt>
      <trkpt lat="43.31107" lon="-0.59586">
        <ele>216.43</ele>
        <time>2019-09-01T08:08:13Z</time>
      </trkpt>
      <trkpt lat="43.31179" lon="-0.59585">
        <ele>213.07</ele>
        <time>2019-09-01T08:08:26Z</time>
      </trkpt>
      <trkpt lat="43.31214" lon="-0.59589">
        <ele>209.7</ele>
        <time>2019-09-01T08:08:33Z</time>
      </trkpt>
      <trkpt lat="43.31241" lon="-0.59589">
        <ele>208.74</ele>
        <time>2019-09-01T08:08:46Z</time>
      </trkpt>
      <trkpt lat="43.31277" lon="-0.59598">
        <ele>206.34</ele>
        <time>2019-09-01T08:08:58Z</time>
      </trkpt>
      <trkpt lat="43.31327" lon="-0.59618">
        <ele>201.53</ele>
        <time>2019-09-01T08:09:11Z</time>
      </trkpt>
      <trkpt lat="43.31338" lon="-0.5961">
        <ele>198.65</ele>
        <time>2019-09-01T08:09:15Z</time>
      </trkpt>
      <trkpt lat="43.31339" lon="-0.59584">
        <ele>195.28</ele>
        <time>2019-09-01T08:09:19Z</time>
      </trkpt>
      <trkpt lat="43.31341" lon="-0.59552">
        <ele>191.92</ele>
        <time>2019-09-01T08:09:24Z</time>
      </trkpt>
      <trkpt lat="43.31343" lon="-0.59538">
        <ele>190.48</ele>
        <time>2019-09-01T08:09:26Z</time>
      </trkpt>
      <trkpt lat="43.31347" lon="-0.59524">
        <ele>188.08</ele>
        <time>2019-09-01T08:09:28Z</time>
      </trkpt>
      <trkpt lat="43.31355" lon="-0.59507">
        <ele>184.71</ele>
        <time>2019-09-01T08:09:32Z</time>
      </trkpt>
      <trkpt lat="43.31361" lon="-0.59451">
        <ele>172.69</ele>
        <time>2019-09-01T08:09:44Z</time>
      </trkpt>
      <trkpt lat="43.31366" lon="-0.59401">
        <ele>158.75</ele>
        <time>2019-09-01T08:09:57Z</time>
      </trkpt>
      <trkpt lat="43.3137" lon="-0.59398">
        <ele>155.87</ele>
        <time>2019-09-01T08:10:01Z</time>
      </trkpt>
      <trkpt lat="43.31376" lon="-0.59401">
        <ele>154.43</ele>
        <time>2019-09-01T08:10:04Z</time>
      </trkpt>
      <trkpt lat="43.31376" lon="-0.59379">
        <ele>152.03</ele>
        <time>2019-09-01T08:10:11Z</time>
      </trkpt>
      <trkpt lat="43.31362" lon="-0.59356">
        <ele>148.18</ele>
        <time>2019-09-01T08:10:22Z</time>
      </trkpt>
      <trkpt lat="43.31359" lon="-0.59355">
        <ele>146.26</ele>
        <time>2019-09-01T08:10:28Z</time>
      </trkpt>
      <trkpt lat="43.31354" lon="-0.59345">
        <ele>149.62</ele>
        <time>2019-09-01T08:10:39Z</time>
      </trkpt>
      <trkpt lat="43.31354" lon="-0.59344">
        <ele>149.62</ele>
        <time>2019-09-01T08:10:40Z</time>
      </trkpt>
      <trkpt lat="43.31366" lon="-0.59331">
        <ele>154.43</ele>
        <time>2019-09-01T08:10:49Z</time>
      </trkpt>
      <trkpt lat="43.31368" lon="-0.59331">
        <ele>154.91</ele>
        <time>2019-09-01T08:10:50Z</time>
      </trkpt>
      <trkpt lat="43.31394" lon="-0.59339">
        <ele>158.27</ele>
        <time>2019-09-01T08:11:03Z</time>
      </trkpt>
      <trkpt lat="43.31419" lon="-0.59347">
        <ele>160.2</ele>
        <time>2019-09-01T08:11:15Z</time>
      </trkpt>
      <trkpt lat="43.31425" lon="-0.59346">
        <ele>159.24</ele>
        <time>2019-09-01T08:11:19Z</time>
      </trkpt>
      <trkpt lat="43.31427" lon="-0.59345">
        <ele>159.72</ele>
        <time>2019-09-01T08:11:20Z</time>
      </trkpt>
      <trkpt lat="43.31428" lon="-0.59344">
        <ele>159.72</ele>
        <time>2019-09-01T08:11:21Z</time>
      </trkpt>
      <trkpt lat="43.3144" lon="-0.59336">
        <ele>163.08</ele>
        <time>2019-09-01T08:11:30Z</time>
      </trkpt>
      <trkpt lat="43.31442" lon="-0.59336">
        <ele>163.56</ele>
        <time>2019-09-01T08:11:31Z</time>
      </trkpt>
      <trkpt lat="43.31444" lon="-0.59335">
        <ele>163.56</ele>
        <time>2019-09-01T08:11:32Z</time>
      </trkpt>
      <trkpt lat="43.31446" lon="-0.59334">
        <ele>164.04</ele>
        <time>2019-09-01T08:11:33Z</time>
      </trkpt>
      <trkpt lat="43.31448" lon="-0.59333">
        <ele>164.04</ele>
        <time>2019-09-01T08:11:34Z</time>
      </trkpt>
      <trkpt lat="43.3145" lon="-0.59333">
        <ele>164.52</ele>
        <time>2019-09-01T08:11:35Z</time>
      </trkpt>
      <trkpt lat="43.31452" lon="-0.59333">
        <ele>164.52</ele>
        <time>2019-09-01T08:11:36Z</time>
      </trkpt>
      <trkpt lat="43.31454" lon="-0.59333">
        <ele>165</ele>
        <time>2019-09-01T08:11:37Z</time>
      </trkpt>
      <trkpt lat="43.31484" lon="-0.59348">
        <ele>166.93</ele>
        <time>2019-09-01T08:11:49Z</time>
      </trkpt>
      <trkpt lat="43.31485" lon="-0.59349">
        <ele>166.93</ele>
        <time>2019-09-01T08:11:50Z</time>
      </trkpt>
      <trkpt lat="43.31488" lon="-0.59351">
        <ele>167.41</ele>
        <time>2019-09-01T08:11:51Z</time>
      </trkpt>
      <trkpt lat="43.3149" lon="-0.59354">
        <ele>167.89</ele>
        <time>2019-09-01T08:11:52Z</time>
      </trkpt>
      <trkpt lat="43.31492" lon="-0.59356">
        <ele>167.89</ele>
        <time>2019-09-01T08:11:53Z</time>
      </trkpt>
      <trkpt lat="43.31512" lon="-0.59376">
        <ele>172.69</ele>
        <time>2019-09-01T08:12:03Z</time>
      </trkpt>
      <trkpt lat="43.31518" lon="-0.5938">
        <ele>175.58</ele>
        <time>2019-09-01T08:12:06Z</time>
      </trkpt>
      <trkpt lat="43.31555" lon="-0.59421">
        <ele>181.83</ele>
        <time>2019-09-01T08:12:18Z</time>
      </trkpt>
      <trkpt lat="43.31599" lon="-0.5946">
        <ele>180.38</ele>
        <time>2019-09-01T08:12:27Z</time>
      </trkpt>
      <trkpt lat="43.31632" lon="-0.59494">
        <ele>176.06</ele>
        <time>2019-09-01T08:12:37Z</time>
      </trkpt>
      <trkpt lat="43.31633" lon="-0.59496">
        <ele>175.58</ele>
        <time>2019-09-01T08:12:38Z</time>
      </trkpt>
      <trkpt lat="43.31641" lon="-0.59507">
        <ele>175.1</ele>
        <time>2019-09-01T08:12:41Z</time>
      </trkpt>
      <trkpt lat="43.31666" lon="-0.5953">
        <ele>172.69</ele>
        <time>2019-09-01T08:12:46Z</time>
      </trkpt>
      <trkpt lat="43.31671" lon="-0.59536">
        <ele>171.73</ele>
        <time>2019-09-01T08:12:47Z</time>
      </trkpt>
      <trkpt lat="43.31677" lon="-0.59541">
        <ele>170.77</ele>
        <time>2019-09-01T08:12:48Z</time>
      </trkpt>
      <trkpt lat="43.31683" lon="-0.59546">
        <ele>169.81</ele>
        <time>2019-09-01T08:12:49Z</time>
      </trkpt>
      <trkpt lat="43.31688" lon="-0.5955">
        <ele>169.33</ele>
        <time>2019-09-01T08:12:50Z</time>
      </trkpt>
      <trkpt lat="43.31693" lon="-0.59555">
        <ele>167.89</ele>
        <time>2019-09-01T08:12:51Z</time>
      </trkpt>
      <trkpt lat="43.31709" lon="-0.59569">
        <ele>165</ele>
        <time>2019-09-01T08:12:54Z</time>
      </trkpt>
      <trkpt lat="43.31781" lon="-0.5963">
        <ele>150.58</ele>
        <time>2019-09-01T08:13:09Z</time>
      </trkpt>
      <trkpt lat="43.31812" lon="-0.59655">
        <ele>147.22</ele>
        <time>2019-09-01T08:13:17Z</time>
      </trkpt>
      <trkpt lat="43.31816" lon="-0.59658">
        <ele>147.22</ele>
        <time>2019-09-01T08:13:18Z</time>
      </trkpt>
      <trkpt lat="43.31819" lon="-0.5966">
        <ele>147.22</ele>
        <time>2019-09-01T08:13:19Z</time>
      </trkpt>
      <trkpt lat="43.31851" lon="-0.59689">
        <ele>144.34</ele>
        <time>2019-09-01T08:13:32Z</time>
      </trkpt>
      <trkpt lat="43.31881" lon="-0.59706">
        <ele>145.78</ele>
        <time>2019-09-01T08:13:45Z</time>
      </trkpt>
      <trkpt lat="43.3191" lon="-0.59714">
        <ele>150.1</ele>
        <time>2019-09-01T08:13:59Z</time>
      </trkpt>
      <trkpt lat="43.31941" lon="-0.59726">
        <ele>155.87</ele>
        <time>2019-09-01T08:14:14Z</time>
      </trkpt>
      <trkpt lat="43.31959" lon="-0.59735">
        <ele>158.75</ele>
        <time>2019-09-01T08:14:28Z</time>
      </trkpt>
      <trkpt lat="43.31969" lon="-0.59747">
        <ele>157.31</ele>
        <time>2019-09-01T08:14:38Z</time>
      </trkpt>
      <trkpt lat="43.31971" lon="-0.59751">
        <ele>156.83</ele>
        <time>2019-09-01T08:14:39Z</time>
      </trkpt>
      <trkpt lat="43.32004" lon="-0.59803">
        <ele>151.54</ele>
        <time>2019-09-01T08:14:46Z</time>
      </trkpt>
      <trkpt lat="43.32008" lon="-0.59816">
        <ele>150.58</ele>
        <time>2019-09-01T08:14:47Z</time>
      </trkpt>
      <trkpt lat="43.3201" lon="-0.59829">
        <ele>149.14</ele>
        <time>2019-09-01T08:14:48Z</time>
      </trkpt>
      <trkpt lat="43.32014" lon="-0.59874">
        <ele>145.78</ele>
        <time>2019-09-01T08:14:51Z</time>
      </trkpt>
      <trkpt lat="43.32018" lon="-0.5989">
        <ele>144.34</ele>
        <time>2019-09-01T08:14:52Z</time>
      </trkpt>
      <trkpt lat="43.32064" lon="-0.60058">
        <ele>132.32</ele>
        <time>2019-09-01T08:15:02Z</time>
      </trkpt>
      <trkpt lat="43.32079" lon="-0.60153">
        <ele>127.99</ele>
        <time>2019-09-01T08:15:10Z</time>
      </trkpt>
      <trkpt lat="43.32081" lon="-0.60159">
        <ele>127.99</ele>
        <time>2019-09-01T08:15:11Z</time>
      </trkpt>
      <trkpt lat="43.32084" lon="-0.60163">
        <ele>127.51</ele>
        <time>2019-09-01T08:15:12Z</time>
      </trkpt>
      <trkpt lat="43.32088" lon="-0.60164">
        <ele>127.51</ele>
        <time>2019-09-01T08:15:13Z</time>
      </trkpt>
      <trkpt lat="43.32091" lon="-0.60162">
        <ele>127.51</ele>
        <time>2019-09-01T08:15:14Z</time>
      </trkpt>
      <trkpt lat="43.32093" lon="-0.6016">
        <ele>127.51</ele>
        <time>2019-09-01T08:15:15Z</time>
      </trkpt>
      <trkpt lat="43.32096" lon="-0.60157">
        <ele>127.99</ele>
        <time>2019-09-01T08:15:16Z</time>
      </trkpt>
      <trkpt lat="43.32122" lon="-0.60116">
        <ele>130.4</ele>
        <time>2019-09-01T08:15:29Z</time>
      </trkpt>
      <trkpt lat="43.32127" lon="-0.60116">
        <ele>130.88</ele>
        <time>2019-09-01T08:15:31Z</time>
      </trkpt>
      <trkpt lat="43.32164" lon="-0.60147">
        <ele>128.47</ele>
        <time>2019-09-01T08:15:41Z</time>
      </trkpt>
      <trkpt lat="43.3225" lon="-0.60224">
        <ele>125.11</ele>
        <time>2019-09-01T08:16:00Z</time>
      </trkpt>
      <trkpt lat="43.32314" lon="-0.60269">
        <ele>122.22</ele>
        <time>2019-09-01T08:16:14Z</time>
      </trkpt>
      <trkpt lat="43.32342" lon="-0.60277">
        <ele>122.22</ele>
        <time>2019-09-01T08:16:20Z</time>
      </trkpt>
      <trkpt lat="43.32409" lon="-0.60288">
        <ele>121.26</ele>
        <time>2019-09-01T08:16:36Z</time>
      </trkpt>
      <trkpt lat="43.32415" lon="-0.60293">
        <ele>120.78</ele>
        <time>2019-09-01T08:16:39Z</time>
      </trkpt>
      <trkpt lat="43.32416" lon="-0.60296">
        <ele>120.78</ele>
        <time>2019-09-01T08:16:40Z</time>
      </trkpt>
      <trkpt lat="43.32418" lon="-0.60299">
        <ele>120.78</ele>
        <time>2019-09-01T08:16:41Z</time>
      </trkpt>
      <trkpt lat="43.32421" lon="-0.60301">
        <ele>120.78</ele>
        <time>2019-09-01T08:16:42Z</time>
      </trkpt>
      <trkpt lat="43.32425" lon="-0.60303">
        <ele>120.3</ele>
        <time>2019-09-01T08:16:43Z</time>
      </trkpt>
      <trkpt lat="43.32429" lon="-0.60303">
        <ele>119.82</ele>
        <time>2019-09-01T08:16:44Z</time>
      </trkpt>
      <trkpt lat="43.32434" lon="-0.60303">
        <ele>119.82</ele>
        <time>2019-09-01T08:16:45Z</time>
      </trkpt>
      <trkpt lat="43.32438" lon="-0.60302">
        <ele>119.34</ele>
        <time>2019-09-01T08:16:46Z</time>
      </trkpt>
      <trkpt lat="43.32442" lon="-0.60301">
        <ele>119.34</ele>
        <time>2019-09-01T08:16:47Z</time>
      </trkpt>
      <trkpt lat="43.32446" lon="-0.60301">
        <ele>119.82</ele>
        <time>2019-09-01T08:16:48Z</time>
      </trkpt>
      <trkpt lat="43.3245" lon="-0.60302">
        <ele>119.82</ele>
        <time>2019-09-01T08:16:49Z</time>
      </trkpt>
      <trkpt lat="43.32458" lon="-0.60303">
        <ele>119.82</ele>
        <time>2019-09-01T08:16:51Z</time>
      </trkpt>
      <trkpt lat="43.32479" lon="-0.60299">
        <ele>119.34</ele>
        <time>2019-09-01T08:16:57Z</time>
      </trkpt>
      <trkpt lat="43.32499" lon="-0.60304">
        <ele>117.42</ele>
        <time>2019-09-01T08:17:03Z</time>
      </trkpt>
      <trkpt lat="43.32544" lon="-0.60326">
        <ele>116.94</ele>
        <time>2019-09-01T08:17:16Z</time>
      </trkpt>
      <trkpt lat="43.32582" lon="-0.60368">
        <ele>118.86</ele>
        <time>2019-09-01T08:17:29Z</time>
      </trkpt>
      <trkpt lat="43.32608" lon="-0.60437">
        <ele>121.26</ele>
        <time>2019-09-01T08:17:45Z</time>
      </trkpt>
      <trkpt lat="43.32616" lon="-0.60456">
        <ele>122.71</ele>
        <time>2019-09-01T08:17:51Z</time>
      </trkpt>
      <trkpt lat="43.32626" lon="-0.60448">
        <ele>122.71</ele>
        <time>2019-09-01T08:17:55Z</time>
      </trkpt>
      <trkpt lat="43.32656" lon="-0.60408">
        <ele>125.11</ele>
        <time>2019-09-01T08:18:07Z</time>
      </trkpt>
      <trkpt lat="43.32711" lon="-0.60381">
        <ele>125.11</ele>
        <time>2019-09-01T08:18:22Z</time>
      </trkpt>
      <trkpt lat="43.32774" lon="-0.60341">
        <ele>125.11</ele>
        <time>2019-09-01T08:18:40Z</time>
      </trkpt>
      <trkpt lat="43.32813" lon="-0.60299">
        <ele>124.15</ele>
        <time>2019-09-01T08:18:53Z</time>
      </trkpt>
      <trkpt lat="43.32836" lon="-0.60278">
        <ele>124.63</ele>
        <time>2019-09-01T08:19:00Z</time>
      </trkpt>
      <trkpt lat="43.32883" lon="-0.60274">
        <ele>127.51</ele>
        <time>2019-09-01T08:19:13Z</time>
      </trkpt>
      <trkpt lat="43.32906" lon="-0.60233">
        <ele>123.67</ele>
        <time>2019-09-01T08:19:24Z</time>
      </trkpt>
      <trkpt lat="43.32916" lon="-0.60177">
        <ele>120.78</ele>
        <time>2019-09-01T08:19:35Z</time>
      </trkpt>
      <trkpt lat="43.32923" lon="-0.60143">
        <ele>119.82</ele>
        <time>2019-09-01T08:19:44Z</time>
      </trkpt>
      <trkpt lat="43.32928" lon="-0.60137">
        <ele>117.9</ele>
        <time>2019-09-01T08:19:53Z</time>
      </trkpt>
      <trkpt lat="43.32922" lon="-0.60126">
        <ele>118.86</ele>
        <time>2019-09-01T08:20:03Z</time>
      </trkpt>
      <trkpt lat="43.3292" lon="-0.60123">
        <ele>119.82</ele>
        <time>2019-09-01T08:20:07Z</time>
      </trkpt>
      <trkpt lat="43.32921" lon="-0.60121">
        <ele>120.78</ele>
        <time>2019-09-01T08:20:09Z</time>
      </trkpt>
      <trkpt lat="43.32929" lon="-0.60109">
        <ele>124.63</ele>
        <time>2019-09-01T08:20:23Z</time>
      </trkpt>
      <trkpt lat="43.32957" lon="-0.60103">
        <ele>127.03</ele>
        <time>2019-09-01T08:20:35Z</time>
      </trkpt>
      <trkpt lat="43.32994" lon="-0.60115">
        <ele>127.51</ele>
        <time>2019-09-01T08:20:47Z</time>
      </trkpt>
      <trkpt lat="43.33024" lon="-0.6013">
        <ele>127.99</ele>
        <time>2019-09-01T08:20:57Z</time>
      </trkpt>
      <trkpt lat="43.33066" lon="-0.60133">
        <ele>127.51</ele>
        <time>2019-09-01T08:21:08Z</time>
      </trkpt>
      <trkpt lat="43.33111" lon="-0.60145">
        <ele>125.59</ele>
        <time>2019-09-01T08:21:20Z</time>
      </trkpt>
      <trkpt lat="43.33148" lon="-0.60136">
        <ele>124.15</ele>
        <time>2019-09-01T08:21:29Z</time>
      </trkpt>
      <trkpt lat="43.33194" lon="-0.60108">
        <ele>125.59</ele>
        <time>2019-09-01T08:21:41Z</time>
      </trkpt>
      <trkpt lat="43.33231" lon="-0.60066">
        <ele>127.03</ele>
        <time>2019-09-01T08:21:53Z</time>
      </trkpt>
      <trkpt lat="43.33264" lon="-0.60022">
        <ele>127.03</ele>
        <time>2019-09-01T08:22:05Z</time>
      </trkpt>
      <trkpt lat="43.33268" lon="-0.60018">
        <ele>127.03</ele>
        <time>2019-09-01T08:22:06Z</time>
      </trkpt>
      <trkpt lat="43.33271" lon="-0.60014">
        <ele>127.51</ele>
        <time>2019-09-01T08:22:07Z</time>
      </trkpt>
      <trkpt lat="43.33273" lon="-0.60011">
        <ele>127.99</ele>
        <time>2019-09-01T08:22:08Z</time>
      </trkpt>
      <trkpt lat="43.33276" lon="-0.60009">
        <ele>127.99</ele>
        <time>2019-09-01T08:22:09Z</time>
      </trkpt>
      <trkpt lat="43.33278" lon="-0.60006">
        <ele>127.51</ele>
        <time>2019-09-01T08:22:10Z</time>
      </trkpt>
      <trkpt lat="43.33279" lon="-0.60003">
        <ele>127.51</ele>
        <time>2019-09-01T08:22:11Z</time>
      </trkpt>
      <trkpt lat="43.33281" lon="-0.59999">
        <ele>127.51</ele>
        <time>2019-09-01T08:22:12Z</time>
      </trkpt>
      <trkpt lat="43.33282" lon="-0.59995">
        <ele>127.03</ele>
        <time>2019-09-01T08:22:13Z</time>
      </trkpt>
      <trkpt lat="43.33282" lon="-0.5999">
        <ele>127.03</ele>
        <time>2019-09-01T08:22:14Z</time>
      </trkpt>
      <trkpt lat="43.33282" lon="-0.59986">
        <ele>127.03</ele>
        <time>2019-09-01T08:22:15Z</time>
      </trkpt>
      <trkpt lat="43.33278" lon="-0.59918">
        <ele>126.07</ele>
        <time>2019-09-01T08:22:32Z</time>
      </trkpt>
      <trkpt lat="43.33276" lon="-0.59867">
        <ele>126.55</ele>
        <time>2019-09-01T08:22:46Z</time>
      </trkpt>
      <trkpt lat="43.33262" lon="-0.5983">
        <ele>128.47</ele>
        <time>2019-09-01T08:22:59Z</time>
      </trkpt>
      <trkpt lat="43.33245" lon="-0.59792">
        <ele>126.55</ele>
        <time>2019-09-01T08:23:11Z</time>
      </trkpt>
      <trkpt lat="43.33232" lon="-0.59756">
        <ele>125.59</ele>
        <time>2019-09-01T08:23:23Z</time>
      </trkpt>
      <trkpt lat="43.33232" lon="-0.59735">
        <ele>126.55</ele>
        <time>2019-09-01T08:23:35Z</time>
      </trkpt>
      <trkpt lat="43.33234" lon="-0.59734">
        <ele>128.95</ele>
        <time>2019-09-01T08:23:48Z</time>
      </trkpt>
      <trkpt lat="43.3324" lon="-0.59731">
        <ele>134.24</ele>
        <time>2019-09-01T08:24:11Z</time>
      </trkpt>
      <trkpt lat="43.33246" lon="-0.5973">
        <ele>140.01</ele>
        <time>2019-09-01T08:24:25Z</time>
      </trkpt>
      <trkpt lat="43.3325" lon="-0.5973">
        <ele>144.34</ele>
        <time>2019-09-01T08:24:41Z</time>
      </trkpt>
      <trkpt lat="43.33255" lon="-0.59722">
        <ele>150.1</ele>
        <time>2019-09-01T08:24:55Z</time>
      </trkpt>
      <trkpt lat="43.33263" lon="-0.59718">
        <ele>154.91</ele>
        <time>2019-09-01T08:25:08Z</time>
      </trkpt>
      <trkpt lat="43.33274" lon="-0.59713">
        <ele>156.83</ele>
        <time>2019-09-01T08:25:24Z</time>
      </trkpt>
      <trkpt lat="43.33274" lon="-0.59706">
        <ele>157.31</ele>
        <time>2019-09-01T08:25:32Z</time>
      </trkpt>
      <trkpt lat="43.33265" lon="-0.59691">
        <ele>158.27</ele>
        <time>2019-09-01T08:25:43Z</time>
      </trkpt>
      <trkpt lat="43.33259" lon="-0.59681">
        <ele>156.83</ele>
        <time>2019-09-01T08:25:48Z</time>
      </trkpt>
      <trkpt lat="43.33248" lon="-0.59661">
        <ele>156.35</ele>
        <time>2019-09-01T08:25:57Z</time>
      </trkpt>
      <trkpt lat="43.33235" lon="-0.59636">
        <ele>158.27</ele>
        <time>2019-09-01T08:26:07Z</time>
      </trkpt>
      <trkpt lat="43.33214" lon="-0.59597">
        <ele>158.27</ele>
        <time>2019-09-01T08:26:21Z</time>
      </trkpt>
      <trkpt lat="43.332" lon="-0.59569">
        <ele>156.35</ele>
        <time>2019-09-01T08:26:30Z</time>
      </trkpt>
      <trkpt lat="43.33198" lon="-0.59556">
        <ele>154.43</ele>
        <time>2019-09-01T08:26:34Z</time>
      </trkpt>
      <trkpt lat="43.33192" lon="-0.5952">
        <ele>150.58</ele>
        <time>2019-09-01T08:26:46Z</time>
      </trkpt>
      <trkpt lat="43.33193" lon="-0.59494">
        <ele>151.54</ele>
        <time>2019-09-01T08:26:52Z</time>
      </trkpt>
      <trkpt lat="43.33191" lon="-0.59461">
        <ele>153.47</ele>
        <time>2019-09-01T08:27:01Z</time>
      </trkpt>
      <trkpt lat="43.3319" lon="-0.59459">
        <ele>153.95</ele>
        <time>2019-09-01T08:27:02Z</time>
      </trkpt>
      <trkpt lat="43.33188" lon="-0.59428">
        <ele>159.24</ele>
        <time>2019-09-01T08:27:17Z</time>
      </trkpt>
      <trkpt lat="43.33185" lon="-0.59419">
        <ele>159.72</ele>
        <time>2019-09-01T08:27:23Z</time>
      </trkpt>
      <trkpt lat="43.33193" lon="-0.59404">
        <ele>161.16</ele>
        <time>2019-09-01T08:27:32Z</time>
      </trkpt>
      <trkpt lat="43.33193" lon="-0.59399">
        <ele>162.12</ele>
        <time>2019-09-01T08:27:35Z</time>
      </trkpt>
      <trkpt lat="43.33185" lon="-0.59381">
        <ele>166.93</ele>
        <time>2019-09-01T08:27:47Z</time>
      </trkpt>
      <trkpt lat="43.33185" lon="-0.59376">
        <ele>167.89</ele>
        <time>2019-09-01T08:27:50Z</time>
      </trkpt>
      <trkpt lat="43.33175" lon="-0.59359">
        <ele>167.89</ele>
        <time>2019-09-01T08:28:00Z</time>
      </trkpt>
      <trkpt lat="43.33167" lon="-0.59349">
        <ele>167.89</ele>
        <time>2019-09-01T08:28:07Z</time>
      </trkpt>
      <trkpt lat="43.33158" lon="-0.59332">
        <ele>169.33</ele>
        <time>2019-09-01T08:28:17Z</time>
      </trkpt>
      <trkpt lat="43.33143" lon="-0.59302">
        <ele>170.77</ele>
        <time>2019-09-01T08:28:36Z</time>
      </trkpt>
      <trkpt lat="43.33133" lon="-0.59273">
        <ele>171.73</ele>
        <time>2019-09-01T08:28:53Z</time>
      </trkpt>
      <trkpt lat="43.3312" lon="-0.59242">
        <ele>177.5</ele>
        <time>2019-09-01T08:29:11Z</time>
      </trkpt>
      <trkpt lat="43.33113" lon="-0.59214">
        <ele>182.79</ele>
        <time>2019-09-01T08:29:28Z</time>
      </trkpt>
      <trkpt lat="43.33115" lon="-0.59206">
        <ele>184.23</ele>
        <time>2019-09-01T08:29:33Z</time>
      </trkpt>
      <trkpt lat="43.33126" lon="-0.5918">
        <ele>189.04</ele>
        <time>2019-09-01T08:29:51Z</time>
      </trkpt>
      <trkpt lat="43.33136" lon="-0.59157">
        <ele>193.36</ele>
        <time>2019-09-01T08:30:08Z</time>
      </trkpt>
      <trkpt lat="43.33147" lon="-0.59139">
        <ele>197.69</ele>
        <time>2019-09-01T08:30:24Z</time>
      </trkpt>
      <trkpt lat="43.33148" lon="-0.59135">
        <ele>197.69</ele>
        <time>2019-09-01T08:30:28Z</time>
      </trkpt>
      <trkpt lat="43.3315" lon="-0.59134">
        <ele>198.17</ele>
        <time>2019-09-01T08:30:30Z</time>
      </trkpt>
      <trkpt lat="43.3317" lon="-0.59154">
        <ele>197.21</ele>
        <time>2019-09-01T08:30:44Z</time>
      </trkpt>
      <trkpt lat="43.33179" lon="-0.59163">
        <ele>198.65</ele>
        <time>2019-09-01T08:30:49Z</time>
      </trkpt>
      <trkpt lat="43.33183" lon="-0.59194">
        <ele>196.73</ele>
        <time>2019-09-01T08:30:57Z</time>
      </trkpt>
      <trkpt lat="43.33188" lon="-0.592">
        <ele>196.25</ele>
        <time>2019-09-01T08:30:59Z</time>
      </trkpt>
      <trkpt lat="43.33224" lon="-0.5924">
        <ele>194.8</ele>
        <time>2019-09-01T08:31:17Z</time>
      </trkpt>
      <trkpt lat="43.3325" lon="-0.59266">
        <ele>194.32</ele>
        <time>2019-09-01T08:31:31Z</time>
      </trkpt>
      <trkpt lat="43.33257" lon="-0.59257">
        <ele>196.73</ele>
        <time>2019-09-01T08:31:37Z</time>
      </trkpt>
      <trkpt lat="43.33271" lon="-0.59238">
        <ele>201.05</ele>
        <time>2019-09-01T08:31:53Z</time>
      </trkpt>
      <trkpt lat="43.33287" lon="-0.59217">
        <ele>204.9</ele>
        <time>2019-09-01T08:32:09Z</time>
      </trkpt>
      <trkpt lat="43.33295" lon="-0.59199">
        <ele>207.3</ele>
        <time>2019-09-01T08:32:20Z</time>
      </trkpt>
      <trkpt lat="43.3329" lon="-0.59188">
        <ele>207.3</ele>
        <time>2019-09-01T08:32:27Z</time>
      </trkpt>
      <trkpt lat="43.33288" lon="-0.59188">
        <ele>206.34</ele>
        <time>2019-09-01T08:32:38Z</time>
      </trkpt>
      <trkpt lat="43.33291" lon="-0.59185">
        <ele>205.38</ele>
        <time>2019-09-01T08:33:07Z</time>
      </trkpt>
      <trkpt lat="43.3329" lon="-0.59185">
        <ele>205.86</ele>
        <time>2019-09-01T08:33:34Z</time>
      </trkpt>
      <trkpt lat="43.33289" lon="-0.59191">
        <ele>209.7</ele>
        <time>2019-09-01T08:34:09Z</time>
      </trkpt>
      <trkpt lat="43.33292" lon="-0.5919">
        <ele>211.63</ele>
        <time>2019-09-01T08:34:41Z</time>
      </trkpt>
      <trkpt lat="43.33289" lon="-0.5919">
        <ele>209.7</ele>
        <time>2019-09-01T08:35:08Z</time>
      </trkpt>
      <trkpt lat="43.33284" lon="-0.59185">
        <ele>209.7</ele>
        <time>2019-09-01T08:35:20Z</time>
      </trkpt>
      <trkpt lat="43.33278" lon="-0.5918">
        <ele>208.26</ele>
        <time>2019-09-01T08:35:24Z</time>
      </trkpt>
      <trkpt lat="43.33276" lon="-0.59178">
        <ele>207.78</ele>
        <time>2019-09-01T08:35:25Z</time>
      </trkpt>
      <trkpt lat="43.33275" lon="-0.59175">
        <ele>207.3</ele>
        <time>2019-09-01T08:35:26Z</time>
      </trkpt>
      <trkpt lat="43.33273" lon="-0.59173">
        <ele>207.3</ele>
        <time>2019-09-01T08:35:27Z</time>
      </trkpt>
      <trkpt lat="43.33262" lon="-0.59159">
        <ele>206.82</ele>
        <time>2019-09-01T08:35:34Z</time>
      </trkpt>
      <trkpt lat="43.33262" lon="-0.59156">
        <ele>207.3</ele>
        <time>2019-09-01T08:35:35Z</time>
      </trkpt>
      <trkpt lat="43.33262" lon="-0.59153">
        <ele>207.3</ele>
        <time>2019-09-01T08:35:36Z</time>
      </trkpt>
      <trkpt lat="43.33263" lon="-0.5915">
        <ele>207.78</ele>
        <time>2019-09-01T08:35:37Z</time>
      </trkpt>
      <trkpt lat="43.33264" lon="-0.59149">
        <ele>207.78</ele>
        <time>2019-09-01T08:35:38Z</time>
      </trkpt>
      <trkpt lat="43.33265" lon="-0.59147">
        <ele>208.26</ele>
        <time>2019-09-01T08:35:39Z</time>
      </trkpt>
      <trkpt lat="43.33266" lon="-0.59146">
        <ele>208.26</ele>
        <time>2019-09-01T08:35:40Z</time>
      </trkpt>
      <trkpt lat="43.33268" lon="-0.59145">
        <ele>208.26</ele>
        <time>2019-09-01T08:35:41Z</time>
      </trkpt>
      <trkpt lat="43.33288" lon="-0.59139">
        <ele>206.34</ele>
        <time>2019-09-01T08:35:48Z</time>
      </trkpt>
      <trkpt lat="43.33326" lon="-0.5914">
        <ele>202.49</ele>
        <time>2019-09-01T08:35:54Z</time>
      </trkpt>
      <trkpt lat="43.33341" lon="-0.59141">
        <ele>202.01</ele>
        <time>2019-09-01T08:35:56Z</time>
      </trkpt>
      <trkpt lat="43.33404" lon="-0.59129">
        <ele>198.65</ele>
        <time>2019-09-01T08:36:05Z</time>
      </trkpt>
      <trkpt lat="43.33409" lon="-0.59125">
        <ele>198.17</ele>
        <time>2019-09-01T08:36:06Z</time>
      </trkpt>
      <trkpt lat="43.33414" lon="-0.59121">
        <ele>197.69</ele>
        <time>2019-09-01T08:36:07Z</time>
      </trkpt>
      <trkpt lat="43.33419" lon="-0.59115">
        <ele>197.21</ele>
        <time>2019-09-01T08:36:08Z</time>
      </trkpt>
      <trkpt lat="43.33422" lon="-0.59109">
        <ele>196.25</ele>
        <time>2019-09-01T08:36:09Z</time>
      </trkpt>
      <trkpt lat="43.33425" lon="-0.59103">
        <ele>195.77</ele>
        <time>2019-09-01T08:36:10Z</time>
      </trkpt>
      <trkpt lat="43.33428" lon="-0.59098">
        <ele>194.8</ele>
        <time>2019-09-01T08:36:11Z</time>
      </trkpt>
      <trkpt lat="43.3343" lon="-0.59093">
        <ele>194.32</ele>
        <time>2019-09-01T08:36:12Z</time>
      </trkpt>
      <trkpt lat="43.3343" lon="-0.59087">
        <ele>193.36</ele>
        <time>2019-09-01T08:36:13Z</time>
      </trkpt>
      <trkpt lat="43.33427" lon="-0.59081">
        <ele>192.4</ele>
        <time>2019-09-01T08:36:14Z</time>
      </trkpt>
      <trkpt lat="43.33424" lon="-0.59076">
        <ele>191.92</ele>
        <time>2019-09-01T08:36:15Z</time>
      </trkpt>
      <trkpt lat="43.3342" lon="-0.59073">
        <ele>191.44</ele>
        <time>2019-09-01T08:36:16Z</time>
      </trkpt>
      <trkpt lat="43.33415" lon="-0.59071">
        <ele>191.44</ele>
        <time>2019-09-01T08:36:17Z</time>
      </trkpt>
      <trkpt lat="43.3341" lon="-0.59069">
        <ele>190.96</ele>
        <time>2019-09-01T08:36:18Z</time>
      </trkpt>
      <trkpt lat="43.33404" lon="-0.59066">
        <ele>190.96</ele>
        <time>2019-09-01T08:36:19Z</time>
      </trkpt>
      <trkpt lat="43.33399" lon="-0.59062">
        <ele>190.48</ele>
        <time>2019-09-01T08:36:20Z</time>
      </trkpt>
      <trkpt lat="43.33395" lon="-0.59058">
        <ele>190</ele>
        <time>2019-09-01T08:36:21Z</time>
      </trkpt>
      <trkpt lat="43.33347" lon="-0.59013">
        <ele>186.63</ele>
        <time>2019-09-01T08:36:30Z</time>
      </trkpt>
      <trkpt lat="43.33341" lon="-0.59004">
        <ele>185.67</ele>
        <time>2019-09-01T08:36:31Z</time>
      </trkpt>
      <trkpt lat="43.33326" lon="-0.58985">
        <ele>183.27</ele>
        <time>2019-09-01T08:36:33Z</time>
      </trkpt>
      <trkpt lat="43.33318" lon="-0.58977">
        <ele>182.31</ele>
        <time>2019-09-01T08:36:34Z</time>
      </trkpt>
      <trkpt lat="43.33286" lon="-0.58945">
        <ele>181.35</ele>
        <time>2019-09-01T08:36:39Z</time>
      </trkpt>
      <trkpt lat="43.33255" lon="-0.58914">
        <ele>182.31</ele>
        <time>2019-09-01T08:36:50Z</time>
      </trkpt>
      <trkpt lat="43.33228" lon="-0.58898">
        <ele>181.35</ele>
        <time>2019-09-01T08:37:04Z</time>
      </trkpt>
      <trkpt lat="43.33227" lon="-0.58898">
        <ele>180.87</ele>
        <time>2019-09-01T08:37:05Z</time>
      </trkpt>
      <trkpt lat="43.33226" lon="-0.58898">
        <ele>180.87</ele>
        <time>2019-09-01T08:37:06Z</time>
      </trkpt>
      <trkpt lat="43.33224" lon="-0.58896">
        <ele>180.38</ele>
        <time>2019-09-01T08:37:07Z</time>
      </trkpt>
      <trkpt lat="43.33224" lon="-0.58893">
        <ele>179.9</ele>
        <time>2019-09-01T08:37:08Z</time>
      </trkpt>
      <trkpt lat="43.33227" lon="-0.5887">
        <ele>176.54</ele>
        <time>2019-09-01T08:37:11Z</time>
      </trkpt>
      <trkpt lat="43.3324" lon="-0.58733">
        <ele>160.2</ele>
        <time>2019-09-01T08:37:22Z</time>
      </trkpt>
      <trkpt lat="43.33245" lon="-0.5866">
        <ele>150.58</ele>
        <time>2019-09-01T08:37:28Z</time>
      </trkpt>
      <trkpt lat="43.33256" lon="-0.58628">
        <ele>147.22</ele>
        <time>2019-09-01T08:37:32Z</time>
      </trkpt>
      <trkpt lat="43.33262" lon="-0.58581">
        <ele>142.41</ele>
        <time>2019-09-01T08:37:39Z</time>
      </trkpt>
      <trkpt lat="43.33261" lon="-0.58576">
        <ele>141.93</ele>
        <time>2019-09-01T08:37:40Z</time>
      </trkpt>
      <trkpt lat="43.3326" lon="-0.58572">
        <ele>140.97</ele>
        <time>2019-09-01T08:37:41Z</time>
      </trkpt>
      <trkpt lat="43.33259" lon="-0.58568">
        <ele>140.49</ele>
        <time>2019-09-01T08:37:42Z</time>
      </trkpt>
      <trkpt lat="43.33259" lon="-0.58564">
        <ele>140.01</ele>
        <time>2019-09-01T08:37:43Z</time>
      </trkpt>
      <trkpt lat="43.33267" lon="-0.58543">
        <ele>140.01</ele>
        <time>2019-09-01T08:37:49Z</time>
      </trkpt>
      <trkpt lat="43.33279" lon="-0.58524">
        <ele>139.05</ele>
        <time>2019-09-01T08:37:53Z</time>
      </trkpt>
      <trkpt lat="43.33313" lon="-0.5842">
        <ele>136.64</ele>
        <time>2019-09-01T08:38:07Z</time>
      </trkpt>
      <trkpt lat="43.33327" lon="-0.58375">
        <ele>135.2</ele>
        <time>2019-09-01T08:38:12Z</time>
      </trkpt>
      <trkpt lat="43.33328" lon="-0.58367">
        <ele>135.2</ele>
        <time>2019-09-01T08:38:13Z</time>
      </trkpt>
      <trkpt lat="43.33326" lon="-0.58359">
        <ele>134.72</ele>
        <time>2019-09-01T08:38:14Z</time>
      </trkpt>
      <trkpt lat="43.33322" lon="-0.58354">
        <ele>134.24</ele>
        <time>2019-09-01T08:38:15Z</time>
      </trkpt>
      <trkpt lat="43.33316" lon="-0.58349">
        <ele>134.24</ele>
        <time>2019-09-01T08:38:16Z</time>
      </trkpt>
      <trkpt lat="43.33311" lon="-0.58346">
        <ele>133.76</ele>
        <time>2019-09-01T08:38:17Z</time>
      </trkpt>
      <trkpt lat="43.33299" lon="-0.58339">
        <ele>133.28</ele>
        <time>2019-09-01T08:38:19Z</time>
      </trkpt>
      <trkpt lat="43.33294" lon="-0.58333">
        <ele>133.28</ele>
        <time>2019-09-01T08:38:20Z</time>
      </trkpt>
      <trkpt lat="43.33292" lon="-0.58325">
        <ele>133.28</ele>
        <time>2019-09-01T08:38:21Z</time>
      </trkpt>
      <trkpt lat="43.33293" lon="-0.58318">
        <ele>133.28</ele>
        <time>2019-09-01T08:38:22Z</time>
      </trkpt>
      <trkpt lat="43.33294" lon="-0.5831">
        <ele>133.28</ele>
        <time>2019-09-01T08:38:23Z</time>
      </trkpt>
      <trkpt lat="43.33296" lon="-0.58303">
        <ele>132.8</ele>
        <time>2019-09-01T08:38:24Z</time>
      </trkpt>
      <trkpt lat="43.33304" lon="-0.58278">
        <ele>133.28</ele>
        <time>2019-09-01T08:38:33Z</time>
      </trkpt>
      <trkpt lat="43.33312" lon="-0.58268">
        <ele>134.24</ele>
        <time>2019-09-01T08:38:50Z</time>
      </trkpt>
      <trkpt lat="43.33339" lon="-0.58238">
        <ele>132.32</ele>
        <time>2019-09-01T08:38:57Z</time>
      </trkpt>
      <trkpt lat="43.33343" lon="-0.58232">
        <ele>132.32</ele>
        <time>2019-09-01T08:38:58Z</time>
      </trkpt>
      <trkpt lat="43.33346" lon="-0.58226">
        <ele>131.84</ele>
        <time>2019-09-01T08:38:59Z</time>
      </trkpt>
      <trkpt lat="43.33353" lon="-0.58212">
        <ele>131.36</ele>
        <time>2019-09-01T08:39:01Z</time>
      </trkpt>
      <trkpt lat="43.33355" lon="-0.58204">
        <ele>130.88</ele>
        <time>2019-09-01T08:39:02Z</time>
      </trkpt>
      <trkpt lat="43.33357" lon="-0.58196">
        <ele>130.88</ele>
        <time>2019-09-01T08:39:03Z</time>
      </trkpt>
      <trkpt lat="43.33382" lon="-0.58066">
        <ele>127.03</ele>
        <time>2019-09-01T08:39:18Z</time>
      </trkpt>
      <trkpt lat="43.33394" lon="-0.58008">
        <ele>125.59</ele>
        <time>2019-09-01T08:39:26Z</time>
      </trkpt>
      <trkpt lat="43.33398" lon="-0.57986">
        <ele>124.63</ele>
        <time>2019-09-01T08:39:29Z</time>
      </trkpt>
      <trkpt lat="43.33398" lon="-0.57969">
        <ele>124.15</ele>
        <time>2019-09-01T08:39:31Z</time>
      </trkpt>
      <trkpt lat="43.33398" lon="-0.57961">
        <ele>123.67</ele>
        <time>2019-09-01T08:39:32Z</time>
      </trkpt>
      <trkpt lat="43.33398" lon="-0.57932">
        <ele>122.22</ele>
        <time>2019-09-01T08:39:35Z</time>
      </trkpt>
      <trkpt lat="43.33408" lon="-0.5788">
        <ele>121.74</ele>
        <time>2019-09-01T08:39:41Z</time>
      </trkpt>
      <trkpt lat="43.3341" lon="-0.57872">
        <ele>121.74</ele>
        <time>2019-09-01T08:39:42Z</time>
      </trkpt>
      <trkpt lat="43.33414" lon="-0.57866">
        <ele>121.26</ele>
        <time>2019-09-01T08:39:43Z</time>
      </trkpt>
      <trkpt lat="43.33417" lon="-0.57859">
        <ele>121.26</ele>
        <time>2019-09-01T08:39:44Z</time>
      </trkpt>
      <trkpt lat="43.3342" lon="-0.57853">
        <ele>121.26</ele>
        <time>2019-09-01T08:39:45Z</time>
      </trkpt>
      <trkpt lat="43.33424" lon="-0.57837">
        <ele>121.74</ele>
        <time>2019-09-01T08:39:48Z</time>
      </trkpt>
      <trkpt lat="43.33423" lon="-0.57833">
        <ele>121.74</ele>
        <time>2019-09-01T08:39:49Z</time>
      </trkpt>
      <trkpt lat="43.33421" lon="-0.57829">
        <ele>121.74</ele>
        <time>2019-09-01T08:39:50Z</time>
      </trkpt>
      <trkpt lat="43.33415" lon="-0.57813">
        <ele>120.3</ele>
        <time>2019-09-01T08:39:54Z</time>
      </trkpt>
      <trkpt lat="43.33416" lon="-0.57807">
        <ele>120.3</ele>
        <time>2019-09-01T08:39:55Z</time>
      </trkpt>
      <trkpt lat="43.33432" lon="-0.57767">
        <ele>120.78</ele>
        <time>2019-09-01T08:40:04Z</time>
      </trkpt>
      <trkpt lat="43.33436" lon="-0.57734">
        <ele>120.78</ele>
        <time>2019-09-01T08:40:15Z</time>
      </trkpt>
      <trkpt lat="43.33436" lon="-0.57731">
        <ele>120.3</ele>
        <time>2019-09-01T08:40:16Z</time>
      </trkpt>
      <trkpt lat="43.33435" lon="-0.57729">
        <ele>120.3</ele>
        <time>2019-09-01T08:40:17Z</time>
      </trkpt>
      <trkpt lat="43.33434" lon="-0.57726">
        <ele>119.82</ele>
        <time>2019-09-01T08:40:18Z</time>
      </trkpt>
      <trkpt lat="43.33433" lon="-0.57725">
        <ele>119.82</ele>
        <time>2019-09-01T08:40:19Z</time>
      </trkpt>
      <trkpt lat="43.33433" lon="-0.57723">
        <ele>119.82</ele>
        <time>2019-09-01T08:40:20Z</time>
      </trkpt>
      <trkpt lat="43.33432" lon="-0.57721">
        <ele>119.82</ele>
        <time>2019-09-01T08:40:21Z</time>
      </trkpt>
      <trkpt lat="43.33432" lon="-0.57719">
        <ele>119.82</ele>
        <time>2019-09-01T08:40:22Z</time>
      </trkpt>
      <trkpt lat="43.33431" lon="-0.57717">
        <ele>119.34</ele>
        <time>2019-09-01T08:40:23Z</time>
      </trkpt>
      <trkpt lat="43.3343" lon="-0.57715">
        <ele>119.34</ele>
        <time>2019-09-01T08:40:24Z</time>
      </trkpt>
      <trkpt lat="43.33429" lon="-0.57712">
        <ele>119.34</ele>
        <time>2019-09-01T08:40:25Z</time>
      </trkpt>
      <trkpt lat="43.33428" lon="-0.5771">
        <ele>119.34</ele>
        <time>2019-09-01T08:40:26Z</time>
      </trkpt>
      <trkpt lat="43.33427" lon="-0.57708">
        <ele>118.86</ele>
        <time>2019-09-01T08:40:27Z</time>
      </trkpt>
      <trkpt lat="43.33425" lon="-0.57705">
        <ele>118.86</ele>
        <time>2019-09-01T08:40:28Z</time>
      </trkpt>
      <trkpt lat="43.33419" lon="-0.57657">
        <ele>122.71</ele>
        <time>2019-09-01T08:40:42Z</time>
      </trkpt>
      <trkpt lat="43.33423" lon="-0.57604">
        <ele>125.11</ele>
        <time>2019-09-01T08:40:55Z</time>
      </trkpt>
      <trkpt lat="43.33435" lon="-0.57546">
        <ele>126.07</ele>
        <time>2019-09-01T08:41:09Z</time>
      </trkpt>
      <trkpt lat="43.33438" lon="-0.57474">
        <ele>127.03</ele>
        <time>2019-09-01T08:41:26Z</time>
      </trkpt>
      <trkpt lat="43.33436" lon="-0.57404">
        <ele>128.47</ele>
        <time>2019-09-01T08:41:43Z</time>
      </trkpt>
      <trkpt lat="43.3343" lon="-0.5733">
        <ele>129.43</ele>
        <time>2019-09-01T08:42:01Z</time>
      </trkpt>
      <trkpt lat="43.3342" lon="-0.57272">
        <ele>130.4</ele>
        <time>2019-09-01T08:42:16Z</time>
      </trkpt>
      <trkpt lat="43.33421" lon="-0.57259">
        <ele>130.88</ele>
        <time>2019-09-01T08:42:20Z</time>
      </trkpt>
      <trkpt lat="43.3342" lon="-0.57257">
        <ele>131.36</ele>
        <time>2019-09-01T08:42:21Z</time>
      </trkpt>
      <trkpt lat="43.33417" lon="-0.57255">
        <ele>131.36</ele>
        <time>2019-09-01T08:42:22Z</time>
      </trkpt>
      <trkpt lat="43.33416" lon="-0.57253">
        <ele>131.36</ele>
        <time>2019-09-01T08:42:23Z</time>
      </trkpt>
      <trkpt lat="43.33414" lon="-0.57251">
        <ele>131.84</ele>
        <time>2019-09-01T08:42:24Z</time>
      </trkpt>
      <trkpt lat="43.33413" lon="-0.57248">
        <ele>131.84</ele>
        <time>2019-09-01T08:42:25Z</time>
      </trkpt>
      <trkpt lat="43.33411" lon="-0.57244">
        <ele>131.36</ele>
        <time>2019-09-01T08:42:26Z</time>
      </trkpt>
      <trkpt lat="43.33412" lon="-0.57206">
        <ele>132.32</ele>
        <time>2019-09-01T08:42:38Z</time>
      </trkpt>
      <trkpt lat="43.3342" lon="-0.5714">
        <ele>135.68</ele>
        <time>2019-09-01T08:42:56Z</time>
      </trkpt>
      <trkpt lat="43.33427" lon="-0.57076">
        <ele>138.09</ele>
        <time>2019-09-01T08:43:13Z</time>
      </trkpt>
      <trkpt lat="43.33439" lon="-0.57018">
        <ele>140.49</ele>
        <time>2019-09-01T08:43:29Z</time>
      </trkpt>
      <trkpt lat="43.33442" lon="-0.56989">
        <ele>142.41</ele>
        <time>2019-09-01T08:43:37Z</time>
      </trkpt>
      <trkpt lat="43.33442" lon="-0.56986">
        <ele>142.89</ele>
        <time>2019-09-01T08:43:38Z</time>
      </trkpt>
      <trkpt lat="43.3345" lon="-0.56954">
        <ele>145.3</ele>
        <time>2019-09-01T08:43:49Z</time>
      </trkpt>
      <trkpt lat="43.3345" lon="-0.56952">
        <ele>145.3</ele>
        <time>2019-09-01T08:43:50Z</time>
      </trkpt>
      <trkpt lat="43.33439" lon="-0.56957">
        <ele>148.18</ele>
        <time>2019-09-01T08:44:00Z</time>
      </trkpt>
      <trkpt lat="43.3342" lon="-0.56969">
        <ele>152.99</ele>
        <time>2019-09-01T08:44:15Z</time>
      </trkpt>
      <trkpt lat="43.33419" lon="-0.5697">
        <ele>153.47</ele>
        <time>2019-09-01T08:44:16Z</time>
      </trkpt>
      <trkpt lat="43.33405" lon="-0.56983">
        <ele>156.35</ele>
        <time>2019-09-01T08:44:27Z</time>
      </trkpt>
      <trkpt lat="43.33403" lon="-0.56986">
        <ele>156.83</ele>
        <time>2019-09-01T08:44:29Z</time>
      </trkpt>
      <trkpt lat="43.33387" lon="-0.57003">
        <ele>161.16</ele>
        <time>2019-09-01T08:44:41Z</time>
      </trkpt>
      <trkpt lat="43.33381" lon="-0.57001">
        <ele>163.08</ele>
        <time>2019-09-01T08:44:46Z</time>
      </trkpt>
      <trkpt lat="43.33374" lon="-0.56984">
        <ele>164.52</ele>
        <time>2019-09-01T08:45:00Z</time>
      </trkpt>
      <trkpt lat="43.33372" lon="-0.56985">
        <ele>165.48</ele>
        <time>2019-09-01T08:45:03Z</time>
      </trkpt>
      <trkpt lat="43.33362" lon="-0.56993">
        <ele>167.41</ele>
        <time>2019-09-01T08:45:17Z</time>
      </trkpt>
      <trkpt lat="43.33358" lon="-0.56998">
        <ele>169.33</ele>
        <time>2019-09-01T08:45:35Z</time>
      </trkpt>
      <trkpt lat="43.33347" lon="-0.5701">
        <ele>173.17</ele>
        <time>2019-09-01T08:45:51Z</time>
      </trkpt>
      <trkpt lat="43.33339" lon="-0.57018">
        <ele>175.58</ele>
        <time>2019-09-01T08:46:03Z</time>
      </trkpt>
      <trkpt lat="43.33323" lon="-0.57029">
        <ele>177.98</ele>
        <time>2019-09-01T08:46:23Z</time>
      </trkpt>
      <trkpt lat="43.33307" lon="-0.57034">
        <ele>177.5</ele>
        <time>2019-09-01T08:46:38Z</time>
      </trkpt>
      <trkpt lat="43.33297" lon="-0.57032">
        <ele>175.58</ele>
        <time>2019-09-01T08:46:52Z</time>
      </trkpt>
      <trkpt lat="43.33295" lon="-0.57018">
        <ele>174.62</ele>
        <time>2019-09-01T08:47:03Z</time>
      </trkpt>
      <trkpt lat="43.33296" lon="-0.57012">
        <ele>174.62</ele>
        <time>2019-09-01T08:47:07Z</time>
      </trkpt>
      <trkpt lat="43.33296" lon="-0.57001">
        <ele>175.1</ele>
        <time>2019-09-01T08:47:13Z</time>
      </trkpt>
      <trkpt lat="43.33297" lon="-0.56974">
        <ele>176.54</ele>
        <time>2019-09-01T08:47:29Z</time>
      </trkpt>
      <trkpt lat="43.33297" lon="-0.56953">
        <ele>178.46</ele>
        <time>2019-09-01T08:47:43Z</time>
      </trkpt>
      <trkpt lat="43.33299" lon="-0.56931">
        <ele>179.9</ele>
        <time>2019-09-01T08:47:58Z</time>
      </trkpt>
      <trkpt lat="43.33299" lon="-0.56908">
        <ele>182.79</ele>
        <time>2019-09-01T08:48:12Z</time>
      </trkpt>
      <trkpt lat="43.33307" lon="-0.56877">
        <ele>185.19</ele>
        <time>2019-09-01T08:48:27Z</time>
      </trkpt>
      <trkpt lat="43.33312" lon="-0.56851">
        <ele>184.71</ele>
        <time>2019-09-01T08:48:42Z</time>
      </trkpt>
      <trkpt lat="43.33312" lon="-0.56831">
        <ele>186.15</ele>
        <time>2019-09-01T08:48:55Z</time>
      </trkpt>
      <trkpt lat="43.33311" lon="-0.56808">
        <ele>189.52</ele>
        <time>2019-09-01T08:49:08Z</time>
      </trkpt>
      <trkpt lat="43.33308" lon="-0.56779">
        <ele>192.4</ele>
        <time>2019-09-01T08:49:25Z</time>
      </trkpt>
      <trkpt lat="43.33308" lon="-0.56777">
        <ele>192.4</ele>
        <time>2019-09-01T08:49:26Z</time>
      </trkpt>
      <trkpt lat="43.33305" lon="-0.56751">
        <ele>194.32</ele>
        <time>2019-09-01T08:49:41Z</time>
      </trkpt>
      <trkpt lat="43.33313" lon="-0.56724">
        <ele>198.17</ele>
        <time>2019-09-01T08:49:57Z</time>
      </trkpt>
      <trkpt lat="43.33314" lon="-0.56721">
        <ele>198.65</ele>
        <time>2019-09-01T08:49:59Z</time>
      </trkpt>
      <trkpt lat="43.33317" lon="-0.56708">
        <ele>201.53</ele>
        <time>2019-09-01T08:50:11Z</time>
      </trkpt>
      <trkpt lat="43.33321" lon="-0.56697">
        <ele>204.42</ele>
        <time>2019-09-01T08:50:21Z</time>
      </trkpt>
      <trkpt lat="43.33324" lon="-0.5668">
        <ele>206.34</ele>
        <time>2019-09-01T08:50:38Z</time>
      </trkpt>
      <trkpt lat="43.33322" lon="-0.56673">
        <ele>207.3</ele>
        <time>2019-09-01T08:50:50Z</time>
      </trkpt>
      <trkpt lat="43.33322" lon="-0.56671">
        <ele>206.82</ele>
        <time>2019-09-01T08:50:53Z</time>
      </trkpt>
      <trkpt lat="43.33326" lon="-0.56659">
        <ele>207.78</ele>
        <time>2019-09-01T08:51:01Z</time>
      </trkpt>
      <trkpt lat="43.33329" lon="-0.56646">
        <ele>209.22</ele>
        <time>2019-09-01T08:51:09Z</time>
      </trkpt>
      <trkpt lat="43.33329" lon="-0.56614">
        <ele>212.59</ele>
        <time>2019-09-01T08:51:29Z</time>
      </trkpt>
      <trkpt lat="43.33328" lon="-0.56584">
        <ele>214.99</ele>
        <time>2019-09-01T08:51:45Z</time>
      </trkpt>
      <trkpt lat="43.33318" lon="-0.56561">
        <ele>218.36</ele>
        <time>2019-09-01T08:52:00Z</time>
      </trkpt>
      <trkpt lat="43.33299" lon="-0.56543">
        <ele>223.16</ele>
        <time>2019-09-01T08:52:17Z</time>
      </trkpt>
      <trkpt lat="43.33279" lon="-0.56522">
        <ele>224.61</ele>
        <time>2019-09-01T08:52:35Z</time>
      </trkpt>
      <trkpt lat="43.33266" lon="-0.56499">
        <ele>227.97</ele>
        <time>2019-09-01T08:52:50Z</time>
      </trkpt>
      <trkpt lat="43.33252" lon="-0.56463">
        <ele>226.53</ele>
        <time>2019-09-01T08:53:01Z</time>
      </trkpt>
      <trkpt lat="43.33219" lon="-0.56398">
        <ele>219.8</ele>
        <time>2019-09-01T08:53:10Z</time>
      </trkpt>
      <trkpt lat="43.33214" lon="-0.56391">
        <ele>219.32</ele>
        <time>2019-09-01T08:53:11Z</time>
      </trkpt>
      <trkpt lat="43.33208" lon="-0.56386">
        <ele>218.84</ele>
        <time>2019-09-01T08:53:12Z</time>
      </trkpt>
      <trkpt lat="43.33156" lon="-0.56339">
        <ele>219.8</ele>
        <time>2019-09-01T08:53:24Z</time>
      </trkpt>
      <trkpt lat="43.3313" lon="-0.56318">
        <ele>222.2</ele>
        <time>2019-09-01T08:53:39Z</time>
      </trkpt>
      <trkpt lat="43.33102" lon="-0.56301">
        <ele>225.09</ele>
        <time>2019-09-01T08:53:57Z</time>
      </trkpt>
      <trkpt lat="43.33078" lon="-0.56283">
        <ele>227.97</ele>
        <time>2019-09-01T08:54:14Z</time>
      </trkpt>
      <trkpt lat="43.33053" lon="-0.56258">
        <ele>232.78</ele>
        <time>2019-09-01T08:54:33Z</time>
      </trkpt>
      <trkpt lat="43.33027" lon="-0.56244">
        <ele>236.14</ele>
        <time>2019-09-01T08:54:50Z</time>
      </trkpt>
      <trkpt lat="43.33" lon="-0.5622">
        <ele>238.06</ele>
        <time>2019-09-01T08:55:08Z</time>
      </trkpt>
      <trkpt lat="43.32994" lon="-0.56219">
        <ele>239.99</ele>
        <time>2019-09-01T08:55:12Z</time>
      </trkpt>
      <trkpt lat="43.32993" lon="-0.5622">
        <ele>240.47</ele>
        <time>2019-09-01T08:55:13Z</time>
      </trkpt>
      <trkpt lat="43.32992" lon="-0.56222">
        <ele>240.95</ele>
        <time>2019-09-01T08:55:14Z</time>
      </trkpt>
      <trkpt lat="43.32991" lon="-0.56224">
        <ele>240.95</ele>
        <time>2019-09-01T08:55:15Z</time>
      </trkpt>
      <trkpt lat="43.3299" lon="-0.56225">
        <ele>240.95</ele>
        <time>2019-09-01T08:55:16Z</time>
      </trkpt>
      <trkpt lat="43.32989" lon="-0.56227">
        <ele>241.43</ele>
        <time>2019-09-01T08:55:17Z</time>
      </trkpt>
      <trkpt lat="43.32988" lon="-0.56229">
        <ele>241.43</ele>
        <time>2019-09-01T08:55:18Z</time>
      </trkpt>
      <trkpt lat="43.32985" lon="-0.56231">
        <ele>241.91</ele>
        <time>2019-09-01T08:55:27Z</time>
      </trkpt>
      <trkpt lat="43.32987" lon="-0.5623">
        <ele>239.02</ele>
        <time>2019-09-01T08:55:58Z</time>
      </trkpt>
      <trkpt lat="43.32987" lon="-0.56226">
        <ele>240.47</ele>
        <time>2019-09-01T08:56:25Z</time>
      </trkpt>
      <trkpt lat="43.32986" lon="-0.56231">
        <ele>244.31</ele>
        <time>2019-09-01T08:57:02Z</time>
      </trkpt>
      <trkpt lat="43.32985" lon="-0.56234">
        <ele>246.23</ele>
        <time>2019-09-01T08:57:34Z</time>
      </trkpt>
      <trkpt lat="43.32988" lon="-0.56233">
        <ele>246.23</ele>
        <time>2019-09-01T08:57:50Z</time>
      </trkpt>
      <trkpt lat="43.32988" lon="-0.5623">
        <ele>243.35</ele>
        <time>2019-09-01T08:58:15Z</time>
      </trkpt>
      <trkpt lat="43.32988" lon="-0.56225">
        <ele>242.87</ele>
        <time>2019-09-01T08:58:44Z</time>
      </trkpt>
      <trkpt lat="43.32991" lon="-0.56224">
        <ele>241.91</ele>
        <time>2019-09-01T08:59:09Z</time>
      </trkpt>
      <trkpt lat="43.3299" lon="-0.56226">
        <ele>240.95</ele>
        <time>2019-09-01T08:59:34Z</time>
      </trkpt>
      <trkpt lat="43.3299" lon="-0.56223">
        <ele>241.43</ele>
        <time>2019-09-01T08:59:38Z</time>
      </trkpt>
      <trkpt lat="43.32988" lon="-0.56221">
        <ele>241.43</ele>
        <time>2019-09-01T08:59:54Z</time>
      </trkpt>
      <trkpt lat="43.3299" lon="-0.5622">
        <ele>241.91</ele>
        <time>2019-09-01T09:00:25Z</time>
      </trkpt>
      <trkpt lat="43.32991" lon="-0.56207">
        <ele>240.47</ele>
        <time>2019-09-01T09:00:35Z</time>
      </trkpt>
      <trkpt lat="43.3299" lon="-0.562">
        <ele>239.99</ele>
        <time>2019-09-01T09:00:36Z</time>
      </trkpt>
      <trkpt lat="43.32988" lon="-0.56192">
        <ele>239.51</ele>
        <time>2019-09-01T09:00:37Z</time>
      </trkpt>
      <trkpt lat="43.32971" lon="-0.56113">
        <ele>236.62</ele>
        <time>2019-09-01T09:00:48Z</time>
      </trkpt>
      <trkpt lat="43.32961" lon="-0.56064">
        <ele>236.14</ele>
        <time>2019-09-01T09:00:59Z</time>
      </trkpt>
      <trkpt lat="43.3295" lon="-0.56024">
        <ele>234.7</ele>
        <time>2019-09-01T09:01:11Z</time>
      </trkpt>
      <trkpt lat="43.32952" lon="-0.56021">
        <ele>234.7</ele>
        <time>2019-09-01T09:01:12Z</time>
      </trkpt>
      <trkpt lat="43.32954" lon="-0.5602">
        <ele>235.18</ele>
        <time>2019-09-01T09:01:13Z</time>
      </trkpt>
      <trkpt lat="43.32956" lon="-0.5602">
        <ele>235.18</ele>
        <time>2019-09-01T09:01:14Z</time>
      </trkpt>
      <trkpt lat="43.32958" lon="-0.5602">
        <ele>235.18</ele>
        <time>2019-09-01T09:01:15Z</time>
      </trkpt>
      <trkpt lat="43.3296" lon="-0.56021">
        <ele>235.18</ele>
        <time>2019-09-01T09:01:16Z</time>
      </trkpt>
      <trkpt lat="43.32962" lon="-0.56022">
        <ele>235.18</ele>
        <time>2019-09-01T09:01:17Z</time>
      </trkpt>
      <trkpt lat="43.32963" lon="-0.56023">
        <ele>234.7</ele>
        <time>2019-09-01T09:01:18Z</time>
      </trkpt>
      <trkpt lat="43.32965" lon="-0.56024">
        <ele>234.22</ele>
        <time>2019-09-01T09:01:19Z</time>
      </trkpt>
      <trkpt lat="43.32967" lon="-0.56025">
        <ele>234.22</ele>
        <time>2019-09-01T09:01:20Z</time>
      </trkpt>
      <trkpt lat="43.33003" lon="-0.56028">
        <ele>227.49</ele>
        <time>2019-09-01T09:01:33Z</time>
      </trkpt>
      <trkpt lat="43.33052" lon="-0.56012">
        <ele>227.97</ele>
        <time>2019-09-01T09:01:45Z</time>
      </trkpt>
      <trkpt lat="43.33091" lon="-0.56001">
        <ele>233.74</ele>
        <time>2019-09-01T09:01:56Z</time>
      </trkpt>
      <trkpt lat="43.33134" lon="-0.55997">
        <ele>235.66</ele>
        <time>2019-09-01T09:02:08Z</time>
      </trkpt>
      <trkpt lat="43.33172" lon="-0.55969">
        <ele>236.14</ele>
        <time>2019-09-01T09:02:20Z</time>
      </trkpt>
      <trkpt lat="43.3321" lon="-0.55928">
        <ele>237.1</ele>
        <time>2019-09-01T09:02:34Z</time>
      </trkpt>
      <trkpt lat="43.33238" lon="-0.55899">
        <ele>236.62</ele>
        <time>2019-09-01T09:02:46Z</time>
      </trkpt>
      <trkpt lat="43.33247" lon="-0.55889">
        <ele>234.7</ele>
        <time>2019-09-01T09:02:49Z</time>
      </trkpt>
      <trkpt lat="43.33255" lon="-0.55876">
        <ele>232.78</ele>
        <time>2019-09-01T09:02:52Z</time>
      </trkpt>
      <trkpt lat="43.33258" lon="-0.55871">
        <ele>231.81</ele>
        <time>2019-09-01T09:02:53Z</time>
      </trkpt>
      <trkpt lat="43.3326" lon="-0.55866">
        <ele>231.33</ele>
        <time>2019-09-01T09:02:54Z</time>
      </trkpt>
      <trkpt lat="43.33293" lon="-0.55806">
        <ele>222.68</ele>
        <time>2019-09-01T09:03:06Z</time>
      </trkpt>
      <trkpt lat="43.33296" lon="-0.55803">
        <ele>221.72</ele>
        <time>2019-09-01T09:03:07Z</time>
      </trkpt>
      <trkpt lat="43.3331" lon="-0.55793">
        <ele>218.84</ele>
        <time>2019-09-01T09:03:11Z</time>
      </trkpt>
      <trkpt lat="43.33314" lon="-0.55789">
        <ele>217.88</ele>
        <time>2019-09-01T09:03:12Z</time>
      </trkpt>
      <trkpt lat="43.33318" lon="-0.55784">
        <ele>216.91</ele>
        <time>2019-09-01T09:03:13Z</time>
      </trkpt>
      <trkpt lat="43.33321" lon="-0.55779">
        <ele>216.43</ele>
        <time>2019-09-01T09:03:14Z</time>
      </trkpt>
      <trkpt lat="43.33323" lon="-0.55775">
        <ele>215.47</ele>
        <time>2019-09-01T09:03:15Z</time>
      </trkpt>
      <trkpt lat="43.33325" lon="-0.5577">
        <ele>214.51</ele>
        <time>2019-09-01T09:03:16Z</time>
      </trkpt>
      <trkpt lat="43.33327" lon="-0.55764">
        <ele>214.03</ele>
        <time>2019-09-01T09:03:17Z</time>
      </trkpt>
      <trkpt lat="43.33328" lon="-0.55759">
        <ele>213.07</ele>
        <time>2019-09-01T09:03:18Z</time>
      </trkpt>
      <trkpt lat="43.33344" lon="-0.55697">
        <ele>200.09</ele>
        <time>2019-09-01T09:03:28Z</time>
      </trkpt>
      <trkpt lat="43.33333" lon="-0.5567">
        <ele>197.21</ele>
        <time>2019-09-01T09:03:35Z</time>
      </trkpt>
      <trkpt lat="43.3333" lon="-0.55635">
        <ele>193.36</ele>
        <time>2019-09-01T09:03:40Z</time>
      </trkpt>
      <trkpt lat="43.33322" lon="-0.55528">
        <ele>183.75</ele>
        <time>2019-09-01T09:03:49Z</time>
      </trkpt>
      <trkpt lat="43.33324" lon="-0.55517">
        <ele>182.79</ele>
        <time>2019-09-01T09:03:50Z</time>
      </trkpt>
      <trkpt lat="43.33326" lon="-0.55508">
        <ele>181.83</ele>
        <time>2019-09-01T09:03:51Z</time>
      </trkpt>
      <trkpt lat="43.3333" lon="-0.55498">
        <ele>180.87</ele>
        <time>2019-09-01T09:03:52Z</time>
      </trkpt>
      <trkpt lat="43.33334" lon="-0.55489">
        <ele>179.9</ele>
        <time>2019-09-01T09:03:53Z</time>
      </trkpt>
      <trkpt lat="43.33339" lon="-0.55481">
        <ele>178.94</ele>
        <time>2019-09-01T09:03:54Z</time>
      </trkpt>
      <trkpt lat="43.33347" lon="-0.55466">
        <ele>177.02</ele>
        <time>2019-09-01T09:03:56Z</time>
      </trkpt>
      <trkpt lat="43.33348" lon="-0.55457">
        <ele>176.06</ele>
        <time>2019-09-01T09:03:57Z</time>
      </trkpt>
      <trkpt lat="43.33348" lon="-0.55448">
        <ele>175.1</ele>
        <time>2019-09-01T09:03:58Z</time>
      </trkpt>
      <trkpt lat="43.33346" lon="-0.5544">
        <ele>174.62</ele>
        <time>2019-09-01T09:03:59Z</time>
      </trkpt>
      <trkpt lat="43.33342" lon="-0.55431">
        <ele>173.66</ele>
        <time>2019-09-01T09:04:00Z</time>
      </trkpt>
      <trkpt lat="43.33338" lon="-0.55423">
        <ele>173.17</ele>
        <time>2019-09-01T09:04:01Z</time>
      </trkpt>
      <trkpt lat="43.33333" lon="-0.55414">
        <ele>172.69</ele>
        <time>2019-09-01T09:04:02Z</time>
      </trkpt>
      <trkpt lat="43.3333" lon="-0.55405">
        <ele>171.73</ele>
        <time>2019-09-01T09:04:03Z</time>
      </trkpt>
      <trkpt lat="43.33328" lon="-0.55395">
        <ele>171.73</ele>
        <time>2019-09-01T09:04:04Z</time>
      </trkpt>
      <trkpt lat="43.33328" lon="-0.55387">
        <ele>171.25</ele>
        <time>2019-09-01T09:04:05Z</time>
      </trkpt>
      <trkpt lat="43.33329" lon="-0.55379">
        <ele>170.77</ele>
        <time>2019-09-01T09:04:06Z</time>
      </trkpt>
      <trkpt lat="43.3333" lon="-0.5537">
        <ele>170.29</ele>
        <time>2019-09-01T09:04:07Z</time>
      </trkpt>
      <trkpt lat="43.3333" lon="-0.55361">
        <ele>169.81</ele>
        <time>2019-09-01T09:04:08Z</time>
      </trkpt>
      <trkpt lat="43.3333" lon="-0.55351">
        <ele>169.33</ele>
        <time>2019-09-01T09:04:09Z</time>
      </trkpt>
      <trkpt lat="43.33328" lon="-0.55274">
        <ele>161.64</ele>
        <time>2019-09-01T09:04:16Z</time>
      </trkpt>
      <trkpt lat="43.33326" lon="-0.55265">
        <ele>160.68</ele>
        <time>2019-09-01T09:04:17Z</time>
      </trkpt>
      <trkpt lat="43.33324" lon="-0.55247">
        <ele>157.79</ele>
        <time>2019-09-01T09:04:19Z</time>
      </trkpt>
      <trkpt lat="43.33325" lon="-0.55238">
        <ele>156.83</ele>
        <time>2019-09-01T09:04:20Z</time>
      </trkpt>
      <trkpt lat="43.33328" lon="-0.55229">
        <ele>155.39</ele>
        <time>2019-09-01T09:04:21Z</time>
      </trkpt>
      <trkpt lat="43.33332" lon="-0.55222">
        <ele>154.43</ele>
        <time>2019-09-01T09:04:22Z</time>
      </trkpt>
      <trkpt lat="43.33338" lon="-0.55217">
        <ele>153.47</ele>
        <time>2019-09-01T09:04:23Z</time>
      </trkpt>
      <trkpt lat="43.33344" lon="-0.55212">
        <ele>152.99</ele>
        <time>2019-09-01T09:04:24Z</time>
      </trkpt>
      <trkpt lat="43.3335" lon="-0.55208">
        <ele>152.03</ele>
        <time>2019-09-01T09:04:25Z</time>
      </trkpt>
      <trkpt lat="43.33354" lon="-0.55201">
        <ele>151.06</ele>
        <time>2019-09-01T09:04:26Z</time>
      </trkpt>
      <trkpt lat="43.33357" lon="-0.55193">
        <ele>150.1</ele>
        <time>2019-09-01T09:04:27Z</time>
      </trkpt>
      <trkpt lat="43.3336" lon="-0.55182">
        <ele>148.66</ele>
        <time>2019-09-01T09:04:28Z</time>
      </trkpt>
      <trkpt lat="43.33382" lon="-0.55092">
        <ele>140.01</ele>
        <time>2019-09-01T09:04:35Z</time>
      </trkpt>
      <trkpt lat="43.3342" lon="-0.54999">
        <ele>129.43</ele>
        <time>2019-09-01T09:04:43Z</time>
      </trkpt>
      <trkpt lat="43.33425" lon="-0.54984">
        <ele>127.99</ele>
        <time>2019-09-01T09:04:45Z</time>
      </trkpt>
      <trkpt lat="43.33426" lon="-0.54976">
        <ele>127.51</ele>
        <time>2019-09-01T09:04:46Z</time>
      </trkpt>
      <trkpt lat="43.33425" lon="-0.54968">
        <ele>127.51</ele>
        <time>2019-09-01T09:04:47Z</time>
      </trkpt>
      <trkpt lat="43.33423" lon="-0.54959">
        <ele>127.51</ele>
        <time>2019-09-01T09:04:48Z</time>
      </trkpt>
      <trkpt lat="43.33419" lon="-0.54953">
        <ele>127.51</ele>
        <time>2019-09-01T09:04:49Z</time>
      </trkpt>
      <trkpt lat="43.33416" lon="-0.54949">
        <ele>127.51</ele>
        <time>2019-09-01T09:04:50Z</time>
      </trkpt>
      <trkpt lat="43.33412" lon="-0.54944">
        <ele>127.51</ele>
        <time>2019-09-01T09:04:51Z</time>
      </trkpt>
      <trkpt lat="43.334" lon="-0.54933">
        <ele>127.99</ele>
        <time>2019-09-01T09:04:54Z</time>
      </trkpt>
      <trkpt lat="43.33364" lon="-0.54902">
        <ele>127.99</ele>
        <time>2019-09-01T09:05:05Z</time>
      </trkpt>
      <trkpt lat="43.33364" lon="-0.54897">
        <ele>128.47</ele>
        <time>2019-09-01T09:05:06Z</time>
      </trkpt>
      <trkpt lat="43.33365" lon="-0.54892">
        <ele>127.99</ele>
        <time>2019-09-01T09:05:07Z</time>
      </trkpt>
      <trkpt lat="43.33367" lon="-0.54886">
        <ele>127.99</ele>
        <time>2019-09-01T09:05:08Z</time>
      </trkpt>
      <trkpt lat="43.3337" lon="-0.5488">
        <ele>127.51</ele>
        <time>2019-09-01T09:05:09Z</time>
      </trkpt>
      <trkpt lat="43.33381" lon="-0.54854">
        <ele>126.55</ele>
        <time>2019-09-01T09:05:13Z</time>
      </trkpt>
      <trkpt lat="43.33394" lon="-0.54818">
        <ele>125.59</ele>
        <time>2019-09-01T09:05:18Z</time>
      </trkpt>
      <trkpt lat="43.33398" lon="-0.54813">
        <ele>125.59</ele>
        <time>2019-09-01T09:05:19Z</time>
      </trkpt>
      <trkpt lat="43.33402" lon="-0.54808">
        <ele>125.11</ele>
        <time>2019-09-01T09:05:20Z</time>
      </trkpt>
      <trkpt lat="43.33424" lon="-0.54789">
        <ele>124.15</ele>
        <time>2019-09-01T09:05:25Z</time>
      </trkpt>
      <trkpt lat="43.33428" lon="-0.54788">
        <ele>123.67</ele>
        <time>2019-09-01T09:05:26Z</time>
      </trkpt>
      <trkpt lat="43.33432" lon="-0.54788">
        <ele>123.19</ele>
        <time>2019-09-01T09:05:27Z</time>
      </trkpt>
      <trkpt lat="43.33436" lon="-0.54791">
        <ele>123.19</ele>
        <time>2019-09-01T09:05:28Z</time>
      </trkpt>
      <trkpt lat="43.3344" lon="-0.54793">
        <ele>123.19</ele>
        <time>2019-09-01T09:05:29Z</time>
      </trkpt>
      <trkpt lat="43.33447" lon="-0.54799">
        <ele>122.71</ele>
        <time>2019-09-01T09:05:31Z</time>
      </trkpt>
      <trkpt lat="43.33451" lon="-0.548">
        <ele>122.22</ele>
        <time>2019-09-01T09:05:32Z</time>
      </trkpt>
      <trkpt lat="43.33455" lon="-0.54799">
        <ele>122.22</ele>
        <time>2019-09-01T09:05:33Z</time>
      </trkpt>
      <trkpt lat="43.33458" lon="-0.54797">
        <ele>122.22</ele>
        <time>2019-09-01T09:05:34Z</time>
      </trkpt>
      <trkpt lat="43.33461" lon="-0.54792">
        <ele>121.74</ele>
        <time>2019-09-01T09:05:35Z</time>
      </trkpt>
      <trkpt lat="43.33462" lon="-0.54788">
        <ele>121.74</ele>
        <time>2019-09-01T09:05:36Z</time>
      </trkpt>
      <trkpt lat="43.33464" lon="-0.54783">
        <ele>121.74</ele>
        <time>2019-09-01T09:05:37Z</time>
      </trkpt>
      <trkpt lat="43.335" lon="-0.54718">
        <ele>122.71</ele>
        <time>2019-09-01T09:05:50Z</time>
      </trkpt>
      <trkpt lat="43.33503" lon="-0.54714">
        <ele>123.19</ele>
        <time>2019-09-01T09:05:51Z</time>
      </trkpt>
      <trkpt lat="43.33506" lon="-0.5471">
        <ele>123.19</ele>
        <time>2019-09-01T09:05:52Z</time>
      </trkpt>
      <trkpt lat="43.33511" lon="-0.54701">
        <ele>123.19</ele>
        <time>2019-09-01T09:05:54Z</time>
      </trkpt>
      <trkpt lat="43.33537" lon="-0.54653">
        <ele>124.15</ele>
        <time>2019-09-01T09:06:07Z</time>
      </trkpt>
      <trkpt lat="43.33571" lon="-0.54619">
        <ele>122.71</ele>
        <time>2019-09-01T09:06:24Z</time>
      </trkpt>
      <trkpt lat="43.33574" lon="-0.54617">
        <ele>122.22</ele>
        <time>2019-09-01T09:06:26Z</time>
      </trkpt>
      <trkpt lat="43.33575" lon="-0.54617">
        <ele>121.74</ele>
        <time>2019-09-01T09:06:27Z</time>
      </trkpt>
      <trkpt lat="43.33577" lon="-0.54617">
        <ele>121.74</ele>
        <time>2019-09-01T09:06:28Z</time>
      </trkpt>
      <trkpt lat="43.33579" lon="-0.54616">
        <ele>121.74</ele>
        <time>2019-09-01T09:06:29Z</time>
      </trkpt>
      <trkpt lat="43.3358" lon="-0.54614">
        <ele>121.74</ele>
        <time>2019-09-01T09:06:30Z</time>
      </trkpt>
      <trkpt lat="43.33581" lon="-0.54612">
        <ele>121.74</ele>
        <time>2019-09-01T09:06:31Z</time>
      </trkpt>
      <trkpt lat="43.33582" lon="-0.5461">
        <ele>122.22</ele>
        <time>2019-09-01T09:06:32Z</time>
      </trkpt>
      <trkpt lat="43.33583" lon="-0.54608">
        <ele>122.22</ele>
        <time>2019-09-01T09:06:33Z</time>
      </trkpt>
      <trkpt lat="43.33585" lon="-0.54607">
        <ele>122.22</ele>
        <time>2019-09-01T09:06:34Z</time>
      </trkpt>
      <trkpt lat="43.33588" lon="-0.54606">
        <ele>122.22</ele>
        <time>2019-09-01T09:06:35Z</time>
      </trkpt>
      <trkpt lat="43.33591" lon="-0.54605">
        <ele>122.22</ele>
        <time>2019-09-01T09:06:36Z</time>
      </trkpt>
      <trkpt lat="43.33593" lon="-0.54605">
        <ele>122.22</ele>
        <time>2019-09-01T09:06:37Z</time>
      </trkpt>
      <trkpt lat="43.33596" lon="-0.54604">
        <ele>122.22</ele>
        <time>2019-09-01T09:06:38Z</time>
      </trkpt>
      <trkpt lat="43.33622" lon="-0.54596">
        <ele>121.74</ele>
        <time>2019-09-01T09:06:48Z</time>
      </trkpt>
      <trkpt lat="43.33625" lon="-0.54597">
        <ele>121.74</ele>
        <time>2019-09-01T09:06:51Z</time>
      </trkpt>
      <trkpt lat="43.33628" lon="-0.54598">
        <ele>121.74</ele>
        <time>2019-09-01T09:06:52Z</time>
      </trkpt>
      <trkpt lat="43.3363" lon="-0.54599">
        <ele>121.74</ele>
        <time>2019-09-01T09:06:53Z</time>
      </trkpt>
      <trkpt lat="43.33632" lon="-0.54599">
        <ele>121.74</ele>
        <time>2019-09-01T09:06:54Z</time>
      </trkpt>
      <trkpt lat="43.33634" lon="-0.54599">
        <ele>121.74</ele>
        <time>2019-09-01T09:06:55Z</time>
      </trkpt>
      <trkpt lat="43.33636" lon="-0.54599">
        <ele>122.22</ele>
        <time>2019-09-01T09:06:56Z</time>
      </trkpt>
      <trkpt lat="43.33638" lon="-0.54599">
        <ele>122.22</ele>
        <time>2019-09-01T09:06:57Z</time>
      </trkpt>
      <trkpt lat="43.3364" lon="-0.54599">
        <ele>122.22</ele>
        <time>2019-09-01T09:06:58Z</time>
      </trkpt>
      <trkpt lat="43.33642" lon="-0.54599">
        <ele>122.71</ele>
        <time>2019-09-01T09:06:59Z</time>
      </trkpt>
      <trkpt lat="43.33644" lon="-0.54598">
        <ele>122.71</ele>
        <time>2019-09-01T09:07:00Z</time>
      </trkpt>
      <trkpt lat="43.33647" lon="-0.54597">
        <ele>122.22</ele>
        <time>2019-09-01T09:07:01Z</time>
      </trkpt>
      <trkpt lat="43.33649" lon="-0.54597">
        <ele>122.22</ele>
        <time>2019-09-01T09:07:02Z</time>
      </trkpt>
      <trkpt lat="43.33685" lon="-0.54577">
        <ele>121.74</ele>
        <time>2019-09-01T09:07:17Z</time>
      </trkpt>
      <trkpt lat="43.33684" lon="-0.54565">
        <ele>121.74</ele>
        <time>2019-09-01T09:07:22Z</time>
      </trkpt>
      <trkpt lat="43.33653" lon="-0.54517">
        <ele>121.74</ele>
        <time>2019-09-01T09:07:39Z</time>
      </trkpt>
      <trkpt lat="43.33621" lon="-0.54473">
        <ele>121.26</ele>
        <time>2019-09-01T09:07:55Z</time>
      </trkpt>
      <trkpt lat="43.33587" lon="-0.54423">
        <ele>120.78</ele>
        <time>2019-09-01T09:08:11Z</time>
      </trkpt>
      <trkpt lat="43.33555" lon="-0.54373">
        <ele>120.78</ele>
        <time>2019-09-01T09:08:27Z</time>
      </trkpt>
      <trkpt lat="43.33526" lon="-0.54331">
        <ele>118.86</ele>
        <time>2019-09-01T09:08:42Z</time>
      </trkpt>
      <trkpt lat="43.33496" lon="-0.54285">
        <ele>118.86</ele>
        <time>2019-09-01T09:08:57Z</time>
      </trkpt>
      <trkpt lat="43.33464" lon="-0.54245">
        <ele>119.34</ele>
        <time>2019-09-01T09:09:11Z</time>
      </trkpt>
      <trkpt lat="43.33424" lon="-0.54191">
        <ele>122.22</ele>
        <time>2019-09-01T09:09:28Z</time>
      </trkpt>
      <trkpt lat="43.33387" lon="-0.54129">
        <ele>124.15</ele>
        <time>2019-09-01T09:09:45Z</time>
      </trkpt>
      <trkpt lat="43.33367" lon="-0.54095">
        <ele>123.67</ele>
        <time>2019-09-01T09:09:56Z</time>
      </trkpt>
      <trkpt lat="43.3332" lon="-0.54064">
        <ele>124.63</ele>
        <time>2019-09-01T09:10:12Z</time>
      </trkpt>
      <trkpt lat="43.3328" lon="-0.54037">
        <ele>127.03</ele>
        <time>2019-09-01T09:10:25Z</time>
      </trkpt>
      <trkpt lat="43.33239" lon="-0.54009">
        <ele>128.47</ele>
        <time>2019-09-01T09:10:38Z</time>
      </trkpt>
      <trkpt lat="43.33194" lon="-0.53979">
        <ele>127.51</ele>
        <time>2019-09-01T09:10:52Z</time>
      </trkpt>
      <trkpt lat="43.3319" lon="-0.53981">
        <ele>127.51</ele>
        <time>2019-09-01T09:10:53Z</time>
      </trkpt>
      <trkpt lat="43.33187" lon="-0.53985">
        <ele>127.51</ele>
        <time>2019-09-01T09:10:54Z</time>
      </trkpt>
      <trkpt lat="43.33185" lon="-0.53989">
        <ele>127.51</ele>
        <time>2019-09-01T09:10:55Z</time>
      </trkpt>
      <trkpt lat="43.33183" lon="-0.53993">
        <ele>127.03</ele>
        <time>2019-09-01T09:10:56Z</time>
      </trkpt>
      <trkpt lat="43.3315" lon="-0.54016">
        <ele>126.07</ele>
        <time>2019-09-01T09:11:07Z</time>
      </trkpt>
      <trkpt lat="43.33103" lon="-0.53998">
        <ele>127.03</ele>
        <time>2019-09-01T09:11:21Z</time>
      </trkpt>
      <trkpt lat="43.33056" lon="-0.53951">
        <ele>126.07</ele>
        <time>2019-09-01T09:11:36Z</time>
      </trkpt>
      <trkpt lat="43.33003" lon="-0.53917">
        <ele>126.07</ele>
        <time>2019-09-01T09:11:51Z</time>
      </trkpt>
      <trkpt lat="43.32977" lon="-0.53891">
        <ele>126.07</ele>
        <time>2019-09-01T09:12:00Z</time>
      </trkpt>
      <trkpt lat="43.32974" lon="-0.5389">
        <ele>126.07</ele>
        <time>2019-09-01T09:12:01Z</time>
      </trkpt>
      <trkpt lat="43.32971" lon="-0.53892">
        <ele>126.07</ele>
        <time>2019-09-01T09:12:02Z</time>
      </trkpt>
      <trkpt lat="43.32968" lon="-0.53894">
        <ele>126.55</ele>
        <time>2019-09-01T09:12:03Z</time>
      </trkpt>
      <trkpt lat="43.32965" lon="-0.53896">
        <ele>126.55</ele>
        <time>2019-09-01T09:12:04Z</time>
      </trkpt>
      <trkpt lat="43.32961" lon="-0.53898">
        <ele>127.03</ele>
        <time>2019-09-01T09:12:05Z</time>
      </trkpt>
      <trkpt lat="43.32958" lon="-0.53899">
        <ele>127.03</ele>
        <time>2019-09-01T09:12:06Z</time>
      </trkpt>
      <trkpt lat="43.32955" lon="-0.53899">
        <ele>127.03</ele>
        <time>2019-09-01T09:12:07Z</time>
      </trkpt>
      <trkpt lat="43.32952" lon="-0.53898">
        <ele>127.51</ele>
        <time>2019-09-01T09:12:08Z</time>
      </trkpt>
      <trkpt lat="43.32948" lon="-0.53897">
        <ele>127.51</ele>
        <time>2019-09-01T09:12:09Z</time>
      </trkpt>
      <trkpt lat="43.32945" lon="-0.53896">
        <ele>127.51</ele>
        <time>2019-09-01T09:12:10Z</time>
      </trkpt>
      <trkpt lat="43.32942" lon="-0.53894">
        <ele>127.51</ele>
        <time>2019-09-01T09:12:11Z</time>
      </trkpt>
      <trkpt lat="43.32915" lon="-0.53882">
        <ele>125.59</ele>
        <time>2019-09-01T09:12:20Z</time>
      </trkpt>
      <trkpt lat="43.32913" lon="-0.53885">
        <ele>125.11</ele>
        <time>2019-09-01T09:12:21Z</time>
      </trkpt>
      <trkpt lat="43.32896" lon="-0.53927">
        <ele>123.19</ele>
        <time>2019-09-01T09:12:34Z</time>
      </trkpt>
      <trkpt lat="43.32889" lon="-0.53932">
        <ele>123.19</ele>
        <time>2019-09-01T09:12:37Z</time>
      </trkpt>
      <trkpt lat="43.32887" lon="-0.53932">
        <ele>123.67</ele>
        <time>2019-09-01T09:12:38Z</time>
      </trkpt>
      <trkpt lat="43.32884" lon="-0.53931">
        <ele>124.15</ele>
        <time>2019-09-01T09:12:39Z</time>
      </trkpt>
      <trkpt lat="43.32882" lon="-0.53929">
        <ele>124.15</ele>
        <time>2019-09-01T09:12:40Z</time>
      </trkpt>
      <trkpt lat="43.32879" lon="-0.53926">
        <ele>124.15</ele>
        <time>2019-09-01T09:12:41Z</time>
      </trkpt>
      <trkpt lat="43.32877" lon="-0.53922">
        <ele>124.15</ele>
        <time>2019-09-01T09:12:42Z</time>
      </trkpt>
      <trkpt lat="43.32874" lon="-0.53918">
        <ele>123.67</ele>
        <time>2019-09-01T09:12:43Z</time>
      </trkpt>
      <trkpt lat="43.32873" lon="-0.53913">
        <ele>123.67</ele>
        <time>2019-09-01T09:12:44Z</time>
      </trkpt>
      <trkpt lat="43.32872" lon="-0.53908">
        <ele>123.67</ele>
        <time>2019-09-01T09:12:45Z</time>
      </trkpt>
      <trkpt lat="43.32872" lon="-0.53904">
        <ele>123.19</ele>
        <time>2019-09-01T09:12:46Z</time>
      </trkpt>
      <trkpt lat="43.32871" lon="-0.53896">
        <ele>124.15</ele>
        <time>2019-09-01T09:12:49Z</time>
      </trkpt>
      <trkpt lat="43.32869" lon="-0.53895">
        <ele>124.15</ele>
        <time>2019-09-01T09:12:50Z</time>
      </trkpt>
      <trkpt lat="43.32868" lon="-0.53891">
        <ele>122.22</ele>
        <time>2019-09-01T09:12:59Z</time>
      </trkpt>
      <trkpt lat="43.32872" lon="-0.53892">
        <ele>131.84</ele>
        <time>2019-09-01T09:13:32Z</time>
      </trkpt>
      <trkpt lat="43.32873" lon="-0.53892">
        <ele>128.95</ele>
        <time>2019-09-01T09:14:02Z</time>
      </trkpt>
      <trkpt lat="43.3287" lon="-0.53895">
        <ele>130.88</ele>
        <time>2019-09-01T09:14:29Z</time>
      </trkpt>
      <trkpt lat="43.32872" lon="-0.53899">
        <ele>129.92</ele>
        <time>2019-09-01T09:15:03Z</time>
      </trkpt>
      <trkpt lat="43.3287" lon="-0.53898">
        <ele>125.59</ele>
        <time>2019-09-01T09:15:39Z</time>
      </trkpt>
      <trkpt lat="43.32873" lon="-0.53898">
        <ele>127.03</ele>
        <time>2019-09-01T09:15:54Z</time>
      </trkpt>
      <trkpt lat="43.3287" lon="-0.53896">
        <ele>126.07</ele>
        <time>2019-09-01T09:16:23Z</time>
      </trkpt>
      <trkpt lat="43.32867" lon="-0.53894">
        <ele>125.11</ele>
        <time>2019-09-01T09:16:36Z</time>
      </trkpt>
      <trkpt lat="43.32849" lon="-0.539">
        <ele>127.99</ele>
        <time>2019-09-01T09:16:45Z</time>
      </trkpt>
      <trkpt lat="43.32846" lon="-0.53898">
        <ele>127.99</ele>
        <time>2019-09-01T09:16:46Z</time>
      </trkpt>
      <trkpt lat="43.32845" lon="-0.53895">
        <ele>127.99</ele>
        <time>2019-09-01T09:16:47Z</time>
      </trkpt>
      <trkpt lat="43.3281" lon="-0.53868">
        <ele>127.99</ele>
        <time>2019-09-01T09:16:58Z</time>
      </trkpt>
      <trkpt lat="43.32756" lon="-0.53826">
        <ele>126.07</ele>
        <time>2019-09-01T09:17:14Z</time>
      </trkpt>
      <trkpt lat="43.32708" lon="-0.53787">
        <ele>123.67</ele>
        <time>2019-09-01T09:17:28Z</time>
      </trkpt>
      <trkpt lat="43.32671" lon="-0.53757">
        <ele>122.22</ele>
        <time>2019-09-01T09:17:40Z</time>
      </trkpt>
      <trkpt lat="43.3265" lon="-0.53779">
        <ele>123.19</ele>
        <time>2019-09-01T09:17:48Z</time>
      </trkpt>
      <trkpt lat="43.32631" lon="-0.53815">
        <ele>122.22</ele>
        <time>2019-09-01T09:17:59Z</time>
      </trkpt>
      <trkpt lat="43.32592" lon="-0.53871">
        <ele>126.55</ele>
        <time>2019-09-01T09:18:17Z</time>
      </trkpt>
      <trkpt lat="43.32565" lon="-0.53915">
        <ele>131.84</ele>
        <time>2019-09-01T09:18:32Z</time>
      </trkpt>
      <trkpt lat="43.32542" lon="-0.53951">
        <ele>135.68</ele>
        <time>2019-09-01T09:18:51Z</time>
      </trkpt>
      <trkpt lat="43.32523" lon="-0.53977">
        <ele>140.49</ele>
        <time>2019-09-01T09:19:09Z</time>
      </trkpt>
      <trkpt lat="43.32508" lon="-0.53991">
        <ele>143.85</ele>
        <time>2019-09-01T09:19:21Z</time>
      </trkpt>
      <trkpt lat="43.32506" lon="-0.53991">
        <ele>143.85</ele>
        <time>2019-09-01T09:19:22Z</time>
      </trkpt>
      <trkpt lat="43.32504" lon="-0.5399">
        <ele>143.85</ele>
        <time>2019-09-01T09:19:23Z</time>
      </trkpt>
      <trkpt lat="43.32502" lon="-0.53989">
        <ele>142.89</ele>
        <time>2019-09-01T09:19:24Z</time>
      </trkpt>
      <trkpt lat="43.32499" lon="-0.53985">
        <ele>142.41</ele>
        <time>2019-09-01T09:19:25Z</time>
      </trkpt>
      <trkpt lat="43.32497" lon="-0.53981">
        <ele>141.93</ele>
        <time>2019-09-01T09:19:26Z</time>
      </trkpt>
      <trkpt lat="43.32471" lon="-0.53937">
        <ele>138.57</ele>
        <time>2019-09-01T09:19:33Z</time>
      </trkpt>
      <trkpt lat="43.32415" lon="-0.53821">
        <ele>134.72</ele>
        <time>2019-09-01T09:19:50Z</time>
      </trkpt>
      <trkpt lat="43.3236" lon="-0.53741">
        <ele>134.24</ele>
        <time>2019-09-01T09:20:05Z</time>
      </trkpt>
      <trkpt lat="43.32331" lon="-0.53706">
        <ele>134.24</ele>
        <time>2019-09-01T09:20:14Z</time>
      </trkpt>
      <trkpt lat="43.32328" lon="-0.53701">
        <ele>134.24</ele>
        <time>2019-09-01T09:20:15Z</time>
      </trkpt>
      <trkpt lat="43.32325" lon="-0.53696">
        <ele>134.24</ele>
        <time>2019-09-01T09:20:16Z</time>
      </trkpt>
      <trkpt lat="43.32323" lon="-0.5369">
        <ele>134.24</ele>
        <time>2019-09-01T09:20:17Z</time>
      </trkpt>
      <trkpt lat="43.3232" lon="-0.53684">
        <ele>134.24</ele>
        <time>2019-09-01T09:20:18Z</time>
      </trkpt>
      <trkpt lat="43.32318" lon="-0.53679">
        <ele>134.24</ele>
        <time>2019-09-01T09:20:19Z</time>
      </trkpt>
      <trkpt lat="43.32307" lon="-0.53645">
        <ele>135.68</ele>
        <time>2019-09-01T09:20:25Z</time>
      </trkpt>
      <trkpt lat="43.32273" lon="-0.5357">
        <ele>139.53</ele>
        <time>2019-09-01T09:20:41Z</time>
      </trkpt>
      <trkpt lat="43.32239" lon="-0.53495">
        <ele>140.97</ele>
        <time>2019-09-01T09:20:58Z</time>
      </trkpt>
      <trkpt lat="43.32207" lon="-0.53408">
        <ele>142.41</ele>
        <time>2019-09-01T09:21:16Z</time>
      </trkpt>
      <trkpt lat="43.32176" lon="-0.53317">
        <ele>142.89</ele>
        <time>2019-09-01T09:21:34Z</time>
      </trkpt>
      <trkpt lat="43.32135" lon="-0.53249">
        <ele>139.53</ele>
        <time>2019-09-01T09:21:46Z</time>
      </trkpt>
      <trkpt lat="43.32132" lon="-0.53242">
        <ele>139.05</ele>
        <time>2019-09-01T09:21:47Z</time>
      </trkpt>
      <trkpt lat="43.3213" lon="-0.53234">
        <ele>138.57</ele>
        <time>2019-09-01T09:21:48Z</time>
      </trkpt>
      <trkpt lat="43.32128" lon="-0.53226">
        <ele>138.09</ele>
        <time>2019-09-01T09:21:49Z</time>
      </trkpt>
      <trkpt lat="43.32127" lon="-0.53217">
        <ele>137.61</ele>
        <time>2019-09-01T09:21:50Z</time>
      </trkpt>
      <trkpt lat="43.32096" lon="-0.53095">
        <ele>135.2</ele>
        <time>2019-09-01T09:22:04Z</time>
      </trkpt>
      <trkpt lat="43.32091" lon="-0.5308">
        <ele>134.72</ele>
        <time>2019-09-01T09:22:06Z</time>
      </trkpt>
      <trkpt lat="43.32044" lon="-0.53016">
        <ele>133.76</ele>
        <time>2019-09-01T09:22:18Z</time>
      </trkpt>
      <trkpt lat="43.32013" lon="-0.52978">
        <ele>132.8</ele>
        <time>2019-09-01T09:22:25Z</time>
      </trkpt>
      <trkpt lat="43.32006" lon="-0.52964">
        <ele>132.32</ele>
        <time>2019-09-01T09:22:27Z</time>
      </trkpt>
      <trkpt lat="43.31967" lon="-0.52887">
        <ele>131.84</ele>
        <time>2019-09-01T09:22:40Z</time>
      </trkpt>
      <trkpt lat="43.31941" lon="-0.52788">
        <ele>132.32</ele>
        <time>2019-09-01T09:22:54Z</time>
      </trkpt>
      <trkpt lat="43.31918" lon="-0.52686">
        <ele>132.32</ele>
        <time>2019-09-01T09:23:09Z</time>
      </trkpt>
      <trkpt lat="43.31917" lon="-0.5268">
        <ele>132.32</ele>
        <time>2019-09-01T09:23:10Z</time>
      </trkpt>
      <trkpt lat="43.31918" lon="-0.52674">
        <ele>132.32</ele>
        <time>2019-09-01T09:23:11Z</time>
      </trkpt>
      <trkpt lat="43.31919" lon="-0.52668">
        <ele>132.32</ele>
        <time>2019-09-01T09:23:12Z</time>
      </trkpt>
      <trkpt lat="43.31921" lon="-0.52661">
        <ele>132.32</ele>
        <time>2019-09-01T09:23:13Z</time>
      </trkpt>
      <trkpt lat="43.31923" lon="-0.52655">
        <ele>132.32</ele>
        <time>2019-09-01T09:23:14Z</time>
      </trkpt>
      <trkpt lat="43.31936" lon="-0.52616">
        <ele>131.84</ele>
        <time>2019-09-01T09:23:20Z</time>
      </trkpt>
      <trkpt lat="43.31936" lon="-0.52609">
        <ele>131.84</ele>
        <time>2019-09-01T09:23:21Z</time>
      </trkpt>
      <trkpt lat="43.31936" lon="-0.52602">
        <ele>131.84</ele>
        <time>2019-09-01T09:23:22Z</time>
      </trkpt>
      <trkpt lat="43.31935" lon="-0.52595">
        <ele>131.84</ele>
        <time>2019-09-01T09:23:23Z</time>
      </trkpt>
      <trkpt lat="43.31934" lon="-0.52588">
        <ele>131.84</ele>
        <time>2019-09-01T09:23:24Z</time>
      </trkpt>
      <trkpt lat="43.31931" lon="-0.52582">
        <ele>131.36</ele>
        <time>2019-09-01T09:23:25Z</time>
      </trkpt>
      <trkpt lat="43.31928" lon="-0.52577">
        <ele>131.36</ele>
        <time>2019-09-01T09:23:26Z</time>
      </trkpt>
      <trkpt lat="43.31925" lon="-0.52572">
        <ele>131.36</ele>
        <time>2019-09-01T09:23:27Z</time>
      </trkpt>
      <trkpt lat="43.31883" lon="-0.52524">
        <ele>129.92</ele>
        <time>2019-09-01T09:23:40Z</time>
      </trkpt>
      <trkpt lat="43.31864" lon="-0.52511">
        <ele>129.43</ele>
        <time>2019-09-01T09:23:45Z</time>
      </trkpt>
      <trkpt lat="43.3186" lon="-0.5251">
        <ele>129.43</ele>
        <time>2019-09-01T09:23:46Z</time>
      </trkpt>
      <trkpt lat="43.31856" lon="-0.52508">
        <ele>129.92</ele>
        <time>2019-09-01T09:23:47Z</time>
      </trkpt>
      <trkpt lat="43.31852" lon="-0.52506">
        <ele>129.92</ele>
        <time>2019-09-01T09:23:48Z</time>
      </trkpt>
      <trkpt lat="43.31848" lon="-0.52504">
        <ele>130.4</ele>
        <time>2019-09-01T09:23:49Z</time>
      </trkpt>
      <trkpt lat="43.31777" lon="-0.52473">
        <ele>130.88</ele>
        <time>2019-09-01T09:24:06Z</time>
      </trkpt>
      <trkpt lat="43.31768" lon="-0.5247">
        <ele>130.88</ele>
        <time>2019-09-01T09:24:08Z</time>
      </trkpt>
      <trkpt lat="43.31764" lon="-0.52469">
        <ele>130.88</ele>
        <time>2019-09-01T09:24:09Z</time>
      </trkpt>
      <trkpt lat="43.31759" lon="-0.52469">
        <ele>130.88</ele>
        <time>2019-09-01T09:24:10Z</time>
      </trkpt>
      <trkpt lat="43.31738" lon="-0.52464">
        <ele>130.88</ele>
        <time>2019-09-01T09:24:15Z</time>
      </trkpt>
      <trkpt lat="43.31677" lon="-0.52418">
        <ele>128.95</ele>
        <time>2019-09-01T09:24:31Z</time>
      </trkpt>
      <trkpt lat="43.31652" lon="-0.52403">
        <ele>129.92</ele>
        <time>2019-09-01T09:24:39Z</time>
      </trkpt>
      <trkpt lat="43.3165" lon="-0.52404">
        <ele>129.92</ele>
        <time>2019-09-01T09:24:40Z</time>
      </trkpt>
      <trkpt lat="43.31648" lon="-0.52405">
        <ele>130.4</ele>
        <time>2019-09-01T09:24:41Z</time>
      </trkpt>
      <trkpt lat="43.31647" lon="-0.52406">
        <ele>130.4</ele>
        <time>2019-09-01T09:24:42Z</time>
      </trkpt>
      <trkpt lat="43.31645" lon="-0.52408">
        <ele>130.88</ele>
        <time>2019-09-01T09:24:43Z</time>
      </trkpt>
      <trkpt lat="43.31643" lon="-0.52409">
        <ele>130.88</ele>
        <time>2019-09-01T09:24:44Z</time>
      </trkpt>
      <trkpt lat="43.3164" lon="-0.5241">
        <ele>131.36</ele>
        <time>2019-09-01T09:24:45Z</time>
      </trkpt>
      <trkpt lat="43.31638" lon="-0.5241">
        <ele>131.36</ele>
        <time>2019-09-01T09:24:46Z</time>
      </trkpt>
      <trkpt lat="43.31635" lon="-0.52411">
        <ele>131.84</ele>
        <time>2019-09-01T09:24:47Z</time>
      </trkpt>
      <trkpt lat="43.31633" lon="-0.5241">
        <ele>131.84</ele>
        <time>2019-09-01T09:24:48Z</time>
      </trkpt>
      <trkpt lat="43.3163" lon="-0.52409">
        <ele>131.84</ele>
        <time>2019-09-01T09:24:49Z</time>
      </trkpt>
      <trkpt lat="43.31592" lon="-0.52401">
        <ele>132.32</ele>
        <time>2019-09-01T09:25:01Z</time>
      </trkpt>
      <trkpt lat="43.31559" lon="-0.52397">
        <ele>134.24</ele>
        <time>2019-09-01T09:25:13Z</time>
      </trkpt>
      <trkpt lat="43.31534" lon="-0.52388">
        <ele>134.72</ele>
        <time>2019-09-01T09:25:22Z</time>
      </trkpt>
      <trkpt lat="43.31529" lon="-0.52388">
        <ele>135.2</ele>
        <time>2019-09-01T09:25:24Z</time>
      </trkpt>
      <trkpt lat="43.31526" lon="-0.52389">
        <ele>135.68</ele>
        <time>2019-09-01T09:25:25Z</time>
      </trkpt>
      <trkpt lat="43.31524" lon="-0.52392">
        <ele>136.16</ele>
        <time>2019-09-01T09:25:26Z</time>
      </trkpt>
      <trkpt lat="43.31501" lon="-0.52391">
        <ele>137.13</ele>
        <time>2019-09-01T09:25:32Z</time>
      </trkpt>
      <trkpt lat="43.31445" lon="-0.52365">
        <ele>136.64</ele>
        <time>2019-09-01T09:25:46Z</time>
      </trkpt>
      <trkpt lat="43.31402" lon="-0.52345">
        <ele>135.2</ele>
        <time>2019-09-01T09:26:00Z</time>
      </trkpt>
      <trkpt lat="43.31391" lon="-0.52341">
        <ele>135.2</ele>
        <time>2019-09-01T09:26:11Z</time>
      </trkpt>
      <trkpt lat="43.31388" lon="-0.52338">
        <ele>134.72</ele>
        <time>2019-09-01T09:26:27Z</time>
      </trkpt>
      <trkpt lat="43.31383" lon="-0.52337">
        <ele>134.24</ele>
        <time>2019-09-01T09:26:41Z</time>
      </trkpt>
      <trkpt lat="43.31379" lon="-0.52333">
        <ele>135.68</ele>
        <time>2019-09-01T09:26:53Z</time>
      </trkpt>
      <trkpt lat="43.31371" lon="-0.52325">
        <ele>135.2</ele>
        <time>2019-09-01T09:27:05Z</time>
      </trkpt>
      <trkpt lat="43.31371" lon="-0.52324">
        <ele>135.68</ele>
        <time>2019-09-01T09:27:06Z</time>
      </trkpt>
      <trkpt lat="43.31372" lon="-0.52309">
        <ele>137.61</ele>
        <time>2019-09-01T09:27:14Z</time>
      </trkpt>
      <trkpt lat="43.3137" lon="-0.52305">
        <ele>137.13</ele>
        <time>2019-09-01T09:27:17Z</time>
      </trkpt>
      <trkpt lat="43.31334" lon="-0.52291">
        <ele>135.2</ele>
        <time>2019-09-01T09:27:31Z</time>
      </trkpt>
      <trkpt lat="43.3133" lon="-0.52287">
        <ele>135.2</ele>
        <time>2019-09-01T09:27:33Z</time>
      </trkpt>
      <trkpt lat="43.31331" lon="-0.52273">
        <ele>136.16</ele>
        <time>2019-09-01T09:27:37Z</time>
      </trkpt>
      <trkpt lat="43.3132" lon="-0.52244">
        <ele>135.2</ele>
        <time>2019-09-01T09:27:47Z</time>
      </trkpt>
      <trkpt lat="43.31311" lon="-0.52232">
        <ele>135.68</ele>
        <time>2019-09-01T09:27:51Z</time>
      </trkpt>
      <trkpt lat="43.31314" lon="-0.52218">
        <ele>137.13</ele>
        <time>2019-09-01T09:27:56Z</time>
      </trkpt>
      <trkpt lat="43.31313" lon="-0.52201">
        <ele>138.09</ele>
        <time>2019-09-01T09:28:02Z</time>
      </trkpt>
      <trkpt lat="43.313" lon="-0.522">
        <ele>140.01</ele>
        <time>2019-09-01T09:28:07Z</time>
      </trkpt>
      <trkpt lat="43.31283" lon="-0.52196">
        <ele>139.05</ele>
        <time>2019-09-01T09:28:14Z</time>
      </trkpt>
      <trkpt lat="43.31281" lon="-0.52205">
        <ele>138.09</ele>
        <time>2019-09-01T09:28:17Z</time>
      </trkpt>
      <trkpt lat="43.31268" lon="-0.52219">
        <ele>138.57</ele>
        <time>2019-09-01T09:28:24Z</time>
      </trkpt>
      <trkpt lat="43.31249" lon="-0.52215">
        <ele>138.57</ele>
        <time>2019-09-01T09:28:31Z</time>
      </trkpt>
      <trkpt lat="43.31238" lon="-0.52212">
        <ele>139.05</ele>
        <time>2019-09-01T09:28:34Z</time>
      </trkpt>
      <trkpt lat="43.3123" lon="-0.52196">
        <ele>138.57</ele>
        <time>2019-09-01T09:28:40Z</time>
      </trkpt>
      <trkpt lat="43.31216" lon="-0.52188">
        <ele>137.13</ele>
        <time>2019-09-01T09:28:48Z</time>
      </trkpt>
      <trkpt lat="43.31204" lon="-0.52179">
        <ele>135.68</ele>
        <time>2019-09-01T09:28:54Z</time>
      </trkpt>
      <trkpt lat="43.31181" lon="-0.52165">
        <ele>136.64</ele>
        <time>2019-09-01T09:29:04Z</time>
      </trkpt>
      <trkpt lat="43.31173" lon="-0.52162">
        <ele>137.13</ele>
        <time>2019-09-01T09:29:09Z</time>
      </trkpt>
      <trkpt lat="43.31147" lon="-0.5219">
        <ele>137.61</ele>
        <time>2019-09-01T09:29:22Z</time>
      </trkpt>
      <trkpt lat="43.31101" lon="-0.52178">
        <ele>139.53</ele>
        <time>2019-09-01T09:29:37Z</time>
      </trkpt>
      <trkpt lat="43.31077" lon="-0.5215">
        <ele>139.05</ele>
        <time>2019-09-01T09:29:47Z</time>
      </trkpt>
      <trkpt lat="43.31044" lon="-0.52119">
        <ele>137.61</ele>
        <time>2019-09-01T09:30:00Z</time>
      </trkpt>
      <trkpt lat="43.31042" lon="-0.52117">
        <ele>138.09</ele>
        <time>2019-09-01T09:30:01Z</time>
      </trkpt>
      <trkpt lat="43.31039" lon="-0.52116">
        <ele>137.61</ele>
        <time>2019-09-01T09:30:02Z</time>
      </trkpt>
      <trkpt lat="43.31029" lon="-0.5213">
        <ele>138.57</ele>
        <time>2019-09-01T09:30:07Z</time>
      </trkpt>
      <trkpt lat="43.31017" lon="-0.52161">
        <ele>139.53</ele>
        <time>2019-09-01T09:30:16Z</time>
      </trkpt>
      <trkpt lat="43.31" lon="-0.52218">
        <ele>140.49</ele>
        <time>2019-09-01T09:30:31Z</time>
      </trkpt>
      <trkpt lat="43.30972" lon="-0.52247">
        <ele>145.78</ele>
        <time>2019-09-01T09:30:43Z</time>
      </trkpt>
      <trkpt lat="43.30941" lon="-0.52282">
        <ele>147.7</ele>
        <time>2019-09-01T09:30:57Z</time>
      </trkpt>
      <trkpt lat="43.30918" lon="-0.52312">
        <ele>146.74</ele>
        <time>2019-09-01T09:31:09Z</time>
      </trkpt>
      <trkpt lat="43.30887" lon="-0.52332">
        <ele>148.66</ele>
        <time>2019-09-01T09:31:23Z</time>
      </trkpt>
      <trkpt lat="43.3085" lon="-0.52362">
        <ele>149.62</ele>
        <time>2019-09-01T09:31:39Z</time>
      </trkpt>
      <trkpt lat="43.30818" lon="-0.52402">
        <ele>151.06</ele>
        <time>2019-09-01T09:31:56Z</time>
      </trkpt>
      <trkpt lat="43.30786" lon="-0.52425">
        <ele>152.99</ele>
        <time>2019-09-01T09:32:12Z</time>
      </trkpt>
      <trkpt lat="43.30753" lon="-0.52442">
        <ele>155.39</ele>
        <time>2019-09-01T09:32:27Z</time>
      </trkpt>
      <trkpt lat="43.30725" lon="-0.52462">
        <ele>159.24</ele>
        <time>2019-09-01T09:32:45Z</time>
      </trkpt>
      <trkpt lat="43.30708" lon="-0.52475">
        <ele>162.12</ele>
        <time>2019-09-01T09:32:59Z</time>
      </trkpt>
      <trkpt lat="43.30698" lon="-0.52496">
        <ele>162.6</ele>
        <time>2019-09-01T09:33:13Z</time>
      </trkpt>
      <trkpt lat="43.30687" lon="-0.52523">
        <ele>165.48</ele>
        <time>2019-09-01T09:33:29Z</time>
      </trkpt>
      <trkpt lat="43.30676" lon="-0.52544">
        <ele>170.77</ele>
        <time>2019-09-01T09:33:44Z</time>
      </trkpt>
      <trkpt lat="43.30665" lon="-0.52559">
        <ele>173.66</ele>
        <time>2019-09-01T09:33:58Z</time>
      </trkpt>
      <trkpt lat="43.30654" lon="-0.52571">
        <ele>175.58</ele>
        <time>2019-09-01T09:34:12Z</time>
      </trkpt>
      <trkpt lat="43.30643" lon="-0.52585">
        <ele>177.98</ele>
        <time>2019-09-01T09:34:23Z</time>
      </trkpt>
      <trkpt lat="43.30627" lon="-0.52602">
        <ele>180.87</ele>
        <time>2019-09-01T09:34:36Z</time>
      </trkpt>
      <trkpt lat="43.30614" lon="-0.52617">
        <ele>183.75</ele>
        <time>2019-09-01T09:34:49Z</time>
      </trkpt>
      <trkpt lat="43.30613" lon="-0.52618">
        <ele>184.23</ele>
        <time>2019-09-01T09:34:50Z</time>
      </trkpt>
      <trkpt lat="43.30611" lon="-0.52619">
        <ele>184.23</ele>
        <time>2019-09-01T09:34:51Z</time>
      </trkpt>
      <trkpt lat="43.3061" lon="-0.5262">
        <ele>184.23</ele>
        <time>2019-09-01T09:34:52Z</time>
      </trkpt>
      <trkpt lat="43.30608" lon="-0.5262">
        <ele>184.71</ele>
        <time>2019-09-01T09:34:53Z</time>
      </trkpt>
      <trkpt lat="43.3059" lon="-0.5263">
        <ele>186.63</ele>
        <time>2019-09-01T09:35:06Z</time>
      </trkpt>
      <trkpt lat="43.30567" lon="-0.52648">
        <ele>189.52</ele>
        <time>2019-09-01T09:35:23Z</time>
      </trkpt>
      <trkpt lat="43.30548" lon="-0.52665">
        <ele>189.52</ele>
        <time>2019-09-01T09:35:39Z</time>
      </trkpt>
      <trkpt lat="43.3053" lon="-0.52684">
        <ele>190.96</ele>
        <time>2019-09-01T09:35:54Z</time>
      </trkpt>
      <trkpt lat="43.30508" lon="-0.52698">
        <ele>193.84</ele>
        <time>2019-09-01T09:36:10Z</time>
      </trkpt>
      <trkpt lat="43.30482" lon="-0.5271">
        <ele>196.25</ele>
        <time>2019-09-01T09:36:30Z</time>
      </trkpt>
      <trkpt lat="43.3046" lon="-0.52718">
        <ele>197.69</ele>
        <time>2019-09-01T09:36:46Z</time>
      </trkpt>
      <trkpt lat="43.30437" lon="-0.52726">
        <ele>200.09</ele>
        <time>2019-09-01T09:37:03Z</time>
      </trkpt>
      <trkpt lat="43.30411" lon="-0.52732">
        <ele>202.01</ele>
        <time>2019-09-01T09:37:20Z</time>
      </trkpt>
      <trkpt lat="43.30387" lon="-0.52744">
        <ele>204.9</ele>
        <time>2019-09-01T09:37:37Z</time>
      </trkpt>
      <trkpt lat="43.3036" lon="-0.52775">
        <ele>205.86</ele>
        <time>2019-09-01T09:37:53Z</time>
      </trkpt>
      <trkpt lat="43.30331" lon="-0.52806">
        <ele>206.34</ele>
        <time>2019-09-01T09:38:10Z</time>
      </trkpt>
      <trkpt lat="43.30308" lon="-0.52835">
        <ele>207.78</ele>
        <time>2019-09-01T09:38:25Z</time>
      </trkpt>
      <trkpt lat="43.30282" lon="-0.52865">
        <ele>210.67</ele>
        <time>2019-09-01T09:38:42Z</time>
      </trkpt>
      <trkpt lat="43.30274" lon="-0.5287">
        <ele>211.15</ele>
        <time>2019-09-01T09:38:48Z</time>
      </trkpt>
      <trkpt lat="43.30272" lon="-0.52872">
        <ele>211.63</ele>
        <time>2019-09-01T09:38:50Z</time>
      </trkpt>
      <trkpt lat="43.30271" lon="-0.52874">
        <ele>211.63</ele>
        <time>2019-09-01T09:38:51Z</time>
      </trkpt>
      <trkpt lat="43.3027" lon="-0.52875">
        <ele>211.63</ele>
        <time>2019-09-01T09:38:52Z</time>
      </trkpt>
      <trkpt lat="43.30269" lon="-0.52876">
        <ele>211.63</ele>
        <time>2019-09-01T09:38:53Z</time>
      </trkpt>
      <trkpt lat="43.30268" lon="-0.52877">
        <ele>211.63</ele>
        <time>2019-09-01T09:38:54Z</time>
      </trkpt>
      <trkpt lat="43.30249" lon="-0.52898">
        <ele>213.55</ele>
        <time>2019-09-01T09:39:10Z</time>
      </trkpt>
      <trkpt lat="43.30233" lon="-0.52919">
        <ele>215.95</ele>
        <time>2019-09-01T09:39:26Z</time>
      </trkpt>
      <trkpt lat="43.30217" lon="-0.52934">
        <ele>219.32</ele>
        <time>2019-09-01T09:39:41Z</time>
      </trkpt>
      <trkpt lat="43.30202" lon="-0.52951">
        <ele>224.61</ele>
        <time>2019-09-01T09:39:57Z</time>
      </trkpt>
      <trkpt lat="43.30184" lon="-0.52961">
        <ele>226.05</ele>
        <time>2019-09-01T09:40:12Z</time>
      </trkpt>
      <trkpt lat="43.30183" lon="-0.52961">
        <ele>226.05</ele>
        <time>2019-09-01T09:40:13Z</time>
      </trkpt>
      <trkpt lat="43.30181" lon="-0.52962">
        <ele>226.05</ele>
        <time>2019-09-01T09:40:14Z</time>
      </trkpt>
      <trkpt lat="43.30179" lon="-0.52963">
        <ele>226.05</ele>
        <time>2019-09-01T09:40:15Z</time>
      </trkpt>
      <trkpt lat="43.30178" lon="-0.52963">
        <ele>226.05</ele>
        <time>2019-09-01T09:40:16Z</time>
      </trkpt>
      <trkpt lat="43.30176" lon="-0.52964">
        <ele>226.05</ele>
        <time>2019-09-01T09:40:17Z</time>
      </trkpt>
      <trkpt lat="43.30175" lon="-0.52965">
        <ele>225.57</ele>
        <time>2019-09-01T09:40:18Z</time>
      </trkpt>
      <trkpt lat="43.30173" lon="-0.52965">
        <ele>225.57</ele>
        <time>2019-09-01T09:40:19Z</time>
      </trkpt>
      <trkpt lat="43.30172" lon="-0.52965">
        <ele>225.57</ele>
        <time>2019-09-01T09:40:20Z</time>
      </trkpt>
      <trkpt lat="43.30148" lon="-0.5297">
        <ele>227.97</ele>
        <time>2019-09-01T09:40:36Z</time>
      </trkpt>
      <trkpt lat="43.30125" lon="-0.52971">
        <ele>229.41</ele>
        <time>2019-09-01T09:40:52Z</time>
      </trkpt>
      <trkpt lat="43.3011" lon="-0.52972">
        <ele>229.41</ele>
        <time>2019-09-01T09:41:02Z</time>
      </trkpt>
      <trkpt lat="43.30108" lon="-0.52973">
        <ele>229.41</ele>
        <time>2019-09-01T09:41:03Z</time>
      </trkpt>
      <trkpt lat="43.30107" lon="-0.52974">
        <ele>229.41</ele>
        <time>2019-09-01T09:41:04Z</time>
      </trkpt>
      <trkpt lat="43.30105" lon="-0.52975">
        <ele>229.89</ele>
        <time>2019-09-01T09:41:05Z</time>
      </trkpt>
      <trkpt lat="43.30103" lon="-0.52977">
        <ele>229.89</ele>
        <time>2019-09-01T09:41:06Z</time>
      </trkpt>
      <trkpt lat="43.30101" lon="-0.52978">
        <ele>229.89</ele>
        <time>2019-09-01T09:41:07Z</time>
      </trkpt>
      <trkpt lat="43.30068" lon="-0.53">
        <ele>231.33</ele>
        <time>2019-09-01T09:41:23Z</time>
      </trkpt>
      <trkpt lat="43.30035" lon="-0.5303">
        <ele>233.26</ele>
        <time>2019-09-01T09:41:39Z</time>
      </trkpt>
      <trkpt lat="43.2999" lon="-0.53058">
        <ele>235.66</ele>
        <time>2019-09-01T09:41:59Z</time>
      </trkpt>
      <trkpt lat="43.29952" lon="-0.53083">
        <ele>237.58</ele>
        <time>2019-09-01T09:42:17Z</time>
      </trkpt>
      <trkpt lat="43.29925" lon="-0.53102">
        <ele>239.02</ele>
        <time>2019-09-01T09:42:32Z</time>
      </trkpt>
      <trkpt lat="43.29924" lon="-0.53105">
        <ele>239.02</ele>
        <time>2019-09-01T09:42:33Z</time>
      </trkpt>
      <trkpt lat="43.29924" lon="-0.53107">
        <ele>239.51</ele>
        <time>2019-09-01T09:42:34Z</time>
      </trkpt>
      <trkpt lat="43.29925" lon="-0.53109">
        <ele>239.51</ele>
        <time>2019-09-01T09:42:35Z</time>
      </trkpt>
      <trkpt lat="43.29926" lon="-0.5311">
        <ele>239.99</ele>
        <time>2019-09-01T09:42:36Z</time>
      </trkpt>
      <trkpt lat="43.29928" lon="-0.53111">
        <ele>239.99</ele>
        <time>2019-09-01T09:42:37Z</time>
      </trkpt>
      <trkpt lat="43.2993" lon="-0.53112">
        <ele>239.99</ele>
        <time>2019-09-01T09:42:38Z</time>
      </trkpt>
      <trkpt lat="43.29932" lon="-0.53113">
        <ele>240.47</ele>
        <time>2019-09-01T09:42:39Z</time>
      </trkpt>
      <trkpt lat="43.29963" lon="-0.53129">
        <ele>242.39</ele>
        <time>2019-09-01T09:42:54Z</time>
      </trkpt>
      <trkpt lat="43.30005" lon="-0.5315">
        <ele>243.83</ele>
        <time>2019-09-01T09:43:11Z</time>
      </trkpt>
      <trkpt lat="43.30042" lon="-0.53168">
        <ele>244.79</ele>
        <time>2019-09-01T09:43:25Z</time>
      </trkpt>
      <trkpt lat="43.30079" lon="-0.53186">
        <ele>243.83</ele>
        <time>2019-09-01T09:43:37Z</time>
      </trkpt>
      <trkpt lat="43.30149" lon="-0.53216">
        <ele>238.54</ele>
        <time>2019-09-01T09:43:49Z</time>
      </trkpt>
      <trkpt lat="43.30163" lon="-0.53223">
        <ele>237.1</ele>
        <time>2019-09-01T09:43:51Z</time>
      </trkpt>
      <trkpt lat="43.30243" lon="-0.53295">
        <ele>232.3</ele>
        <time>2019-09-01T09:44:04Z</time>
      </trkpt>
      <trkpt lat="43.30247" lon="-0.53301">
        <ele>232.3</ele>
        <time>2019-09-01T09:44:05Z</time>
      </trkpt>
      <trkpt lat="43.3026" lon="-0.53317">
        <ele>232.3</ele>
        <time>2019-09-01T09:44:08Z</time>
      </trkpt>
      <trkpt lat="43.30273" lon="-0.5333">
        <ele>232.3</ele>
        <time>2019-09-01T09:44:11Z</time>
      </trkpt>
      <trkpt lat="43.3031" lon="-0.53379">
        <ele>235.18</ele>
        <time>2019-09-01T09:44:22Z</time>
      </trkpt>
      <trkpt lat="43.30355" lon="-0.53438">
        <ele>237.1</ele>
        <time>2019-09-01T09:44:39Z</time>
      </trkpt>
      <trkpt lat="43.30389" lon="-0.53482">
        <ele>239.02</ele>
        <time>2019-09-01T09:44:55Z</time>
      </trkpt>
      <trkpt lat="43.30414" lon="-0.53507">
        <ele>240.47</ele>
        <time>2019-09-01T09:45:07Z</time>
      </trkpt>
      <trkpt lat="43.3044" lon="-0.53539">
        <ele>244.31</ele>
        <time>2019-09-01T09:45:24Z</time>
      </trkpt>
      <trkpt lat="43.30463" lon="-0.53576">
        <ele>245.75</ele>
        <time>2019-09-01T09:45:40Z</time>
      </trkpt>
      <trkpt lat="43.30476" lon="-0.53593">
        <ele>248.64</ele>
        <time>2019-09-01T09:45:52Z</time>
      </trkpt>
      <trkpt lat="43.30477" lon="-0.53594">
        <ele>249.12</ele>
        <time>2019-09-01T09:45:53Z</time>
      </trkpt>
      <trkpt lat="43.30478" lon="-0.53595">
        <ele>249.12</ele>
        <time>2019-09-01T09:45:54Z</time>
      </trkpt>
      <trkpt lat="43.30479" lon="-0.53597">
        <ele>249.6</ele>
        <time>2019-09-01T09:45:55Z</time>
      </trkpt>
      <trkpt lat="43.3048" lon="-0.53597">
        <ele>249.6</ele>
        <time>2019-09-01T09:45:56Z</time>
      </trkpt>
      <trkpt lat="43.30481" lon="-0.53599">
        <ele>250.08</ele>
        <time>2019-09-01T09:45:57Z</time>
      </trkpt>
      <trkpt lat="43.30496" lon="-0.53618">
        <ele>251.04</ele>
        <time>2019-09-01T09:46:13Z</time>
      </trkpt>
      <trkpt lat="43.30513" lon="-0.53635">
        <ele>253.93</ele>
        <time>2019-09-01T09:46:29Z</time>
      </trkpt>
      <trkpt lat="43.30529" lon="-0.53651">
        <ele>256.33</ele>
        <time>2019-09-01T09:46:43Z</time>
      </trkpt>
      <trkpt lat="43.30543" lon="-0.53677">
        <ele>259.69</ele>
        <time>2019-09-01T09:46:59Z</time>
      </trkpt>
      <trkpt lat="43.30554" lon="-0.53711">
        <ele>262.58</ele>
        <time>2019-09-01T09:47:17Z</time>
      </trkpt>
      <trkpt lat="43.30561" lon="-0.53738">
        <ele>265.94</ele>
        <time>2019-09-01T09:47:33Z</time>
      </trkpt>
      <trkpt lat="43.30566" lon="-0.53758">
        <ele>266.9</ele>
        <time>2019-09-01T09:47:44Z</time>
      </trkpt>
      <trkpt lat="43.30567" lon="-0.5376">
        <ele>266.9</ele>
        <time>2019-09-01T09:47:45Z</time>
      </trkpt>
      <trkpt lat="43.30567" lon="-0.53761">
        <ele>266.9</ele>
        <time>2019-09-01T09:47:46Z</time>
      </trkpt>
      <trkpt lat="43.30573" lon="-0.53802">
        <ele>267.38</ele>
        <time>2019-09-01T09:48:04Z</time>
      </trkpt>
      <trkpt lat="43.30576" lon="-0.53837">
        <ele>271.23</ele>
        <time>2019-09-01T09:48:21Z</time>
      </trkpt>
      <trkpt lat="43.30588" lon="-0.53863">
        <ele>274.11</ele>
        <time>2019-09-01T09:48:35Z</time>
      </trkpt>
      <trkpt lat="43.3061" lon="-0.53873">
        <ele>277</ele>
        <time>2019-09-01T09:48:51Z</time>
      </trkpt>
      <trkpt lat="43.30625" lon="-0.53883">
        <ele>279.4</ele>
        <time>2019-09-01T09:49:04Z</time>
      </trkpt>
      <trkpt lat="43.30625" lon="-0.53885">
        <ele>279.4</ele>
        <time>2019-09-01T09:49:05Z</time>
      </trkpt>
      <trkpt lat="43.30624" lon="-0.53886">
        <ele>279.4</ele>
        <time>2019-09-01T09:49:06Z</time>
      </trkpt>
      <trkpt lat="43.30622" lon="-0.53888">
        <ele>279.4</ele>
        <time>2019-09-01T09:49:07Z</time>
      </trkpt>
      <trkpt lat="43.30621" lon="-0.53889">
        <ele>279.4</ele>
        <time>2019-09-01T09:49:08Z</time>
      </trkpt>
      <trkpt lat="43.30618" lon="-0.53889">
        <ele>279.4</ele>
        <time>2019-09-01T09:49:09Z</time>
      </trkpt>
      <trkpt lat="43.30615" lon="-0.53889">
        <ele>279.4</ele>
        <time>2019-09-01T09:49:10Z</time>
      </trkpt>
      <trkpt lat="43.30611" lon="-0.5389">
        <ele>279.4</ele>
        <time>2019-09-01T09:49:11Z</time>
      </trkpt>
      <trkpt lat="43.30609" lon="-0.53891">
        <ele>279.88</ele>
        <time>2019-09-01T09:49:12Z</time>
      </trkpt>
      <trkpt lat="43.30606" lon="-0.53893">
        <ele>279.4</ele>
        <time>2019-09-01T09:49:13Z</time>
      </trkpt>
      <trkpt lat="43.30604" lon="-0.53896">
        <ele>279.4</ele>
        <time>2019-09-01T09:49:14Z</time>
      </trkpt>
      <trkpt lat="43.30602" lon="-0.53899">
        <ele>279.4</ele>
        <time>2019-09-01T09:49:15Z</time>
      </trkpt>
      <trkpt lat="43.30593" lon="-0.53929">
        <ele>280.84</ele>
        <time>2019-09-01T09:49:29Z</time>
      </trkpt>
      <trkpt lat="43.30582" lon="-0.53959">
        <ele>281.8</ele>
        <time>2019-09-01T09:49:44Z</time>
      </trkpt>
      <trkpt lat="43.30564" lon="-0.53997">
        <ele>284.21</ele>
        <time>2019-09-01T09:50:02Z</time>
      </trkpt>
      <trkpt lat="43.30533" lon="-0.54042">
        <ele>283.73</ele>
        <time>2019-09-01T09:50:18Z</time>
      </trkpt>
      <trkpt lat="43.30499" lon="-0.54097">
        <ele>282.77</ele>
        <time>2019-09-01T09:50:32Z</time>
      </trkpt>
      <trkpt lat="43.30497" lon="-0.54166">
        <ele>282.28</ele>
        <time>2019-09-01T09:50:45Z</time>
      </trkpt>
      <trkpt lat="43.30506" lon="-0.54247">
        <ele>280.36</ele>
        <time>2019-09-01T09:50:58Z</time>
      </trkpt>
      <trkpt lat="43.30523" lon="-0.54344">
        <ele>280.36</ele>
        <time>2019-09-01T09:51:16Z</time>
      </trkpt>
      <trkpt lat="43.3054" lon="-0.54412">
        <ele>283.73</ele>
        <time>2019-09-01T09:51:32Z</time>
      </trkpt>
      <trkpt lat="43.30566" lon="-0.54465">
        <ele>280.84</ele>
        <time>2019-09-01T09:51:47Z</time>
      </trkpt>
      <trkpt lat="43.30576" lon="-0.54488">
        <ele>281.8</ele>
        <time>2019-09-01T09:51:52Z</time>
      </trkpt>
      <trkpt lat="43.30583" lon="-0.54517">
        <ele>281.8</ele>
        <time>2019-09-01T09:51:57Z</time>
      </trkpt>
      <trkpt lat="43.30585" lon="-0.54523">
        <ele>281.32</ele>
        <time>2019-09-01T09:51:58Z</time>
      </trkpt>
      <trkpt lat="43.30587" lon="-0.54528">
        <ele>281.32</ele>
        <time>2019-09-01T09:51:59Z</time>
      </trkpt>
      <trkpt lat="43.30588" lon="-0.54533">
        <ele>280.84</ele>
        <time>2019-09-01T09:52:00Z</time>
      </trkpt>
      <trkpt lat="43.30589" lon="-0.54539">
        <ele>280.84</ele>
        <time>2019-09-01T09:52:01Z</time>
      </trkpt>
      <trkpt lat="43.30591" lon="-0.54545">
        <ele>280.36</ele>
        <time>2019-09-01T09:52:02Z</time>
      </trkpt>
      <trkpt lat="43.30612" lon="-0.54643">
        <ele>272.67</ele>
        <time>2019-09-01T09:52:15Z</time>
      </trkpt>
      <trkpt lat="43.30619" lon="-0.5468">
        <ele>268.35</ele>
        <time>2019-09-01T09:52:19Z</time>
      </trkpt>
      <trkpt lat="43.30623" lon="-0.54707">
        <ele>264.98</ele>
        <time>2019-09-01T09:52:22Z</time>
      </trkpt>
      <trkpt lat="43.30651" lon="-0.54808">
        <ele>258.73</ele>
        <time>2019-09-01T09:52:33Z</time>
      </trkpt>
      <trkpt lat="43.30663" lon="-0.54851">
        <ele>260.17</ele>
        <time>2019-09-01T09:52:42Z</time>
      </trkpt>
      <trkpt lat="43.30686" lon="-0.54884">
        <ele>265.94</ele>
        <time>2019-09-01T09:52:57Z</time>
      </trkpt>
      <trkpt lat="43.30693" lon="-0.54891">
        <ele>267.86</ele>
        <time>2019-09-01T09:53:02Z</time>
      </trkpt>
      <trkpt lat="43.30706" lon="-0.54918">
        <ele>271.23</ele>
        <time>2019-09-01T09:53:15Z</time>
      </trkpt>
      <trkpt lat="43.30708" lon="-0.54931">
        <ele>272.67</ele>
        <time>2019-09-01T09:53:25Z</time>
      </trkpt>
      <trkpt lat="43.30707" lon="-0.54942">
        <ele>276.52</ele>
        <time>2019-09-01T09:53:39Z</time>
      </trkpt>
      <trkpt lat="43.30713" lon="-0.54972">
        <ele>278.44</ele>
        <time>2019-09-01T09:53:52Z</time>
      </trkpt>
      <trkpt lat="43.30724" lon="-0.55002">
        <ele>276.52</ele>
        <time>2019-09-01T09:54:02Z</time>
      </trkpt>
      <trkpt lat="43.30724" lon="-0.5501">
        <ele>277</ele>
        <time>2019-09-01T09:54:08Z</time>
      </trkpt>
      <trkpt lat="43.30744" lon="-0.55038">
        <ele>272.67</ele>
        <time>2019-09-01T09:54:18Z</time>
      </trkpt>
      <trkpt lat="43.30792" lon="-0.55091">
        <ele>265.46</ele>
        <time>2019-09-01T09:54:30Z</time>
      </trkpt>
      <trkpt lat="43.30813" lon="-0.55133">
        <ele>261.62</ele>
        <time>2019-09-01T09:54:41Z</time>
      </trkpt>
      <trkpt lat="43.30815" lon="-0.55147">
        <ele>260.17</ele>
        <time>2019-09-01T09:54:44Z</time>
      </trkpt>
      <trkpt lat="43.30827" lon="-0.55165">
        <ele>256.81</ele>
        <time>2019-09-01T09:54:49Z</time>
      </trkpt>
      <trkpt lat="43.30868" lon="-0.552">
        <ele>252</ele>
        <time>2019-09-01T09:55:02Z</time>
      </trkpt>
      <trkpt lat="43.30869" lon="-0.55213">
        <ele>250.08</ele>
        <time>2019-09-01T09:55:06Z</time>
      </trkpt>
      <trkpt lat="43.30845" lon="-0.55289">
        <ele>236.62</ele>
        <time>2019-09-01T09:55:18Z</time>
      </trkpt>
      <trkpt lat="43.30842" lon="-0.55296">
        <ele>235.18</ele>
        <time>2019-09-01T09:55:20Z</time>
      </trkpt>
      <trkpt lat="43.30835" lon="-0.55295">
        <ele>234.22</ele>
        <time>2019-09-01T09:55:24Z</time>
      </trkpt>
      <trkpt lat="43.30802" lon="-0.55261">
        <ele>235.18</ele>
        <time>2019-09-01T09:55:43Z</time>
      </trkpt>
      <trkpt lat="43.30771" lon="-0.55245">
        <ele>234.7</ele>
        <time>2019-09-01T09:55:58Z</time>
      </trkpt>
      <trkpt lat="43.30755" lon="-0.55247">
        <ele>231.81</ele>
        <time>2019-09-01T09:56:02Z</time>
      </trkpt>
      <trkpt lat="43.30738" lon="-0.55254">
        <ele>228.45</ele>
        <time>2019-09-01T09:56:06Z</time>
      </trkpt>
      <trkpt lat="43.30718" lon="-0.55235">
        <ele>227.49</ele>
        <time>2019-09-01T09:56:13Z</time>
      </trkpt>
      <trkpt lat="43.30691" lon="-0.55216">
        <ele>229.41</ele>
        <time>2019-09-01T09:56:28Z</time>
      </trkpt>
      <trkpt lat="43.3069" lon="-0.55214">
        <ele>229.41</ele>
        <time>2019-09-01T09:56:41Z</time>
      </trkpt>
      <trkpt lat="43.30692" lon="-0.55216">
        <ele>232.3</ele>
        <time>2019-09-01T09:57:07Z</time>
      </trkpt>
      <trkpt lat="43.30691" lon="-0.55216">
        <ele>232.78</ele>
        <time>2019-09-01T09:57:25Z</time>
      </trkpt>
      <trkpt lat="43.30691" lon="-0.55212">
        <ele>235.66</ele>
        <time>2019-09-01T09:57:50Z</time>
      </trkpt>
      <trkpt lat="43.30694" lon="-0.55213">
        <ele>237.1</ele>
        <time>2019-09-01T09:58:17Z</time>
      </trkpt>
      <trkpt lat="43.30693" lon="-0.55212">
        <ele>234.22</ele>
        <time>2019-09-01T09:58:42Z</time>
      </trkpt>
      <trkpt lat="43.3069" lon="-0.55216">
        <ele>234.22</ele>
        <time>2019-09-01T09:58:54Z</time>
      </trkpt>
      <trkpt lat="43.30685" lon="-0.55223">
        <ele>232.78</ele>
        <time>2019-09-01T09:58:59Z</time>
      </trkpt>
      <trkpt lat="43.30682" lon="-0.5523">
        <ele>231.33</ele>
        <time>2019-09-01T09:59:02Z</time>
      </trkpt>
      <trkpt lat="43.30683" lon="-0.55233">
        <ele>230.37</ele>
        <time>2019-09-01T09:59:03Z</time>
      </trkpt>
      <trkpt lat="43.30686" lon="-0.55236">
        <ele>230.37</ele>
        <time>2019-09-01T09:59:04Z</time>
      </trkpt>
      <trkpt lat="43.30689" lon="-0.5524">
        <ele>229.89</ele>
        <time>2019-09-01T09:59:05Z</time>
      </trkpt>
      <trkpt lat="43.30692" lon="-0.55245">
        <ele>229.89</ele>
        <time>2019-09-01T09:59:06Z</time>
      </trkpt>
      <trkpt lat="43.30727" lon="-0.55299">
        <ele>224.61</ele>
        <time>2019-09-01T09:59:17Z</time>
      </trkpt>
      <trkpt lat="43.30796" lon="-0.55401">
        <ele>214.99</ele>
        <time>2019-09-01T09:59:30Z</time>
      </trkpt>
      <trkpt lat="43.30831" lon="-0.55455">
        <ele>213.55</ele>
        <time>2019-09-01T09:59:37Z</time>
      </trkpt>
      <trkpt lat="43.30878" lon="-0.5556">
        <ele>206.34</ele>
        <time>2019-09-01T09:59:46Z</time>
      </trkpt>
      <trkpt lat="43.30895" lon="-0.55592">
        <ele>204.9</ele>
        <time>2019-09-01T09:59:51Z</time>
      </trkpt>
      <trkpt lat="43.309" lon="-0.55597">
        <ele>203.94</ele>
        <time>2019-09-01T09:59:52Z</time>
      </trkpt>
      <trkpt lat="43.30968" lon="-0.55669">
        <ele>194.8</ele>
        <time>2019-09-01T10:00:02Z</time>
      </trkpt>
      <trkpt lat="43.31001" lon="-0.55708">
        <ele>193.84</ele>
        <time>2019-09-01T10:00:09Z</time>
      </trkpt>
      <trkpt lat="43.31003" lon="-0.55719">
        <ele>193.36</ele>
        <time>2019-09-01T10:00:13Z</time>
      </trkpt>
      <trkpt lat="43.31003" lon="-0.55722">
        <ele>193.36</ele>
        <time>2019-09-01T10:00:14Z</time>
      </trkpt>
      <trkpt lat="43.31002" lon="-0.55725">
        <ele>192.88</ele>
        <time>2019-09-01T10:00:15Z</time>
      </trkpt>
      <trkpt lat="43.30994" lon="-0.55763">
        <ele>189.52</ele>
        <time>2019-09-01T10:00:20Z</time>
      </trkpt>
      <trkpt lat="43.30993" lon="-0.55773">
        <ele>188.56</ele>
        <time>2019-09-01T10:00:21Z</time>
      </trkpt>
      <trkpt lat="43.30994" lon="-0.55867">
        <ele>180.87</ele>
        <time>2019-09-01T10:00:30Z</time>
      </trkpt>
      <trkpt lat="43.30995" lon="-0.55886">
        <ele>179.42</ele>
        <time>2019-09-01T10:00:33Z</time>
      </trkpt>
      <trkpt lat="43.30998" lon="-0.55897">
        <ele>178.46</ele>
        <time>2019-09-01T10:00:35Z</time>
      </trkpt>
      <trkpt lat="43.31" lon="-0.55902">
        <ele>177.98</ele>
        <time>2019-09-01T10:00:36Z</time>
      </trkpt>
      <trkpt lat="43.31002" lon="-0.55908">
        <ele>177.02</ele>
        <time>2019-09-01T10:00:37Z</time>
      </trkpt>
      <trkpt lat="43.31003" lon="-0.55914">
        <ele>176.54</ele>
        <time>2019-09-01T10:00:38Z</time>
      </trkpt>
      <trkpt lat="43.31005" lon="-0.5592">
        <ele>175.58</ele>
        <time>2019-09-01T10:00:39Z</time>
      </trkpt>
      <trkpt lat="43.31001" lon="-0.5596">
        <ele>169.81</ele>
        <time>2019-09-01T10:00:47Z</time>
      </trkpt>
      <trkpt lat="43.30996" lon="-0.55978">
        <ele>167.89</ele>
        <time>2019-09-01T10:00:50Z</time>
      </trkpt>
      <trkpt lat="43.30996" lon="-0.56003">
        <ele>165</ele>
        <time>2019-09-01T10:00:54Z</time>
      </trkpt>
      <trkpt lat="43.30998" lon="-0.5606">
        <ele>159.24</ele>
        <time>2019-09-01T10:01:05Z</time>
      </trkpt>
      <trkpt lat="43.30999" lon="-0.56079">
        <ele>157.31</ele>
        <time>2019-09-01T10:01:09Z</time>
      </trkpt>
      <trkpt lat="43.30999" lon="-0.56085">
        <ele>156.35</ele>
        <time>2019-09-01T10:01:10Z</time>
      </trkpt>
      <trkpt lat="43.30993" lon="-0.56124">
        <ele>152.99</ele>
        <time>2019-09-01T10:01:17Z</time>
      </trkpt>
      <trkpt lat="43.30987" lon="-0.56178">
        <ele>147.22</ele>
        <time>2019-09-01T10:01:28Z</time>
      </trkpt>
      <trkpt lat="43.30984" lon="-0.56237">
        <ele>143.85</ele>
        <time>2019-09-01T10:01:41Z</time>
      </trkpt>
      <trkpt lat="43.30993" lon="-0.56262">
        <ele>142.41</ele>
        <time>2019-09-01T10:01:47Z</time>
      </trkpt>
      <trkpt lat="43.30997" lon="-0.56265">
        <ele>141.93</ele>
        <time>2019-09-01T10:01:48Z</time>
      </trkpt>
      <trkpt lat="43.31023" lon="-0.56278">
        <ele>140.01</ele>
        <time>2019-09-01T10:01:53Z</time>
      </trkpt>
      <trkpt lat="43.31061" lon="-0.5629">
        <ele>139.05</ele>
        <time>2019-09-01T10:02:05Z</time>
      </trkpt>
      <trkpt lat="43.31102" lon="-0.56314">
        <ele>140.49</ele>
        <time>2019-09-01T10:02:20Z</time>
      </trkpt>
      <trkpt lat="43.31137" lon="-0.56325">
        <ele>142.89</ele>
        <time>2019-09-01T10:02:33Z</time>
      </trkpt>
      <trkpt lat="43.31169" lon="-0.56342">
        <ele>144.82</ele>
        <time>2019-09-01T10:02:45Z</time>
      </trkpt>
      <trkpt lat="43.31217" lon="-0.56353">
        <ele>143.85</ele>
        <time>2019-09-01T10:02:59Z</time>
      </trkpt>
      <trkpt lat="43.31241" lon="-0.56329">
        <ele>143.37</ele>
        <time>2019-09-01T10:03:09Z</time>
      </trkpt>
      <trkpt lat="43.31273" lon="-0.56345">
        <ele>140.97</ele>
        <time>2019-09-01T10:03:18Z</time>
      </trkpt>
      <trkpt lat="43.31353" lon="-0.56381">
        <ele>136.64</ele>
        <time>2019-09-01T10:03:35Z</time>
      </trkpt>
      <trkpt lat="43.31405" lon="-0.56401">
        <ele>135.2</ele>
        <time>2019-09-01T10:03:48Z</time>
      </trkpt>
      <trkpt lat="43.31474" lon="-0.5643">
        <ele>134.72</ele>
        <time>2019-09-01T10:04:06Z</time>
      </trkpt>
      <trkpt lat="43.31532" lon="-0.56457">
        <ele>134.24</ele>
        <time>2019-09-01T10:04:20Z</time>
      </trkpt>
      <trkpt lat="43.31567" lon="-0.56476">
        <ele>133.76</ele>
        <time>2019-09-01T10:04:29Z</time>
      </trkpt>
      <trkpt lat="43.31572" lon="-0.56479">
        <ele>133.76</ele>
        <time>2019-09-01T10:04:30Z</time>
      </trkpt>
      <trkpt lat="43.31621" lon="-0.56499">
        <ele>132.8</ele>
        <time>2019-09-01T10:04:43Z</time>
      </trkpt>
      <trkpt lat="43.31681" lon="-0.56524">
        <ele>133.76</ele>
        <time>2019-09-01T10:04:59Z</time>
      </trkpt>
      <trkpt lat="43.31742" lon="-0.56551">
        <ele>134.72</ele>
        <time>2019-09-01T10:05:16Z</time>
      </trkpt>
      <trkpt lat="43.31788" lon="-0.56568">
        <ele>136.16</ele>
        <time>2019-09-01T10:05:30Z</time>
      </trkpt>
      <trkpt lat="43.31806" lon="-0.56568">
        <ele>136.64</ele>
        <time>2019-09-01T10:05:35Z</time>
      </trkpt>
      <trkpt lat="43.31808" lon="-0.56566">
        <ele>136.64</ele>
        <time>2019-09-01T10:05:36Z</time>
      </trkpt>
      <trkpt lat="43.3181" lon="-0.56563">
        <ele>137.13</ele>
        <time>2019-09-01T10:05:37Z</time>
      </trkpt>
      <trkpt lat="43.31811" lon="-0.5656">
        <ele>137.13</ele>
        <time>2019-09-01T10:05:38Z</time>
      </trkpt>
      <trkpt lat="43.31812" lon="-0.56556">
        <ele>137.13</ele>
        <time>2019-09-01T10:05:39Z</time>
      </trkpt>
      <trkpt lat="43.31819" lon="-0.56538">
        <ele>137.61</ele>
        <time>2019-09-01T10:05:44Z</time>
      </trkpt>
      <trkpt lat="43.31821" lon="-0.56536">
        <ele>137.61</ele>
        <time>2019-09-01T10:05:45Z</time>
      </trkpt>
      <trkpt lat="43.31823" lon="-0.56534">
        <ele>138.09</ele>
        <time>2019-09-01T10:05:46Z</time>
      </trkpt>
      <trkpt lat="43.31826" lon="-0.56534">
        <ele>138.09</ele>
        <time>2019-09-01T10:05:47Z</time>
      </trkpt>
      <trkpt lat="43.31828" lon="-0.56534">
        <ele>138.57</ele>
        <time>2019-09-01T10:05:48Z</time>
      </trkpt>
      <trkpt lat="43.3183" lon="-0.56534">
        <ele>138.57</ele>
        <time>2019-09-01T10:05:49Z</time>
      </trkpt>
      <trkpt lat="43.31832" lon="-0.56535">
        <ele>139.05</ele>
        <time>2019-09-01T10:05:50Z</time>
      </trkpt>
      <trkpt lat="43.31835" lon="-0.56536">
        <ele>139.05</ele>
        <time>2019-09-01T10:05:51Z</time>
      </trkpt>
      <trkpt lat="43.31838" lon="-0.56537">
        <ele>139.53</ele>
        <time>2019-09-01T10:05:52Z</time>
      </trkpt>
      <trkpt lat="43.31841" lon="-0.56539">
        <ele>139.53</ele>
        <time>2019-09-01T10:05:53Z</time>
      </trkpt>
      <trkpt lat="43.31845" lon="-0.56539">
        <ele>139.53</ele>
        <time>2019-09-01T10:05:54Z</time>
      </trkpt>
      <trkpt lat="43.31849" lon="-0.5654">
        <ele>139.53</ele>
        <time>2019-09-01T10:05:55Z</time>
      </trkpt>
      <trkpt lat="43.31853" lon="-0.56541">
        <ele>139.53</ele>
        <time>2019-09-01T10:05:56Z</time>
      </trkpt>
      <trkpt lat="43.3191" lon="-0.56552">
        <ele>138.09</ele>
        <time>2019-09-01T10:06:08Z</time>
      </trkpt>
      <trkpt lat="43.31919" lon="-0.56556">
        <ele>138.09</ele>
        <time>2019-09-01T10:06:10Z</time>
      </trkpt>
      <trkpt lat="43.31923" lon="-0.56559">
        <ele>138.09</ele>
        <time>2019-09-01T10:06:11Z</time>
      </trkpt>
      <trkpt lat="43.31927" lon="-0.56562">
        <ele>138.09</ele>
        <time>2019-09-01T10:06:12Z</time>
      </trkpt>
      <trkpt lat="43.3197" lon="-0.56599">
        <ele>137.13</ele>
        <time>2019-09-01T10:06:22Z</time>
      </trkpt>
      <trkpt lat="43.31975" lon="-0.56602">
        <ele>136.64</ele>
        <time>2019-09-01T10:06:23Z</time>
      </trkpt>
      <trkpt lat="43.31981" lon="-0.56604">
        <ele>136.64</ele>
        <time>2019-09-01T10:06:24Z</time>
      </trkpt>
      <trkpt lat="43.31986" lon="-0.56605">
        <ele>136.64</ele>
        <time>2019-09-01T10:06:25Z</time>
      </trkpt>
      <trkpt lat="43.31992" lon="-0.56605">
        <ele>136.64</ele>
        <time>2019-09-01T10:06:26Z</time>
      </trkpt>
      <trkpt lat="43.32077" lon="-0.56622">
        <ele>136.64</ele>
        <time>2019-09-01T10:06:41Z</time>
      </trkpt>
      <trkpt lat="43.32097" lon="-0.56635">
        <ele>137.13</ele>
        <time>2019-09-01T10:06:45Z</time>
      </trkpt>
      <trkpt lat="43.32102" lon="-0.56639">
        <ele>137.13</ele>
        <time>2019-09-01T10:06:46Z</time>
      </trkpt>
      <trkpt lat="43.32129" lon="-0.56657">
        <ele>137.13</ele>
        <time>2019-09-01T10:06:52Z</time>
      </trkpt>
      <trkpt lat="43.32132" lon="-0.5666">
        <ele>137.13</ele>
        <time>2019-09-01T10:06:53Z</time>
      </trkpt>
      <trkpt lat="43.32135" lon="-0.56664">
        <ele>137.13</ele>
        <time>2019-09-01T10:06:54Z</time>
      </trkpt>
      <trkpt lat="43.32136" lon="-0.56668">
        <ele>137.13</ele>
        <time>2019-09-01T10:06:55Z</time>
      </trkpt>
      <trkpt lat="43.32125" lon="-0.56695">
        <ele>138.09</ele>
        <time>2019-09-01T10:07:03Z</time>
      </trkpt>
      <trkpt lat="43.32123" lon="-0.56699">
        <ele>138.57</ele>
        <time>2019-09-01T10:07:04Z</time>
      </trkpt>
      <trkpt lat="43.32089" lon="-0.56766">
        <ele>137.13</ele>
        <time>2019-09-01T10:07:19Z</time>
      </trkpt>
      <trkpt lat="43.32086" lon="-0.5678">
        <ele>137.13</ele>
        <time>2019-09-01T10:07:22Z</time>
      </trkpt>
      <trkpt lat="43.32065" lon="-0.56812">
        <ele>136.64</ele>
        <time>2019-09-01T10:07:32Z</time>
      </trkpt>
      <trkpt lat="43.32096" lon="-0.56868">
        <ele>135.2</ele>
        <time>2019-09-01T10:07:46Z</time>
      </trkpt>
      <trkpt lat="43.32118" lon="-0.56909">
        <ele>134.72</ele>
        <time>2019-09-01T10:07:57Z</time>
      </trkpt>
      <trkpt lat="43.32118" lon="-0.56913">
        <ele>134.72</ele>
        <time>2019-09-01T10:07:58Z</time>
      </trkpt>
      <trkpt lat="43.32117" lon="-0.56917">
        <ele>134.72</ele>
        <time>2019-09-01T10:07:59Z</time>
      </trkpt>
      <trkpt lat="43.32117" lon="-0.5692">
        <ele>134.72</ele>
        <time>2019-09-01T10:08:00Z</time>
      </trkpt>
      <trkpt lat="43.32116" lon="-0.56922">
        <ele>134.72</ele>
        <time>2019-09-01T10:08:01Z</time>
      </trkpt>
      <trkpt lat="43.32116" lon="-0.56929">
        <ele>134.24</ele>
        <time>2019-09-01T10:08:10Z</time>
      </trkpt>
      <trkpt lat="43.32116" lon="-0.56931">
        <ele>134.24</ele>
        <time>2019-09-01T10:08:11Z</time>
      </trkpt>
      <trkpt lat="43.32117" lon="-0.56934">
        <ele>134.24</ele>
        <time>2019-09-01T10:08:12Z</time>
      </trkpt>
      <trkpt lat="43.32119" lon="-0.56936">
        <ele>134.24</ele>
        <time>2019-09-01T10:08:13Z</time>
      </trkpt>
      <trkpt lat="43.3212" lon="-0.56938">
        <ele>134.72</ele>
        <time>2019-09-01T10:08:14Z</time>
      </trkpt>
      <trkpt lat="43.32145" lon="-0.56983">
        <ele>132.32</ele>
        <time>2019-09-01T10:08:28Z</time>
      </trkpt>
      <trkpt lat="43.32172" lon="-0.57034">
        <ele>131.84</ele>
        <time>2019-09-01T10:08:43Z</time>
      </trkpt>
      <trkpt lat="43.32199" lon="-0.57085">
        <ele>131.84</ele>
        <time>2019-09-01T10:08:57Z</time>
      </trkpt>
      <trkpt lat="43.32223" lon="-0.57131">
        <ele>131.36</ele>
        <time>2019-09-01T10:09:09Z</time>
      </trkpt>
      <trkpt lat="43.32225" lon="-0.57133">
        <ele>131.36</ele>
        <time>2019-09-01T10:09:10Z</time>
      </trkpt>
      <trkpt lat="43.32228" lon="-0.57132">
        <ele>131.36</ele>
        <time>2019-09-01T10:09:11Z</time>
      </trkpt>
      <trkpt lat="43.3223" lon="-0.57129">
        <ele>131.36</ele>
        <time>2019-09-01T10:09:12Z</time>
      </trkpt>
      <trkpt lat="43.32231" lon="-0.57126">
        <ele>131.84</ele>
        <time>2019-09-01T10:09:13Z</time>
      </trkpt>
      <trkpt lat="43.32231" lon="-0.57122">
        <ele>131.36</ele>
        <time>2019-09-01T10:09:14Z</time>
      </trkpt>
      <trkpt lat="43.32244" lon="-0.57025">
        <ele>131.36</ele>
        <time>2019-09-01T10:09:35Z</time>
      </trkpt>
      <trkpt lat="43.3225" lon="-0.57014">
        <ele>130.88</ele>
        <time>2019-09-01T10:09:38Z</time>
      </trkpt>
      <trkpt lat="43.32259" lon="-0.57011">
        <ele>130.88</ele>
        <time>2019-09-01T10:09:41Z</time>
      </trkpt>
      <trkpt lat="43.3226" lon="-0.57008">
        <ele>130.88</ele>
        <time>2019-09-01T10:09:42Z</time>
      </trkpt>
      <trkpt lat="43.32261" lon="-0.57006">
        <ele>130.88</ele>
        <time>2019-09-01T10:09:43Z</time>
      </trkpt>
      <trkpt lat="43.32261" lon="-0.57002">
        <ele>130.88</ele>
        <time>2019-09-01T10:09:44Z</time>
      </trkpt>
      <trkpt lat="43.32263" lon="-0.56997">
        <ele>130.88</ele>
        <time>2019-09-01T10:09:46Z</time>
      </trkpt>
      <trkpt lat="43.3227" lon="-0.56995">
        <ele>131.36</ele>
        <time>2019-09-01T10:09:49Z</time>
      </trkpt>
      <trkpt lat="43.32276" lon="-0.56997">
        <ele>131.36</ele>
        <time>2019-09-01T10:09:52Z</time>
      </trkpt>
    </trkseg>
  </trk>
</gpx>